Wetterdaten: Mittwoch, 30.08.2017
Datum Zeit Temp. A. Pool Temp. Feuchte A. Luftdruck Regen Wind Richtung Richtung Sonnenschein ET UV Solar Taupunkt Windchill Windben Empfang
30.08.2017 00:00 16,3 C 23,3 C 77 % 1014,3 hPa 0,0 l/m 0,3 km/h (0 Bft) O-NO 78 0 min 0,000 mm 0,0 UV-I 0 W/m 12,3 C 16,3 C 3,2 km/h (1 Bft) 95,74 %
30.08.2017 00:02 16,2 C 23,3 C 78 % 1014,3 hPa 0,0 l/m 1,6 km/h (1 Bft) O-NO 78 0 min 0,000 mm 0,0 UV-I 0 W/m 12,4 C 16,2 C 1,6 km/h (1 Bft) 96,97 %
30.08.2017 00:04 15,9 C 23,3 C 79 % 1014,3 hPa 0,0 l/m 1,6 km/h (1 Bft) O-NO 78 0 min 0,000 mm 0,0 UV-I 0 W/m 12,3 C 15,9 C 1,6 km/h (1 Bft) 92,00 %
30.08.2017 00:06 15,7 C 23,3 C 79 % 1014,2 hPa 0,0 l/m 1,8 km/h (1 Bft) O-NO 78 0 min 0,000 mm 0,0 UV-I 0 W/m 12,1 C 15,7 C 3,2 km/h (1 Bft) 98,11 %
30.08.2017 00:08 15,5 C 23,3 C 80 % 1014,2 hPa 0,0 l/m 2,0 km/h (1 Bft) O-NO 78 0 min 0,000 mm 0,0 UV-I 0 W/m 12,1 C 15,5 C 3,2 km/h (1 Bft) 97,92 %
30.08.2017 00:10 15,4 C 23,3 C 80 % 1014,3 hPa 0,0 l/m 1,9 km/h (1 Bft) O-NO 78 0 min 0,000 mm 0,0 UV-I 0 W/m 12,0 C 15,4 C 3,2 km/h (1 Bft) 97,37 %
30.08.2017 00:12 15,3 C 23,3 C 81 % 1014,3 hPa 0,0 l/m 1,3 km/h (1 Bft) O-NO 78 0 min 0,000 mm 0,0 UV-I 0 W/m 12,1 C 15,3 C 3,2 km/h (1 Bft) 96,00 %
30.08.2017 00:14 15,2 C 23,3 C 81 % 1014,3 hPa 0,0 l/m 0,0 km/h (0 Bft) O-NO 78 0 min 0,000 mm 0,0 UV-I 0 W/m 12,0 C 15,2 C 1,6 km/h (1 Bft) 95,74 %
30.08.2017 00:16 15,2 C 23,3 C 80 % 1014,2 hPa 0,0 l/m 1,1 km/h (1 Bft) O-NO 78 0 min 0,000 mm 0,0 UV-I 0 W/m 11,8 C 15,2 C 1,6 km/h (1 Bft) 97,73 %
30.08.2017 00:18 15,2 C 23,3 C 80 % 1014,3 hPa 0,0 l/m 1,9 km/h (1 Bft) O-NO 78 0 min 0,000 mm 0,0 UV-I 0 W/m 11,8 C 15,2 C 3,2 km/h (1 Bft) 98,04 %
30.08.2017 00:20 15,2 C 23,3 C 81 % 1014,2 hPa 0,0 l/m 1,8 km/h (1 Bft) O-NO 78 0 min 0,000 mm 0,0 UV-I 0 W/m 12,0 C 15,2 C 3,2 km/h (1 Bft) 96,00 %
30.08.2017 00:22 15,2 C 23,3 C 81 % 1014,2 hPa 0,0 l/m 1,7 km/h (1 Bft) O-NO 78 0 min 0,000 mm 0,0 UV-I 0 W/m 12,0 C 15,2 C 3,2 km/h (1 Bft) 97,56 %
30.08.2017 00:24 15,1 C 23,3 C 81 % 1014,2 hPa 0,0 l/m 1,5 km/h (1 Bft) O-NO 78 0 min 0,000 mm 0,0 UV-I 0 W/m 11,9 C 15,1 C 3,2 km/h (1 Bft) 97,87 %
30.08.2017 00:26 15,1 C 23,3 C 81 % 1014,2 hPa 0,0 l/m 0,4 km/h (0 Bft) O-NO 78 0 min 0,000 mm 0,0 UV-I 0 W/m 11,9 C 15,1 C 1,6 km/h (1 Bft) 97,87 %
30.08.2017 00:28 15,1 C 23,3 C 81 % 1014,2 hPa 0,0 l/m 0,0 km/h (0 Bft) O-NO 78 0 min 0,000 mm 0,0 UV-I 0 W/m 11,9 C 15,1 C 0,0 km/h (0 Bft) 98,00 %
30.08.2017 00:30 15,1 C 23,3 C 81 % 1014,2 hPa 0,0 l/m 0,0 km/h (0 Bft) O-NO 78 0 min 0,000 mm 0,0 UV-I 0 W/m 11,9 C 15,1 C 0,0 km/h (0 Bft) 98,00 %
30.08.2017 00:32 15,1 C 23,3 C 82 % 1014,3 hPa 0,0 l/m 0,0 km/h (0 Bft) O-NO 78 0 min 0,000 mm 0,0 UV-I 0 W/m 12,0 C 15,1 C 0,0 km/h (0 Bft) 93,62 %
30.08.2017 00:34 15,1 C 23,3 C 81 % 1014,3 hPa 0,0 l/m 0,0 km/h (0 Bft) O-NO 78 0 min 0,000 mm 0,0 UV-I 0 W/m 11,9 C 15,1 C 0,0 km/h (0 Bft) 97,22 %
30.08.2017 00:36 15,0 C 23,3 C 81 % 1014,3 hPa 0,0 l/m 0,0 km/h (0 Bft) O-NO 78 0 min 0,000 mm 0,0 UV-I 0 W/m 11,8 C 15,0 C 0,0 km/h (0 Bft) 96,15 %
30.08.2017 00:38 14,9 C 23,3 C 81 % 1014,3 hPa 0,0 l/m 0,0 km/h (0 Bft) O-NO 78 0 min 0,000 mm 0,0 UV-I 0 W/m 11,7 C 14,9 C 0,0 km/h (0 Bft) 98,00 %
30.08.2017 00:40 14,9 C 23,3 C 83 % 1014,3 hPa 0,0 l/m 0,0 km/h (0 Bft) O-NO 78 0 min 0,000 mm 0,0 UV-I 0 W/m 12,0 C 14,9 C 0,0 km/h (0 Bft) 94,87 %
30.08.2017 00:42 14,8 C 23,3 C 83 % 1014,3 hPa 0,0 l/m 0,0 km/h (0 Bft) O-NO 78 0 min 0,000 mm 0,0 UV-I 0 W/m 11,9 C 14,8 C 0,0 km/h (0 Bft) 98,00 %
30.08.2017 00:44 14,8 C 23,3 C 83 % 1014,3 hPa 0,0 l/m 0,0 km/h (0 Bft) O-NO 78 0 min 0,000 mm 0,0 UV-I 0 W/m 11,9 C 14,8 C 0,0 km/h (0 Bft) 98,00 %
30.08.2017 00:46 14,7 C 23,3 C 84 % 1014,3 hPa 0,0 l/m 0,0 km/h (0 Bft) O-NO 78 0 min 0,000 mm 0,0 UV-I 0 W/m 12,0 C 14,7 C 0,0 km/h (0 Bft) 97,87 %
30.08.2017 00:48 14,6 C 23,3 C 84 % 1014,3 hPa 0,0 l/m 0,6 km/h (0 Bft) O-NO 78 0 min 0,000 mm 0,0 UV-I 0 W/m 11,9 C 14,6 C 3,2 km/h (1 Bft) 98,11 %
30.08.2017 00:50 14,6 C 23,3 C 83 % 1014,3 hPa 0,0 l/m 2,0 km/h (1 Bft) O-NO 78 0 min 0,000 mm 0,0 UV-I 0 W/m 11,7 C 14,6 C 3,2 km/h (1 Bft) 100,00 %
30.08.2017 00:52 14,7 C 23,3 C 83 % 1014,3 hPa 0,0 l/m 1,9 km/h (1 Bft) O-NO 78 0 min 0,000 mm 0,0 UV-I 0 W/m 11,8 C 14,7 C 3,2 km/h (1 Bft) 100,00 %
30.08.2017 00:54 14,7 C 23,3 C 83 % 1014,3 hPa 0,0 l/m 1,2 km/h (1 Bft) O-NO 78 0 min 0,000 mm 0,0 UV-I 0 W/m 11,8 C 14,7 C 3,2 km/h (1 Bft) 95,74 %
30.08.2017 00:56 14,7 C 23,3 C 84 % 1014,3 hPa 0,0 l/m 0,0 km/h (0 Bft) O-NO 78 0 min 0,000 mm 0,0 UV-I 0 W/m 12,0 C 14,7 C 0,0 km/h (0 Bft) 100,00 %
30.08.2017 00:58 14,6 C 23,3 C 84 % 1014,3 hPa 0,0 l/m 0,0 km/h (0 Bft) O-NO 78 0 min 0,000 mm 0,0 UV-I 0 W/m 11,9 C 14,6 C 0,0 km/h (0 Bft) 100,00 %
30.08.2017 01:00 14,4 C 23,3 C 84 % 1014,3 hPa 0,0 l/m 0,0 km/h (0 Bft) O-NO 78 0 min 0,000 mm 0,0 UV-I 0 W/m 11,7 C 14,4 C 0,0 km/h (0 Bft) 100,00 %
30.08.2017 01:02 14,4 C 23,3 C 84 % 1014,2 hPa 0,0 l/m 0,0 km/h (0 Bft) O-NO 78 0 min 0,000 mm 0,0 UV-I 0 W/m 11,7 C 14,4 C 0,0 km/h (0 Bft) 94,29 %
30.08.2017 01:04 14,4 C 23,3 C 84 % 1014,2 hPa 0,0 l/m 0,0 km/h (0 Bft) O-NO 78 0 min 0,000 mm 0,0 UV-I 0 W/m 11,7 C 14,4 C 0,0 km/h (0 Bft) 100,00 %
30.08.2017 01:06 14,4 C 23,3 C 84 % 1014,3 hPa 0,0 l/m 0,0 km/h (0 Bft) O-NO 78 0 min 0,000 mm 0,0 UV-I 0 W/m 11,7 C 14,4 C 0,0 km/h (0 Bft) 100,00 %
30.08.2017 01:08 14,4 C 23,3 C 84 % 1014,3 hPa 0,0 l/m 0,0 km/h (0 Bft) O-NO 78 0 min 0,000 mm 0,0 UV-I 0 W/m 11,7 C 14,4 C 0,0 km/h (0 Bft) 98,00 %
30.08.2017 01:10 14,4 C 23,3 C 84 % 1014,3 hPa 0,0 l/m 0,0 km/h (0 Bft) O-NO 78 0 min 0,000 mm 0,0 UV-I 0 W/m 11,7 C 14,4 C 0,0 km/h (0 Bft) 100,00 %
30.08.2017 01:12 14,3 C 23,3 C 84 % 1014,2 hPa 0,0 l/m 0,1 km/h (0 Bft) O-NO 78 0 min 0,000 mm 0,0 UV-I 0 W/m 11,6 C 14,3 C 1,6 km/h (1 Bft) 100,00 %
30.08.2017 01:14 14,2 C 23,3 C 84 % 1014,3 hPa 0,0 l/m 0,0 km/h (0 Bft) O-NO 78 0 min 0,000 mm 0,0 UV-I 0 W/m 11,5 C 14,2 C 0,0 km/h (0 Bft) 95,74 %
30.08.2017 01:16 14,2 C 23,3 C 85 % 1014,3 hPa 0,0 l/m 0,4 km/h (0 Bft) O-NO 78 0 min 0,000 mm 0,0 UV-I 0 W/m 11,7 C 14,2 C 1,6 km/h (1 Bft) 100,00 %
30.08.2017 01:18 14,1 C 23,3 C 85 % 1014,3 hPa 0,0 l/m 0,8 km/h (0 Bft) O-NO 78 0 min 0,000 mm 0,0 UV-I 0 W/m 11,6 C 14,1 C 3,2 km/h (1 Bft) 100,00 %
30.08.2017 01:20 14,1 C 23,3 C 86 % 1014,3 hPa 0,0 l/m 0,0 km/h (0 Bft) O-NO 78 0 min 0,000 mm 0,0 UV-I 0 W/m 11,8 C 14,1 C 0,0 km/h (0 Bft) 100,00 %
30.08.2017 01:22 14,0 C 23,3 C 86 % 1014,3 hPa 0,0 l/m 0,0 km/h (0 Bft) O-NO 78 0 min 0,000 mm 0,0 UV-I 0 W/m 11,7 C 14,0 C 0,0 km/h (0 Bft) 100,00 %
30.08.2017 01:24 14,0 C 23,3 C 86 % 1014,2 hPa 0,0 l/m 0,0 km/h (0 Bft) O-NO 78 0 min 0,000 mm 0,0 UV-I 0 W/m 11,7 C 14,0 C 0,0 km/h (0 Bft) 98,11 %
30.08.2017 01:26 13,9 C 23,3 C 86 % 1014,2 hPa 0,0 l/m 0,0 km/h (0 Bft) O-NO 78 0 min 0,000 mm 0,0 UV-I 0 W/m 11,6 C 13,9 C 0,0 km/h (0 Bft) 100,00 %
30.08.2017 01:28 13,9 C 23,3 C 86 % 1014,2 hPa 0,0 l/m 0,0 km/h (0 Bft) O-NO 78 0 min 0,000 mm 0,0 UV-I 0 W/m 11,6 C 13,9 C 0,0 km/h (0 Bft) 98,00 %
30.08.2017 01:30 13,9 C 23,3 C 86 % 1014,2 hPa 0,0 l/m 0,0 km/h (0 Bft) O-NO 78 0 min 0,000 mm 0,0 UV-I 0 W/m 11,6 C 13,9 C 0,0 km/h (0 Bft) 100,00 %
30.08.2017 01:32 13,8 C 23,3 C 86 % 1014,3 hPa 0,0 l/m 0,0 km/h (0 Bft) O-NO 78 0 min 0,000 mm 0,0 UV-I 0 W/m 11,5 C 13,8 C 0,0 km/h (0 Bft) 100,00 %
30.08.2017 01:34 13,8 C 23,3 C 86 % 1014,3 hPa 0,0 l/m 0,1 km/h (0 Bft) O-NO 78 0 min 0,000 mm 0,0 UV-I 0 W/m 11,5 C 13,8 C 1,6 km/h (1 Bft) 98,00 %
30.08.2017 01:36 13,8 C 23,3 C 86 % 1014,4 hPa 0,0 l/m 3,4 km/h (1 Bft) S-SO 157 0 min 0,000 mm 0,0 UV-I 0 W/m 11,5 C 13,8 C 4,8 km/h (1 Bft) 97,56 %
30.08.2017 01:38 13,8 C 23,3 C 86 % 1014,3 hPa 0,0 l/m 4,0 km/h (1 Bft) S-SO 157 0 min 0,000 mm 0,0 UV-I 0 W/m 11,5 C 13,8 C 4,8 km/h (1 Bft) 98,00 %
30.08.2017 01:40 13,7 C 23,3 C 86 % 1014,3 hPa 0,0 l/m 1,6 km/h (1 Bft) S-SO 157 0 min 0,000 mm 0,0 UV-I 0 W/m 11,4 C 13,7 C 4,8 km/h (1 Bft) 98,00 %
30.08.2017 01:42 13,7 C 23,3 C 86 % 1014,2 hPa 0,0 l/m 0,3 km/h (0 Bft) S-SO 157 0 min 0,000 mm 0,0 UV-I 0 W/m 11,4 C 13,7 C 3,2 km/h (1 Bft) 95,74 %
30.08.2017 01:44 13,6 C 23,3 C 86 % 1014,3 hPa 0,0 l/m 0,2 km/h (0 Bft) S-SO 157 0 min 0,000 mm 0,0 UV-I 0 W/m 11,3 C 13,6 C 1,6 km/h (1 Bft) 93,62 %
30.08.2017 01:46 13,6 C 23,3 C 87 % 1014,3 hPa 0,0 l/m 0,3 km/h (0 Bft) S-SO 157 0 min 0,000 mm 0,0 UV-I 0 W/m 11,5 C 13,6 C 1,6 km/h (1 Bft) 97,37 %
30.08.2017 01:48 13,5 C 23,3 C 87 % 1014,3 hPa 0,0 l/m 1,0 km/h (0 Bft) S-SO 157 0 min 0,000 mm 0,0 UV-I 0 W/m 11,4 C 13,5 C 1,6 km/h (1 Bft) 98,00 %
30.08.2017 01:50 13,4 C 23,3 C 87 % 1014,3 hPa 0,0 l/m 0,0 km/h (0 Bft) S-SO 157 0 min 0,000 mm 0,0 UV-I 0 W/m 11,3 C 13,4 C 0,0 km/h (0 Bft) 98,11 %
30.08.2017 01:52 13,4 C 23,3 C 87 % 1014,3 hPa 0,0 l/m 0,1 km/h (0 Bft) S-SO 157 0 min 0,000 mm 0,0 UV-I 0 W/m 11,3 C 13,4 C 1,6 km/h (1 Bft) 97,87 %
30.08.2017 01:54 13,4 C 23,3 C 87 % 1014,3 hPa 0,0 l/m 0,7 km/h (0 Bft) S-SO 157 0 min 0,000 mm 0,0 UV-I 0 W/m 11,3 C 13,4 C 3,2 km/h (1 Bft) 97,22 %
30.08.2017 01:56 13,4 C 23,3 C 87 % 1014,3 hPa 0,0 l/m 2,4 km/h (1 Bft) S-SO 157 0 min 0,000 mm 0,0 UV-I 0 W/m 11,3 C 13,4 C 3,2 km/h (1 Bft) 96,15 %
30.08.2017 01:58 13,3 C 23,3 C 87 % 1014,3 hPa 0,0 l/m 1,1 km/h (1 Bft) S-SO 157 0 min 0,000 mm 0,0 UV-I 0 W/m 11,2 C 13,3 C 3,2 km/h (1 Bft) 95,83 %
30.08.2017 02:00 13,4 C 23,3 C 87 % 1014,4 hPa 0,0 l/m 0,0 km/h (0 Bft) S-SO 157 0 min 0,000 mm 0,0 UV-I 0 W/m 11,3 C 13,4 C 0,0 km/h (0 Bft) 97,56 %
30.08.2017 02:02 13,4 C 23,3 C 87 % 1014,4 hPa 0,0 l/m 0,2 km/h (0 Bft) S-SO 157 0 min 0,000 mm 0,0 UV-I 0 W/m 11,3 C 13,4 C 1,6 km/h (1 Bft) 95,74 %
30.08.2017 02:04 13,4 C 23,3 C 87 % 1014,4 hPa 0,0 l/m 0,0 km/h (0 Bft) S-SO 157 0 min 0,000 mm 0,0 UV-I 0 W/m 11,3 C 13,4 C 0,0 km/h (0 Bft) 92,45 %
30.08.2017 02:06 13,4 C 23,3 C 87 % 1014,4 hPa 0,0 l/m 0,0 km/h (0 Bft) S-SO 157 0 min 0,000 mm 0,0 UV-I 0 W/m 11,3 C 13,4 C 0,0 km/h (0 Bft) 98,00 %
30.08.2017 02:08 13,4 C 23,3 C 87 % 1014,3 hPa 0,0 l/m 0,0 km/h (0 Bft) S-SO 157 0 min 0,000 mm 0,0 UV-I 0 W/m 11,3 C 13,4 C 0,0 km/h (0 Bft) 97,56 %
30.08.2017 02:10 13,4 C 23,3 C 87 % 1014,3 hPa 0,0 l/m 0,0 km/h (0 Bft) S-SO 157 0 min 0,000 mm 0,0 UV-I 0 W/m 11,3 C 13,4 C 0,0 km/h (0 Bft) 97,87 %
30.08.2017 02:12 13,3 C 23,3 C 87 % 1014,3 hPa 0,0 l/m 0,0 km/h (0 Bft) S-SO 157 0 min 0,000 mm 0,0 UV-I 0 W/m 11,2 C 13,3 C 0,0 km/h (0 Bft) 100,00 %
30.08.2017 02:14 13,3 C 23,3 C 87 % 1014,3 hPa 0,0 l/m 0,0 km/h (0 Bft) S-SO 157 0 min 0,000 mm 0,0 UV-I 0 W/m 11,2 C 13,3 C 0,0 km/h (0 Bft) 100,00 %
30.08.2017 02:16 13,3 C 23,3 C 87 % 1014,3 hPa 0,0 l/m 0,0 km/h (0 Bft) S-SO 157 0 min 0,000 mm 0,0 UV-I 0 W/m 11,2 C 13,3 C 0,0 km/h (0 Bft) 100,00 %
30.08.2017 02:18 13,3 C 23,3 C 87 % 1014,3 hPa 0,0 l/m 0,0 km/h (0 Bft) S-SO 157 0 min 0,000 mm 0,0 UV-I 0 W/m 11,2 C 13,3 C 1,6 km/h (1 Bft) 96,23 %
30.08.2017 02:20 13,3 C 23,3 C 87 % 1014,3 hPa 0,0 l/m 1,3 km/h (1 Bft) S-SO 157 0 min 0,000 mm 0,0 UV-I 0 W/m 11,2 C 13,3 C 3,2 km/h (1 Bft) 100,00 %
30.08.2017 02:22 13,3 C 23,3 C 87 % 1014,2 hPa 0,0 l/m 0,0 km/h (0 Bft) S-SO 157 0 min 0,000 mm 0,0 UV-I 0 W/m 11,2 C 13,3 C 0,0 km/h (0 Bft) 97,14 %
30.08.2017 02:24 13,3 C 23,3 C 87 % 1014,2 hPa 0,0 l/m 0,0 km/h (0 Bft) S-SO 157 0 min 0,000 mm 0,0 UV-I 0 W/m 11,2 C 13,3 C 0,0 km/h (0 Bft) 97,87 %
30.08.2017 02:26 13,3 C 23,3 C 87 % 1014,2 hPa 0,0 l/m 0,0 km/h (0 Bft) S-SO 157 0 min 0,000 mm 0,0 UV-I 0 W/m 11,2 C 13,3 C 0,0 km/h (0 Bft) 100,00 %
30.08.2017 02:28 13,2 C 23,3 C 87 % 1014,2 hPa 0,0 l/m 0,0 km/h (0 Bft) S-SO 157 0 min 0,000 mm 0,0 UV-I 0 W/m 11,1 C 13,2 C 0,0 km/h (0 Bft) 100,00 %
30.08.2017 02:30 13,2 C 23,3 C 87 % 1014,2 hPa 0,0 l/m 0,0 km/h (0 Bft) S-SO 157 0 min 0,000 mm 0,0 UV-I 0 W/m 11,1 C 13,2 C 0,0 km/h (0 Bft) 100,00 %
30.08.2017 02:32 13,2 C 23,3 C 87 % 1014,2 hPa 0,0 l/m 0,0 km/h (0 Bft) S-SO 157 0 min 0,000 mm 0,0 UV-I 0 W/m 11,1 C 13,2 C 0,0 km/h (0 Bft) 96,00 %
30.08.2017 02:34 13,2 C 23,3 C 87 % 1014,2 hPa 0,0 l/m 0,0 km/h (0 Bft) S-SO 157 0 min 0,000 mm 0,0 UV-I 0 W/m 11,1 C 13,2 C 0,0 km/h (0 Bft) 100,00 %
30.08.2017 02:36 13,1 C 23,3 C 87 % 1014,2 hPa 0,0 l/m 0,0 km/h (0 Bft) S-SO 157 0 min 0,000 mm 0,0 UV-I 0 W/m 11,0 C 13,1 C 1,6 km/h (1 Bft) 100,00 %
30.08.2017 02:38 13,1 C 23,3 C 87 % 1014,2 hPa 0,0 l/m 0,0 km/h (0 Bft) S-SO 157 0 min 0,000 mm 0,0 UV-I 0 W/m 11,0 C 13,1 C 0,0 km/h (0 Bft) 97,87 %
30.08.2017 02:40 13,1 C 23,3 C 87 % 1014,2 hPa 0,0 l/m 0,0 km/h (0 Bft) S-SO 157 0 min 0,000 mm 0,0 UV-I 0 W/m 11,0 C 13,1 C 0,0 km/h (0 Bft) 100,00 %
30.08.2017 02:42 13,1 C 23,3 C 87 % 1014,3 hPa 0,0 l/m 1,6 km/h (1 Bft) S-SO 157 0 min 0,000 mm 0,0 UV-I 0 W/m 11,0 C 13,1 C 3,2 km/h (1 Bft) 97,73 %
30.08.2017 02:44 13,1 C 23,3 C 87 % 1014,3 hPa 0,0 l/m 1,0 km/h (0 Bft) S-SO 157 0 min 0,000 mm 0,0 UV-I 0 W/m 11,0 C 13,1 C 1,6 km/h (1 Bft) 100,00 %
30.08.2017 02:46 13,1 C 23,3 C 87 % 1014,3 hPa 0,0 l/m 0,8 km/h (0 Bft) S-SO 157 0 min 0,000 mm 0,0 UV-I 0 W/m 11,0 C 13,1 C 1,6 km/h (1 Bft) 100,00 %
30.08.2017 02:48 13,1 C 23,3 C 87 % 1014,3 hPa 0,0 l/m 0,1 km/h (0 Bft) S-SO 157 0 min 0,000 mm 0,0 UV-I 0 W/m 11,0 C 13,1 C 1,6 km/h (1 Bft) 100,00 %
30.08.2017 02:50 13,0 C 23,3 C 87 % 1014,3 hPa 0,0 l/m 1,7 km/h (1 Bft) S-SO 157 0 min 0,000 mm 0,0 UV-I 0 W/m 10,9 C 13,0 C 4,8 km/h (1 Bft) 100,00 %
30.08.2017 02:52 12,9 C 23,3 C 87 % 1014,3 hPa 0,0 l/m 4,0 km/h (1 Bft) S-SO 159 0 min 0,000 mm 0,0 UV-I 0 W/m 10,8 C 12,9 C 6,4 km/h (2 Bft) 97,37 %
30.08.2017 02:54 12,9 C 23,3 C 88 % 1014,3 hPa 0,0 l/m 5,2 km/h (1 Bft) S 186 0 min 0,000 mm 0,0 UV-I 0 W/m 11,0 C 12,9 C 8,0 km/h (2 Bft) 100,00 %
30.08.2017 02:56 12,9 C 23,3 C 88 % 1014,3 hPa 0,0 l/m 4,1 km/h (1 Bft) S 189 0 min 0,000 mm 0,0 UV-I 0 W/m 11,0 C 12,9 C 6,4 km/h (2 Bft) 96,23 %
30.08.2017 02:58 12,9 C 23,3 C 88 % 1014,4 hPa 0,0 l/m 3,5 km/h (1 Bft) S 189 0 min 0,000 mm 0,0 UV-I 0 W/m 11,0 C 12,9 C 4,8 km/h (1 Bft) 97,37 %
30.08.2017 03:00 12,9 C 23,3 C 88 % 1014,4 hPa 0,0 l/m 3,4 km/h (1 Bft) S 189 0 min 0,000 mm 0,0 UV-I 0 W/m 11,0 C 12,9 C 4,8 km/h (1 Bft) 100,00 %
30.08.2017 03:02 12,9 C 23,3 C 89 % 1014,5 hPa 0,0 l/m 4,1 km/h (1 Bft) S-SW 192 0 min 0,000 mm 0,0 UV-I 0 W/m 11,1 C 12,9 C 4,8 km/h (1 Bft) 98,11 %
30.08.2017 03:04 12,9 C 23,3 C 89 % 1014,4 hPa 0,0 l/m 2,0 km/h (1 Bft) S-SW 192 0 min 0,000 mm 0,0 UV-I 0 W/m 11,1 C 12,9 C 4,8 km/h (1 Bft) 100,00 %
30.08.2017 03:06 12,8 C 23,3 C 88 % 1014,3 hPa 0,0 l/m 0,6 km/h (0 Bft) S-SW 192 0 min 0,000 mm 0,0 UV-I 0 W/m 10,9 C 12,8 C 3,2 km/h (1 Bft) 100,00 %
30.08.2017 03:08 12,8 C 23,3 C 88 % 1014,3 hPa 0,0 l/m 2,4 km/h (1 Bft) S-SW 192 0 min 0,000 mm 0,0 UV-I 0 W/m 10,9 C 12,8 C 3,2 km/h (1 Bft) 95,74 %
30.08.2017 03:10 12,7 C 23,3 C 88 % 1014,2 hPa 0,0 l/m 1,3 km/h (1 Bft) S-SW 192 0 min 0,000 mm 0,0 UV-I 0 W/m 10,8 C 12,7 C 3,2 km/h (1 Bft) 96,00 %
30.08.2017 03:12 12,7 C 23,3 C 88 % 1014,2 hPa 0,0 l/m 0,3 km/h (0 Bft) S-SW 192 0 min 0,000 mm 0,0 UV-I 0 W/m 10,8 C 12,7 C 1,6 km/h (1 Bft) 97,37 %
30.08.2017 03:14 12,8 C 23,3 C 88 % 1014,2 hPa 0,0 l/m 0,0 km/h (0 Bft) S-SW 192 0 min 0,000 mm 0,0 UV-I 0 W/m 10,9 C 12,8 C 0,0 km/h (0 Bft) 96,00 %
30.08.2017 03:16 12,8 C 23,3 C 88 % 1014,2 hPa 0,0 l/m 0,0 km/h (0 Bft) S-SW 192 0 min 0,000 mm 0,0 UV-I 0 W/m 10,9 C 12,8 C 0,0 km/h (0 Bft) 98,00 %
30.08.2017 03:18 12,9 C 23,3 C 88 % 1014,2 hPa 0,0 l/m 0,0 km/h (0 Bft) S-SW 192 0 min 0,000 mm 0,0 UV-I 0 W/m 11,0 C 12,9 C 0,0 km/h (0 Bft) 97,92 %
30.08.2017 03:20 12,8 C 23,3 C 87 % 1014,2 hPa 0,0 l/m 0,1 km/h (0 Bft) S-SW 192 0 min 0,000 mm 0,0 UV-I 0 W/m 10,7 C 12,8 C 1,6 km/h (1 Bft) 95,74 %
30.08.2017 03:22 12,8 C 23,3 C 86 % 1014,2 hPa 0,0 l/m 0,0 km/h (0 Bft) S-SW 192 0 min 0,000 mm 0,0 UV-I 0 W/m 10,5 C 12,8 C 0,0 km/h (0 Bft) 94,74 %
30.08.2017 03:24 12,8 C 23,3 C 86 % 1014,2 hPa 0,0 l/m 0,0 km/h (0 Bft) S-SW 192 0 min 0,000 mm 0,0 UV-I 0 W/m 10,5 C 12,8 C 0,0 km/h (0 Bft) 97,87 %
30.08.2017 03:26 12,8 C 23,3 C 87 % 1014,2 hPa 0,0 l/m 0,0 km/h (0 Bft) S-SW 192 0 min 0,000 mm 0,0 UV-I 0 W/m 10,7 C 12,8 C 0,0 km/h (0 Bft) 94,34 %
30.08.2017 03:28 12,7 C 23,3 C 87 % 1014,1 hPa 0,0 l/m 0,0 km/h (0 Bft) S-SW 192 0 min 0,000 mm 0,0 UV-I 0 W/m 10,6 C 12,7 C 0,0 km/h (0 Bft) 97,73 %
30.08.2017 03:30 12,7 C 23,3 C 87 % 1014,1 hPa 0,0 l/m 0,0 km/h (0 Bft) S-SW 192 0 min 0,000 mm 0,0 UV-I 0 W/m 10,6 C 12,7 C 0,0 km/h (0 Bft) 98,11 %
30.08.2017 03:32 12,6 C 23,3 C 87 % 1014,2 hPa 0,0 l/m 0,0 km/h (0 Bft) S-SW 192 0 min 0,000 mm 0,0 UV-I 0 W/m 10,5 C 12,6 C 0,0 km/h (0 Bft) 91,43 %
30.08.2017 03:34 12,6 C 23,3 C 87 % 1014,2 hPa 0,0 l/m 0,0 km/h (0 Bft) S-SW 192 0 min 0,000 mm 0,0 UV-I 0 W/m 10,5 C 12,6 C 0,0 km/h (0 Bft) 96,43 %
30.08.2017 03:36 12,6 C 23,3 C 87 % 1014,2 hPa 0,0 l/m 0,0 km/h (0 Bft) S-SW 192 0 min 0,000 mm 0,0 UV-I 0 W/m 10,5 C 12,6 C 0,0 km/h (0 Bft) 97,37 %
30.08.2017 03:38 12,6 C 22,8 C 87 % 1014,2 hPa 0,0 l/m 0,0 km/h (0 Bft) S-SW 192 0 min 0,000 mm 0,0 UV-I 0 W/m 10,5 C 12,6 C 0,0 km/h (0 Bft) 96,00 %
30.08.2017 03:40 12,6 C 22,8 C 87 % 1014,2 hPa 0,0 l/m 0,0 km/h (0 Bft) S-SW 192 0 min 0,000 mm 0,0 UV-I 0 W/m 10,5 C 12,6 C 0,0 km/h (0 Bft) 96,00 %
30.08.2017 03:42 12,6 C 23,3 C 88 % 1014,2 hPa 0,0 l/m 0,0 km/h (0 Bft) S-SW 192 0 min 0,000 mm 0,0 UV-I 0 W/m 10,7 C 12,6 C 0,0 km/h (0 Bft) 96,23 %
30.08.2017 03:44 12,5 C 23,3 C 88 % 1014,2 hPa 0,0 l/m 0,1 km/h (0 Bft) S-SW 192 0 min 0,000 mm 0,0 UV-I 0 W/m 10,6 C 12,5 C 1,6 km/h (1 Bft) 94,74 %
30.08.2017 03:46 12,5 C 23,3 C 88 % 1014,2 hPa 0,0 l/m 0,6 km/h (0 Bft) S-SW 192 0 min 0,000 mm 0,0 UV-I 0 W/m 10,6 C 12,5 C 1,6 km/h (1 Bft) 94,00 %
30.08.2017 03:48 12,4 C 22,8 C 88 % 1014,2 hPa 0,0 l/m 0,0 km/h (0 Bft) S-SW 192 0 min 0,000 mm 0,0 UV-I 0 W/m 10,5 C 12,4 C 0,0 km/h (0 Bft) 95,74 %
30.08.2017 03:50 12,4 C 22,8 C 88 % 1014,2 hPa 0,0 l/m 0,0 km/h (0 Bft) S-SW 192 0 min 0,000 mm 0,0 UV-I 0 W/m 10,5 C 12,4 C 0,0 km/h (0 Bft) 93,62 %
30.08.2017 03:52 12,3 C 22,8 C 88 % 1014,2 hPa 0,0 l/m 1,5 km/h (1 Bft) S-SW 192 0 min 0,000 mm 0,0 UV-I 0 W/m 10,4 C 12,3 C 3,2 km/h (1 Bft) 94,87 %
30.08.2017 03:54 12,3 C 22,8 C 88 % 1014,2 hPa 0,0 l/m 1,9 km/h (1 Bft) S-SW 192 0 min 0,000 mm 0,0 UV-I 0 W/m 10,4 C 12,3 C 3,2 km/h (1 Bft) 94,55 %
30.08.2017 03:56 12,3 C 22,8 C 87 % 1014,2 hPa 0,0 l/m 0,8 km/h (0 Bft) S-SW 192 0 min 0,000 mm 0,0 UV-I 0 W/m 10,2 C 12,3 C 1,6 km/h (1 Bft) 95,83 %
30.08.2017 03:58 12,4 C 22,8 C 87 % 1014,2 hPa 0,0 l/m 0,0 km/h (0 Bft) S-SW 192 0 min 0,000 mm 0,0 UV-I 0 W/m 10,3 C 12,4 C 0,0 km/h (0 Bft) 95,74 %
30.08.2017 04:00 12,4 C 22,8 C 87 % 1014,2 hPa 0,0 l/m 0,0 km/h (0 Bft) S-SW 192 0 min 0,000 mm 0,0 UV-I 0 W/m 10,3 C 12,4 C 0,0 km/h (0 Bft) 96,00 %
30.08.2017 04:02 12,4 C 22,8 C 87 % 1014,3 hPa 0,0 l/m 0,0 km/h (0 Bft) S-SW 192 0 min 0,000 mm 0,0 UV-I 0 W/m 10,3 C 12,4 C 0,0 km/h (0 Bft) 94,87 %
30.08.2017 04:04 12,4 C 22,8 C 87 % 1014,2 hPa 0,0 l/m 0,0 km/h (0 Bft) S-SW 192 0 min 0,000 mm 0,0 UV-I 0 W/m 10,3 C 12,4 C 0,0 km/h (0 Bft) 100,00 %
30.08.2017 04:06 12,4 C 22,8 C 87 % 1014,2 hPa 0,0 l/m 0,0 km/h (0 Bft) S-SW 192 0 min 0,000 mm 0,0 UV-I 0 W/m 10,3 C 12,4 C 0,0 km/h (0 Bft) 94,00 %
30.08.2017 04:08 12,4 C 22,8 C 87 % 1014,3 hPa 0,0 l/m 0,0 km/h (0 Bft) S-SW 192 0 min 0,000 mm 0,0 UV-I 0 W/m 10,3 C 12,4 C 0,0 km/h (0 Bft) 95,74 %
30.08.2017 04:10 12,4 C 22,8 C 87 % 1014,3 hPa 0,0 l/m 0,0 km/h (0 Bft) S-SW 192 0 min 0,000 mm 0,0 UV-I 0 W/m 10,3 C 12,4 C 0,0 km/h (0 Bft) 100,00 %
30.08.2017 04:12 12,4 C 22,8 C 87 % 1014,3 hPa 0,0 l/m 0,9 km/h (0 Bft) S-SW 192 0 min 0,000 mm 0,0 UV-I 0 W/m 10,3 C 12,4 C 3,2 km/h (1 Bft) 100,00 %
30.08.2017 04:14 12,3 C 22,8 C 87 % 1014,3 hPa 0,0 l/m 0,3 km/h (0 Bft) S-SW 192 0 min 0,000 mm 0,0 UV-I 0 W/m 10,2 C 12,3 C 1,6 km/h (1 Bft) 96,00 %
30.08.2017 04:16 12,3 C 22,8 C 87 % 1014,2 hPa 0,0 l/m 0,4 km/h (0 Bft) S-SW 192 0 min 0,000 mm 0,0 UV-I 0 W/m 10,2 C 12,3 C 1,6 km/h (1 Bft) 97,87 %
30.08.2017 04:18 12,3 C 22,8 C 87 % 1014,3 hPa 0,0 l/m 0,0 km/h (0 Bft) S-SW 192 0 min 0,000 mm 0,0 UV-I 0 W/m 10,2 C 12,3 C 0,0 km/h (0 Bft) 100,00 %
30.08.2017 04:20 12,2 C 22,8 C 88 % 1014,3 hPa 0,0 l/m 0,0 km/h (0 Bft) S-SW 192 0 min 0,000 mm 0,0 UV-I 0 W/m 10,3 C 12,2 C 0,0 km/h (0 Bft) 100,00 %
30.08.2017 04:22 12,2 C 22,8 C 88 % 1014,3 hPa 0,0 l/m 0,0 km/h (0 Bft) S-SW 192 0 min 0,000 mm 0,0 UV-I 0 W/m 10,3 C 12,2 C 0,0 km/h (0 Bft) 97,87 %
30.08.2017 04:24 12,2 C 22,8 C 88 % 1014,2 hPa 0,0 l/m 0,0 km/h (0 Bft) S-SW 192 0 min 0,000 mm 0,0 UV-I 0 W/m 10,3 C 12,2 C 0,0 km/h (0 Bft) 97,37 %
30.08.2017 04:26 12,2 C 22,8 C 89 % 1014,2 hPa 0,0 l/m 0,0 km/h (0 Bft) S-SW 192 0 min 0,000 mm 0,0 UV-I 0 W/m 10,4 C 12,2 C 0,0 km/h (0 Bft) 95,74 %
30.08.2017 04:28 12,2 C 22,8 C 89 % 1014,2 hPa 0,0 l/m 0,0 km/h (0 Bft) S-SW 192 0 min 0,000 mm 0,0 UV-I 0 W/m 10,4 C 12,2 C 0,0 km/h (0 Bft) 96,00 %
30.08.2017 04:30 12,2 C 22,8 C 89 % 1014,3 hPa 0,0 l/m 0,0 km/h (0 Bft) S-SW 192 0 min 0,000 mm 0,0 UV-I 0 W/m 10,4 C 12,2 C 1,6 km/h (1 Bft) 100,00 %
30.08.2017 04:32 12,1 C 22,8 C 89 % 1014,3 hPa 0,0 l/m 0,0 km/h (0 Bft) S-SW 192 0 min 0,000 mm 0,0 UV-I 0 W/m 10,3 C 12,1 C 0,0 km/h (0 Bft) 97,87 %
30.08.2017 04:34 12,2 C 22,8 C 90 % 1014,3 hPa 0,0 l/m 0,0 km/h (0 Bft) S-SW 192 0 min 0,000 mm 0,0 UV-I 0 W/m 10,6 C 12,2 C 0,0 km/h (0 Bft) 96,00 %
30.08.2017 04:36 12,3 C 22,8 C 90 % 1014,3 hPa 0,0 l/m 0,0 km/h (0 Bft) S-SW 192 0 min 0,000 mm 0,0 UV-I 0 W/m 10,7 C 12,3 C 0,0 km/h (0 Bft) 100,00 %
30.08.2017 04:38 12,3 C 22,8 C 90 % 1014,2 hPa 0,0 l/m 0,0 km/h (0 Bft) S-SW 192 0 min 0,000 mm 0,0 UV-I 0 W/m 10,7 C 12,3 C 0,0 km/h (0 Bft) 100,00 %
30.08.2017 04:40 12,3 C 22,8 C 90 % 1014,3 hPa 0,0 l/m 0,0 km/h (0 Bft) S-SW 192 0 min 0,000 mm 0,0 UV-I 0 W/m 10,7 C 12,3 C 0,0 km/h (0 Bft) 100,00 %
30.08.2017 04:42 12,3 C 22,8 C 90 % 1014,3 hPa 0,0 l/m 0,0 km/h (0 Bft) S-SW 192 0 min 0,000 mm 0,0 UV-I 0 W/m 10,7 C 12,3 C 0,0 km/h (0 Bft) 98,21 %
30.08.2017 04:44 12,2 C 22,8 C 90 % 1014,4 hPa 0,0 l/m 0,0 km/h (0 Bft) S-SW 192 0 min 0,000 mm 0,0 UV-I 0 W/m 10,6 C 12,2 C 0,0 km/h (0 Bft) 97,87 %
30.08.2017 04:46 12,2 C 22,8 C 90 % 1014,3 hPa 0,0 l/m 0,0 km/h (0 Bft) S-SW 192 0 min 0,000 mm 0,0 UV-I 0 W/m 10,6 C 12,2 C 0,0 km/h (0 Bft) 97,37 %
30.08.2017 04:48 12,1 C 22,8 C 90 % 1014,2 hPa 0,0 l/m 0,0 km/h (0 Bft) S-SW 192 0 min 0,000 mm 0,0 UV-I 0 W/m 10,5 C 12,1 C 0,0 km/h (0 Bft) 97,87 %
30.08.2017 04:50 12,1 C 22,8 C 90 % 1014,2 hPa 0,0 l/m 0,0 km/h (0 Bft) S-SW 192 0 min 0,000 mm 0,0 UV-I 0 W/m 10,5 C 12,1 C 0,0 km/h (0 Bft) 100,00 %
30.08.2017 04:52 12,1 C 22,8 C 90 % 1014,1 hPa 0,0 l/m 0,0 km/h (0 Bft) S-SW 192 0 min 0,000 mm 0,0 UV-I 0 W/m 10,5 C 12,1 C 0,0 km/h (0 Bft) 95,74 %
30.08.2017 04:54 12,1 C 22,8 C 90 % 1014,1 hPa 0,0 l/m 0,0 km/h (0 Bft) S-SW 192 0 min 0,000 mm 0,0 UV-I 0 W/m 10,5 C 12,1 C 0,0 km/h (0 Bft) 100,00 %
30.08.2017 04:56 12,1 C 22,8 C 90 % 1014,1 hPa 0,0 l/m 0,0 km/h (0 Bft) S-SW 192 0 min 0,000 mm 0,0 UV-I 0 W/m 10,5 C 12,1 C 0,0 km/h (0 Bft) 100,00 %
30.08.2017 04:58 12,1 C 22,8 C 90 % 1014,1 hPa 0,0 l/m 0,0 km/h (0 Bft) S-SW 192 0 min 0,000 mm 0,0 UV-I 0 W/m 10,5 C 12,1 C 0,0 km/h (0 Bft) 98,00 %
30.08.2017 05:00 12,0 C 22,8 C 90 % 1014,0 hPa 0,0 l/m 0,0 km/h (0 Bft) S-SW 192 0 min 0,000 mm 0,0 UV-I 0 W/m 10,4 C 12,0 C 0,0 km/h (0 Bft) 100,00 %
30.08.2017 05:02 11,9 C 22,8 C 90 % 1013,9 hPa 0,0 l/m 0,0 km/h (0 Bft) S-SW 192 0 min 0,000 mm 0,0 UV-I 0 W/m 10,3 C 11,9 C 0,0 km/h (0 Bft) 100,00 %
30.08.2017 05:04 11,9 C 22,8 C 89 % 1014,0 hPa 0,0 l/m 0,0 km/h (0 Bft) S-SW 192 0 min 0,000 mm 0,0 UV-I 0 W/m 10,1 C 11,9 C 0,0 km/h (0 Bft) 95,74 %
30.08.2017 05:06 11,9 C 22,8 C 89 % 1014,0 hPa 0,0 l/m 0,0 km/h (0 Bft) S-SW 192 0 min 0,000 mm 0,0 UV-I 0 W/m 10,1 C 11,9 C 0,0 km/h (0 Bft) 100,00 %
30.08.2017 05:08 11,9 C 22,8 C 89 % 1014,0 hPa 0,0 l/m 0,0 km/h (0 Bft) S-SW 192 0 min 0,000 mm 0,0 UV-I 0 W/m 10,1 C 11,9 C 0,0 km/h (0 Bft) 100,00 %
30.08.2017 05:10 12,0 C 22,8 C 90 % 1014,1 hPa 0,0 l/m 0,0 km/h (0 Bft) S-SW 192 0 min 0,000 mm 0,0 UV-I 0 W/m 10,4 C 12,0 C 0,0 km/h (0 Bft) 100,00 %
30.08.2017 05:12 12,0 C 22,8 C 90 % 1014,2 hPa 0,0 l/m 0,0 km/h (0 Bft) S-SW 192 0 min 0,000 mm 0,0 UV-I 0 W/m 10,4 C 12,0 C 0,0 km/h (0 Bft) 98,00 %
30.08.2017 05:14 11,9 C 22,8 C 90 % 1014,1 hPa 0,0 l/m 0,0 km/h (0 Bft) S-SW 192 0 min 0,000 mm 0,0 UV-I 0 W/m 10,3 C 11,9 C 0,0 km/h (0 Bft) 100,00 %
30.08.2017 05:16 11,8 C 22,8 C 90 % 1014,1 hPa 0,0 l/m 0,0 km/h (0 Bft) S-SW 192 0 min 0,000 mm 0,0 UV-I 0 W/m 10,2 C 11,8 C 0,0 km/h (0 Bft) 100,00 %
30.08.2017 05:18 11,8 C 22,8 C 90 % 1014,1 hPa 0,0 l/m 0,0 km/h (0 Bft) S-SW 192 0 min 0,000 mm 0,0 UV-I 0 W/m 10,2 C 11,8 C 0,0 km/h (0 Bft) 100,00 %
30.08.2017 05:20 11,8 C 22,8 C 90 % 1014,1 hPa 0,0 l/m 0,0 km/h (0 Bft) S-SW 192 0 min 0,000 mm 0,0 UV-I 0 W/m 10,2 C 11,8 C 0,0 km/h (0 Bft) 100,00 %
30.08.2017 05:22 11,7 C 22,8 C 90 % 1014,1 hPa 0,0 l/m 0,0 km/h (0 Bft) S-SW 192 0 min 0,000 mm 0,0 UV-I 0 W/m 10,1 C 11,7 C 0,0 km/h (0 Bft) 97,87 %
30.08.2017 05:24 11,7 C 22,8 C 90 % 1014,1 hPa 0,0 l/m 0,0 km/h (0 Bft) S-SW 192 0 min 0,000 mm 0,0 UV-I 0 W/m 10,1 C 11,7 C 0,0 km/h (0 Bft) 100,00 %
30.08.2017 05:26 11,6 C 22,8 C 90 % 1014,1 hPa 0,0 l/m 0,0 km/h (0 Bft) S-SW 192 0 min 0,000 mm 0,0 UV-I 0 W/m 10,0 C 11,6 C 0,0 km/h (0 Bft) 100,00 %
30.08.2017 05:28 11,6 C 22,8 C 91 % 1014,2 hPa 0,0 l/m 0,0 km/h (0 Bft) S-SW 192 0 min 0,000 mm 0,0 UV-I 0 W/m 10,2 C 11,6 C 0,0 km/h (0 Bft) 100,00 %
30.08.2017 05:30 11,6 C 22,8 C 91 % 1014,2 hPa 0,0 l/m 0,0 km/h (0 Bft) S-SW 192 0 min 0,000 mm 0,0 UV-I 0 W/m 10,2 C 11,6 C 0,0 km/h (0 Bft) 98,00 %
30.08.2017 05:32 11,6 C 22,8 C 91 % 1014,2 hPa 0,0 l/m 0,0 km/h (0 Bft) S-SW 192 0 min 0,000 mm 0,0 UV-I 0 W/m 10,2 C 11,6 C 0,0 km/h (0 Bft) 100,00 %
30.08.2017 05:34 11,7 C 22,8 C 91 % 1014,2 hPa 0,0 l/m 0,0 km/h (0 Bft) S-SW 192 0 min 0,000 mm 0,0 UV-I 0 W/m 10,3 C 11,7 C 0,0 km/h (0 Bft) 100,00 %
30.08.2017 05:36 11,7 C 22,8 C 91 % 1014,2 hPa 0,0 l/m 0,0 km/h (0 Bft) S-SW 192 0 min 0,000 mm 0,0 UV-I 0 W/m 10,3 C 11,7 C 0,0 km/h (0 Bft) 100,00 %
30.08.2017 05:38 11,7 C 22,8 C 91 % 1014,1 hPa 0,0 l/m 0,0 km/h (0 Bft) S-SW 192 0 min 0,000 mm 0,0 UV-I 0 W/m 10,3 C 11,7 C 0,0 km/h (0 Bft) 98,00 %
30.08.2017 05:40 11,6 C 22,8 C 91 % 1014,1 hPa 0,0 l/m 0,0 km/h (0 Bft) S-SW 192 0 min 0,000 mm 0,0 UV-I 0 W/m 10,2 C 11,6 C 0,0 km/h (0 Bft) 100,00 %
30.08.2017 05:42 11,6 C 22,8 C 91 % 1014,2 hPa 0,0 l/m 0,0 km/h (0 Bft) S-SW 192 0 min 0,000 mm 0,0 UV-I 0 W/m 10,2 C 11,6 C 0,0 km/h (0 Bft) 96,00 %
30.08.2017 05:44 11,6 C 22,8 C 91 % 1014,2 hPa 0,0 l/m 0,0 km/h (0 Bft) S-SW 192 0 min 0,000 mm 0,0 UV-I 0 W/m 10,2 C 11,6 C 0,0 km/h (0 Bft) 98,11 %
30.08.2017 05:46 11,6 C 22,8 C 91 % 1014,2 hPa 0,0 l/m 0,0 km/h (0 Bft) S-SW 192 0 min 0,000 mm 0,0 UV-I 0 W/m 10,2 C 11,6 C 0,0 km/h (0 Bft) 97,87 %
30.08.2017 05:48 11,6 C 22,8 C 91 % 1014,2 hPa 0,0 l/m 0,0 km/h (0 Bft) S-SW 192 0 min 0,000 mm 0,0 UV-I 0 W/m 10,2 C 11,6 C 0,0 km/h (0 Bft) 93,62 %
30.08.2017 05:50 11,6 C 22,8 C 91 % 1014,2 hPa 0,0 l/m 0,0 km/h (0 Bft) S-SW 192 0 min 0,000 mm 0,0 UV-I 0 W/m 10,2 C 11,6 C 0,0 km/h (0 Bft) 98,00 %
30.08.2017 05:52 11,6 C 22,8 C 91 % 1014,2 hPa 0,0 l/m 0,0 km/h (0 Bft) S-SW 192 0 min 0,000 mm 0,0 UV-I 0 W/m 10,2 C 11,6 C 0,0 km/h (0 Bft) 95,74 %
30.08.2017 05:54 11,5 C 22,8 C 91 % 1014,1 hPa 0,0 l/m 0,0 km/h (0 Bft) S-SW 192 0 min 0,000 mm 0,0 UV-I 0 W/m 10,1 C 11,5 C 0,0 km/h (0 Bft) 97,87 %
30.08.2017 05:56 11,5 C 22,8 C 91 % 1014,2 hPa 0,0 l/m 0,0 km/h (0 Bft) S-SW 192 0 min 0,000 mm 0,0 UV-I 0 W/m 10,1 C 11,5 C 0,0 km/h (0 Bft) 97,44 %
30.08.2017 05:58 11,6 C 22,8 C 91 % 1014,2 hPa 0,0 l/m 0,0 km/h (0 Bft) S-SW 192 0 min 0,000 mm 0,0 UV-I 0 W/m 10,2 C 11,6 C 0,0 km/h (0 Bft) 98,00 %
30.08.2017 06:00 11,6 C 22,8 C 91 % 1014,2 hPa 0,0 l/m 0,0 km/h (0 Bft) S-SW 192 0 min 0,000 mm 0,0 UV-I 0 W/m 10,2 C 11,6 C 0,0 km/h (0 Bft) 97,87 %
30.08.2017 06:02 11,6 C 22,8 C 91 % 1014,1 hPa 0,0 l/m 0,0 km/h (0 Bft) S-SW 192 0 min 0,000 mm 0,0 UV-I 0 W/m 10,2 C 11,6 C 0,0 km/h (0 Bft) 98,00 %
30.08.2017 06:04 11,5 C 22,8 C 91 % 1014,1 hPa 0,0 l/m 0,0 km/h (0 Bft) S-SW 192 0 min 0,000 mm 0,0 UV-I 0 W/m 10,1 C 11,5 C 0,0 km/h (0 Bft) 94,74 %
30.08.2017 06:06 11,6 C 22,8 C 91 % 1014,1 hPa 0,0 l/m 0,0 km/h (0 Bft) S-SW 192 0 min 0,000 mm 0,0 UV-I 3 W/m 10,2 C 11,6 C 0,0 km/h (0 Bft) 97,87 %
30.08.2017 06:08 11,6 C 22,8 C 91 % 1014,1 hPa 0,0 l/m 0,0 km/h (0 Bft) S-SW 192 0 min 0,000 mm 0,0 UV-I 5 W/m 10,2 C 11,6 C 0,0 km/h (0 Bft) 93,62 %
30.08.2017 06:10 11,6 C 22,8 C 92 % 1014,1 hPa 0,0 l/m 0,0 km/h (0 Bft) S-SW 192 0 min 0,000 mm 0,0 UV-I 5 W/m 10,3 C 11,6 C 0,0 km/h (0 Bft) 98,00 %
30.08.2017 06:12 11,6 C 22,8 C 91 % 1014,1 hPa 0,0 l/m 0,0 km/h (0 Bft) S-SW 192 0 min 0,000 mm 0,0 UV-I 5 W/m 10,2 C 11,6 C 0,0 km/h (0 Bft) 97,73 %
30.08.2017 06:14 11,6 C 22,8 C 91 % 1014,1 hPa 0,0 l/m 0,0 km/h (0 Bft) S-SW 192 0 min 0,000 mm 0,0 UV-I 7 W/m 10,2 C 11,6 C 0,0 km/h (0 Bft) 93,62 %
30.08.2017 06:16 11,5 C 22,8 C 91 % 1014,1 hPa 0,0 l/m 0,0 km/h (0 Bft) S-SW 192 0 min 0,000 mm 0,0 UV-I 7 W/m 10,1 C 11,5 C 0,0 km/h (0 Bft) 93,62 %
30.08.2017 06:18 11,5 C 22,8 C 91 % 1014,1 hPa 0,0 l/m 0,0 km/h (0 Bft) S-SW 192 0 min 0,000 mm 0,0 UV-I 7 W/m 10,1 C 11,5 C 0,0 km/h (0 Bft) 98,11 %
30.08.2017 06:20 11,4 C 22,8 C 91 % 1014,1 hPa 0,0 l/m 0,0 km/h (0 Bft) S-SW 192 0 min 0,000 mm 0,0 UV-I 9 W/m 10,0 C 11,4 C 0,0 km/h (0 Bft) 95,74 %
30.08.2017 06:22 11,4 C 22,8 C 91 % 1014,1 hPa 0,0 l/m 0,0 km/h (0 Bft) S-SW 192 0 min 0,000 mm 0,0 UV-I 10 W/m 10,0 C 11,4 C 0,0 km/h (0 Bft) 97,44 %
30.08.2017 06:24 11,4 C 22,8 C 91 % 1014,1 hPa 0,0 l/m 0,0 km/h (0 Bft) S-SW 192 0 min 0,000 mm 0,0 UV-I 11 W/m 10,0 C 11,4 C 0,0 km/h (0 Bft) 98,11 %
30.08.2017 06:26 11,3 C 22,8 C 91 % 1014,2 hPa 0,0 l/m 0,0 km/h (0 Bft) S-SW 192 0 min 0,000 mm 0,0 UV-I 12 W/m 9,9 C 11,3 C 0,0 km/h (0 Bft) 97,87 %
30.08.2017 06:28 11,4 C 22,8 C 91 % 1014,1 hPa 0,0 l/m 0,0 km/h (0 Bft) S-SW 192 0 min 0,000 mm 0,0 UV-I 12 W/m 10,0 C 11,4 C 0,0 km/h (0 Bft) 96,00 %
30.08.2017 06:30 11,4 C 22,8 C 91 % 1014,1 hPa 0,0 l/m 0,0 km/h (0 Bft) S-SW 192 2 min 0,000 mm 0,0 UV-I 15 W/m 10,0 C 11,4 C 0,0 km/h (0 Bft) 97,22 %
30.08.2017 06:32 11,4 C 22,8 C 91 % 1014,1 hPa 0,0 l/m 0,0 km/h (0 Bft) S-SW 192 2 min 0,000 mm 0,0 UV-I 19 W/m 10,0 C 11,4 C 0,0 km/h (0 Bft) 98,00 %
30.08.2017 06:34 11,4 C 22,8 C 91 % 1014,1 hPa 0,0 l/m 0,0 km/h (0 Bft) S-SW 192 2 min 0,000 mm 0,0 UV-I 24 W/m 10,0 C 11,4 C 0,0 km/h (0 Bft) 96,15 %
30.08.2017 06:36 11,4 C 22,8 C 91 % 1014,1 hPa 0,0 l/m 0,0 km/h (0 Bft) S-SW 192 2 min 0,000 mm 0,0 UV-I 28 W/m 10,0 C 11,4 C 0,0 km/h (0 Bft) 97,06 %
30.08.2017 06:38 11,4 C 22,8 C 91 % 1014,1 hPa 0,0 l/m 0,0 km/h (0 Bft) S-SW 192 2 min 0,000 mm 0,0 UV-I 33 W/m 10,0 C 11,4 C 0,0 km/h (0 Bft) 98,00 %
30.08.2017 06:40 11,4 C 22,8 C 92 % 1014,1 hPa 0,0 l/m 0,0 km/h (0 Bft) S-SW 192 2 min 0,000 mm 0,0 UV-I 38 W/m 10,1 C 11,4 C 0,0 km/h (0 Bft) 97,56 %
30.08.2017 06:42 11,4 C 22,8 C 91 % 1014,1 hPa 0,0 l/m 0,0 km/h (0 Bft) S-SW 192 2 min 0,000 mm 0,0 UV-I 41 W/m 10,0 C 11,4 C 0,0 km/h (0 Bft) 95,83 %
30.08.2017 06:44 11,4 C 22,8 C 91 % 1014,1 hPa 0,0 l/m 0,0 km/h (0 Bft) S-SW 192 2 min 0,000 mm 0,0 UV-I 44 W/m 10,0 C 11,4 C 0,0 km/h (0 Bft) 96,23 %
30.08.2017 06:46 11,4 C 22,8 C 91 % 1014,1 hPa 0,0 l/m 0,0 km/h (0 Bft) S-SW 192 2 min 0,000 mm 0,0 UV-I 48 W/m 10,0 C 11,4 C 0,0 km/h (0 Bft) 97,87 %
30.08.2017 06:48 11,3 C 22,8 C 91 % 1014,2 hPa 0,0 l/m 0,0 km/h (0 Bft) S-SW 192 2 min 0,000 mm 0,0 UV-I 48 W/m 9,9 C 11,3 C 0,0 km/h (0 Bft) 95,74 %
30.08.2017 06:50 11,3 C 22,8 C 91 % 1014,2 hPa 0,0 l/m 0,0 km/h (0 Bft) S-SW 192 2 min 0,000 mm 0,0 UV-I 50 W/m 9,9 C 11,3 C 0,0 km/h (0 Bft) 97,37 %
30.08.2017 06:52 11,3 C 22,8 C 91 % 1014,2 hPa 0,0 l/m 0,0 km/h (0 Bft) S-SW 192 2 min 0,000 mm 0,0 UV-I 53 W/m 9,9 C 11,3 C 0,0 km/h (0 Bft) 98,00 %
30.08.2017 06:54 11,4 C 22,8 C 91 % 1014,2 hPa 0,0 l/m 0,0 km/h (0 Bft) S-SW 192 2 min 0,000 mm 0,0 UV-I 62 W/m 10,0 C 11,4 C 0,0 km/h (0 Bft) 97,87 %
30.08.2017 06:56 11,4 C 22,8 C 91 % 1014,1 hPa 0,0 l/m 0,0 km/h (0 Bft) S-SW 192 2 min 0,000 mm 0,0 UV-I 68 W/m 10,0 C 11,4 C 0,0 km/h (0 Bft) 98,00 %
30.08.2017 06:58 11,6 C 22,8 C 92 % 1014,1 hPa 0,0 l/m 0,0 km/h (0 Bft) S-SW 192 2 min 0,000 mm 0,0 UV-I 71 W/m 10,3 C 11,6 C 0,0 km/h (0 Bft) 95,74 %
30.08.2017 07:00 11,6 C 22,8 C 92 % 1014,1 hPa 0,0 l/m 0,0 km/h (0 Bft) S-SW 192 2 min 0,025 mm 0,0 UV-I 75 W/m 10,3 C 11,6 C 0,0 km/h (0 Bft) 97,87 %
30.08.2017 07:02 11,7 C 22,8 C 91 % 1014,1 hPa 0,0 l/m 0,0 km/h (0 Bft) S-SW 192 2 min 0,000 mm 0,0 UV-I 79 W/m 10,3 C 11,7 C 0,0 km/h (0 Bft) 97,87 %
30.08.2017 07:04 11,8 C 22,8 C 91 % 1014,1 hPa 0,0 l/m 0,0 km/h (0 Bft) S-SW 192 2 min 0,000 mm 0,0 UV-I 83 W/m 10,4 C 11,8 C 0,0 km/h (0 Bft) 98,00 %
30.08.2017 07:06 12,0 C 22,8 C 91 % 1014,1 hPa 0,0 l/m 0,0 km/h (0 Bft) S-SW 192 2 min 0,000 mm 0,0 UV-I 87 W/m 10,6 C 12,0 C 0,0 km/h (0 Bft) 100,00 %
30.08.2017 07:09 12,2 C 22,8 C 90 % 1014,1 hPa 0,0 l/m 0,0 km/h (0 Bft) S-SW 192 3 min 0,000 mm 0,0 UV-I 87 W/m 10,6 C 12,2 C 0,0 km/h (0 Bft) 100,00 %
30.08.2017 07:10 12,2 C 22,8 C 90 % 1014,1 hPa 0,0 l/m 0,0 km/h (0 Bft) S-SW 192 1 min 0,000 mm 0,0 UV-I 98 W/m 10,6 C 12,2 C 0,0 km/h (0 Bft) 100,00 %
30.08.2017 07:12 12,3 C 22,8 C 90 % 1014,1 hPa 0,0 l/m 0,0 km/h (0 Bft) S-SW 192 2 min 0,000 mm 0,0 UV-I 99 W/m 10,7 C 12,3 C 0,0 km/h (0 Bft) 100,00 %
30.08.2017 07:14 12,3 C 22,8 C 90 % 1014,1 hPa 0,0 l/m 0,0 km/h (0 Bft) S-SW 192 2 min 0,000 mm 0,0 UV-I 103 W/m 10,7 C 12,3 C 0,0 km/h (0 Bft) 100,00 %
30.08.2017 07:16 12,3 C 22,8 C 90 % 1014,1 hPa 0,0 l/m 0,0 km/h (0 Bft) S-SW 192 2 min 0,000 mm 0,0 UV-I 106 W/m 10,7 C 12,3 C 0,0 km/h (0 Bft) 100,00 %
30.08.2017 07:18 12,4 C 22,8 C 90 % 1014,0 hPa 0,0 l/m 0,0 km/h (0 Bft) S-SW 192 2 min 0,000 mm 0,0 UV-I 111 W/m 10,8 C 12,4 C 0,0 km/h (0 Bft) 100,00 %
30.08.2017 07:20 12,4 C 22,8 C 90 % 1014,0 hPa 0,0 l/m 0,4 km/h (0 Bft) O-NO 78 2 min 0,000 mm 0,0 UV-I 105 W/m 10,8 C 12,4 C 4,8 km/h (1 Bft) 100,00 %
30.08.2017 07:22 12,4 C 22,8 C 89 % 1014,0 hPa 0,0 l/m 3,6 km/h (1 Bft) O-NO 78 2 min 0,000 mm 0,0 UV-I 119 W/m 10,6 C 12,4 C 4,8 km/h (1 Bft) 100,00 %
30.08.2017 07:24 12,6 C 22,8 C 89 % 1014,1 hPa 0,0 l/m 2,1 km/h (1 Bft) O-NO 78 2 min 0,000 mm 0,0 UV-I 125 W/m 10,8 C 12,6 C 4,8 km/h (1 Bft) 100,00 %
30.08.2017 07:26 12,6 C 22,8 C 89 % 1014,1 hPa 0,0 l/m 0,1 km/h (0 Bft) O-NO 78 2 min 0,000 mm 0,0 UV-I 129 W/m 10,8 C 12,6 C 1,6 km/h (1 Bft) 100,00 %
30.08.2017 07:29 12,8 C 22,8 C 89 % 1014,1 hPa 0,0 l/m 0,2 km/h (0 Bft) O-NO 78 3 min 0,000 mm 0,0 UV-I 135 W/m 11,0 C 12,8 C 1,6 km/h (1 Bft) 100,00 %
30.08.2017 07:30 12,8 C 22,8 C 89 % 1014,1 hPa 0,0 l/m 2,5 km/h (1 Bft) O-NO 78 1 min 0,000 mm 0,0 UV-I 139 W/m 11,0 C 12,8 C 4,8 km/h (1 Bft) 100,00 %
30.08.2017 07:32 12,9 C 22,8 C 89 % 1014,0 hPa 0,0 l/m 2,9 km/h (1 Bft) O-NO 78 2 min 0,000 mm 0,0 UV-I 143 W/m 11,1 C 12,9 C 4,8 km/h (1 Bft) 97,73 %
30.08.2017 07:34 13,0 C 22,8 C 89 % 1014,0 hPa 0,0 l/m 3,7 km/h (1 Bft) O-NO 77 2 min 0,000 mm 0,0 UV-I 148 W/m 11,2 C 13,0 C 4,8 km/h (1 Bft) 100,00 %
30.08.2017 07:36 13,1 C 22,8 C 88 % 1014,0 hPa 0,0 l/m 4,2 km/h (1 Bft) O-NO 77 2 min 0,000 mm 0,0 UV-I 153 W/m 11,2 C 13,1 C 6,4 km/h (2 Bft) 100,00 %
30.08.2017 07:38 13,2 C 22,8 C 88 % 1014,0 hPa 0,0 l/m 4,9 km/h (1 Bft) O-NO 59 2 min 0,000 mm 0,0 UV-I 159 W/m 11,3 C 13,2 C 6,4 km/h (2 Bft) 100,00 %
30.08.2017 07:40 13,3 C 22,8 C 88 % 1014,1 hPa 0,0 l/m 4,9 km/h (1 Bft) O-NO 58 2 min 0,000 mm 0,0 UV-I 163 W/m 11,4 C 13,3 C 6,4 km/h (2 Bft) 97,87 %
30.08.2017 07:42 13,3 C 22,8 C 88 % 1014,1 hPa 0,0 l/m 4,6 km/h (1 Bft) O-NO 58 2 min 0,000 mm 0,0 UV-I 170 W/m 11,4 C 13,3 C 6,4 km/h (2 Bft) 100,00 %
30.08.2017 07:44 13,4 C 22,8 C 89 % 1014,1 hPa 0,0 l/m 4,1 km/h (1 Bft) O-NO 58 2 min 0,000 mm 0,0 UV-I 177 W/m 11,6 C 13,4 C 6,4 km/h (2 Bft) 100,00 %
30.08.2017 07:46 13,6 C 22,8 C 89 % 1014,2 hPa 0,0 l/m 4,8 km/h (1 Bft) O-NO 68 2 min 0,000 mm 0,0 UV-I 183 W/m 11,8 C 13,6 C 8,0 km/h (2 Bft) 100,00 %
30.08.2017 07:48 13,7 C 22,8 C 89 % 1014,1 hPa 0,0 l/m 5,6 km/h (1 Bft) O-NO 57 2 min 0,000 mm 0,0 UV-I 188 W/m 11,9 C 13,7 C 8,0 km/h (2 Bft) 95,74 %
30.08.2017 07:50 13,7 C 22,8 C 89 % 1014,2 hPa 0,0 l/m 4,4 km/h (1 Bft) O-NO 59 2 min 0,000 mm 0,0 UV-I 193 W/m 11,9 C 13,7 C 6,4 km/h (2 Bft) 100,00 %
30.08.2017 07:52 13,8 C 22,8 C 90 % 1014,2 hPa 0,0 l/m 6,1 km/h (2 Bft) O-NO 57 2 min 0,000 mm 0,0 UV-I 199 W/m 12,2 C 13,8 C 8,0 km/h (2 Bft) 97,62 %
30.08.2017 07:54 13,9 C 22,8 C 90 % 1014,2 hPa 0,0 l/m 4,2 km/h (1 Bft) NO 54 2 min 0,000 mm 0,0 UV-I 206 W/m 12,3 C 13,9 C 6,4 km/h (2 Bft) 97,87 %
30.08.2017 07:56 14,0 C 22,8 C 90 % 1014,2 hPa 0,0 l/m 5,9 km/h (2 Bft) O-NO 68 2 min 0,000 mm 0,0 UV-I 210 W/m 12,4 C 14,0 C 8,0 km/h (2 Bft) 98,00 %
30.08.2017 07:58 14,1 C 22,8 C 90 % 1014,2 hPa 0,0 l/m 6,4 km/h (2 Bft) NO 52 2 min 0,000 mm 0,0 UV-I 216 W/m 12,5 C 14,1 C 8,0 km/h (2 Bft) 97,56 %
30.08.2017 08:00 14,2 C 22,8 C 90 % 1014,2 hPa 0,0 l/m 6,8 km/h (2 Bft) O-NO 61 2 min 0,077 mm 0,0 UV-I 221 W/m 12,6 C 14,0 C 9,7 km/h (2 Bft) 97,73 %
30.08.2017 08:02 14,2 C 22,8 C 90 % 1014,2 hPa 0,0 l/m 7,8 km/h (2 Bft) NO 55 2 min 0,000 mm 0,0 UV-I 228 W/m 12,6 C 13,4 C 9,7 km/h (2 Bft) 98,00 %
30.08.2017 08:04 14,3 C 22,8 C 90 % 1014,2 hPa 0,0 l/m 6,2 km/h (2 Bft) O-NO 63 2 min 0,000 mm 0,3 UV-I 234 W/m 12,7 C 14,3 C 8,0 km/h (2 Bft) 93,18 %
30.08.2017 08:06 14,4 C 22,8 C 91 % 1014,2 hPa 0,0 l/m 5,5 km/h (1 Bft) O-NO 61 2 min 0,000 mm 0,5 UV-I 240 W/m 12,9 C 14,4 C 9,7 km/h (2 Bft) 94,34 %
30.08.2017 08:08 14,4 C 22,8 C 90 % 1014,2 hPa 0,0 l/m 7,7 km/h (2 Bft) NO 51 2 min 0,000 mm 0,5 UV-I 246 W/m 12,8 C 13,6 C 9,7 km/h (2 Bft) 97,73 %
30.08.2017 08:10 14,5 C 22,8 C 90 % 1014,1 hPa 0,0 l/m 7,4 km/h (2 Bft) O-NO 58 2 min 0,000 mm 0,5 UV-I 254 W/m 12,9 C 13,9 C 9,7 km/h (2 Bft) 95,45 %
30.08.2017 08:12 14,6 C 22,8 C 90 % 1014,0 hPa 0,0 l/m 8,0 km/h (2 Bft) NO 53 2 min 0,000 mm 0,5 UV-I 259 W/m 13,0 C 13,7 C 12,9 km/h (3 Bft) 97,96 %
30.08.2017 08:14 14,6 C 22,8 C 90 % 1014,0 hPa 0,0 l/m 7,3 km/h (2 Bft) O-NO 60 2 min 0,000 mm 0,5 UV-I 268 W/m 13,0 C 14,1 C 9,7 km/h (2 Bft) 98,00 %
30.08.2017 08:16 14,7 C 22,8 C 90 % 1014,0 hPa 0,0 l/m 6,5 km/h (2 Bft) NO 40 2 min 0,000 mm 0,6 UV-I 273 W/m 13,1 C 14,7 C 9,7 km/h (2 Bft) 97,14 %
30.08.2017 08:18 14,8 C 22,8 C 91 % 1014,2 hPa 0,0 l/m 7,1 km/h (2 Bft) NO 49 2 min 0,000 mm 0,6 UV-I 279 W/m 13,3 C 14,4 C 9,7 km/h (2 Bft) 96,00 %
30.08.2017 08:20 14,9 C 22,8 C 91 % 1014,2 hPa 0,0 l/m 5,6 km/h (1 Bft) NO 46 2 min 0,000 mm 0,6 UV-I 284 W/m 13,4 C 14,9 C 8,0 km/h (2 Bft) 96,00 %
30.08.2017 08:22 15,0 C 22,8 C 90 % 1014,2 hPa 0,0 l/m 5,0 km/h (1 Bft) NO 50 2 min 0,000 mm 0,6 UV-I 290 W/m 13,4 C 15,0 C 8,0 km/h (2 Bft) 98,11 %
30.08.2017 08:24 15,2 C 22,8 C 90 % 1014,2 hPa 0,0 l/m 4,1 km/h (1 Bft) O-NO 71 2 min 0,000 mm 0,7 UV-I 296 W/m 13,6 C 15,2 C 6,4 km/h (2 Bft) 95,83 %
30.08.2017 08:26 15,2 C 22,8 C 89 % 1014,2 hPa 0,0 l/m 5,6 km/h (1 Bft) O-NO 71 2 min 0,000 mm 0,7 UV-I 301 W/m 13,4 C 15,2 C 8,0 km/h (2 Bft) 96,88 %
30.08.2017 08:28 15,3 C 22,8 C 89 % 1014,2 hPa 0,0 l/m 6,3 km/h (2 Bft) NO 46 2 min 0,000 mm 0,7 UV-I 307 W/m 13,5 C 15,3 C 9,7 km/h (2 Bft) 98,00 %
30.08.2017 08:30 15,4 C 22,8 C 89 % 1014,2 hPa 0,0 l/m 5,7 km/h (1 Bft) NO 55 2 min 0,000 mm 0,7 UV-I 313 W/m 13,6 C 15,4 C 8,0 km/h (2 Bft) 100,00 %
30.08.2017 08:32 15,5 C 22,8 C 89 % 1014,2 hPa 0,0 l/m 3,8 km/h (1 Bft) NO 55 2 min 0,000 mm 0,8 UV-I 320 W/m 13,7 C 15,5 C 4,8 km/h (1 Bft) 100,00 %
30.08.2017 08:34 15,7 C 22,8 C 89 % 1014,2 hPa 0,0 l/m 3,9 km/h (1 Bft) N-NO 24 2 min 0,000 mm 0,8 UV-I 325 W/m 13,9 C 15,7 C 6,4 km/h (2 Bft) 98,00 %
30.08.2017 08:36 15,8 C 22,8 C 89 % 1014,2 hPa 0,0 l/m 3,8 km/h (1 Bft) NO 42 2 min 0,000 mm 0,8 UV-I 330 W/m 14,0 C 15,8 C 6,4 km/h (2 Bft) 100,00 %
30.08.2017 08:38 15,8 C 22,8 C 88 % 1014,2 hPa 0,0 l/m 3,5 km/h (1 Bft) NO 52 2 min 0,000 mm 0,9 UV-I 336 W/m 13,8 C 15,8 C 4,8 km/h (1 Bft) 100,00 %
30.08.2017 08:40 15,9 C 22,8 C 88 % 1014,1 hPa 0,0 l/m 3,4 km/h (1 Bft) NO 51 2 min 0,000 mm 0,9 UV-I 341 W/m 13,9 C 15,9 C 4,8 km/h (1 Bft) 100,00 %
30.08.2017 08:42 16,1 C 22,8 C 88 % 1014,1 hPa 0,0 l/m 5,4 km/h (1 Bft) O-NO 67 2 min 0,000 mm 0,9 UV-I 348 W/m 14,1 C 16,1 C 9,7 km/h (2 Bft) 100,00 %
30.08.2017 08:44 16,1 C 22,8 C 87 % 1014,1 hPa 0,0 l/m 4,4 km/h (1 Bft) O-NO 65 2 min 0,000 mm 1,0 UV-I 354 W/m 13,9 C 16,1 C 6,4 km/h (2 Bft) 98,00 %
30.08.2017 08:46 16,1 C 22,8 C 86 % 1014,1 hPa 0,0 l/m 6,9 km/h (2 Bft) NO 46 2 min 0,000 mm 1,0 UV-I 360 W/m 13,8 C 15,8 C 12,9 km/h (3 Bft) 97,73 %
30.08.2017 08:48 16,1 C 22,8 C 87 % 1014,1 hPa 0,0 l/m 6,8 km/h (2 Bft) O-NO 78 2 min 0,000 mm 1,0 UV-I 367 W/m 13,9 C 15,9 C 8,0 km/h (2 Bft) 100,00 %
30.08.2017 08:50 16,1 C 22,8 C 86 % 1014,1 hPa 0,0 l/m 7,1 km/h (2 Bft) O-NO 67 2 min 0,000 mm 1,0 UV-I 372 W/m 13,8 C 15,7 C 11,3 km/h (2 Bft) 100,00 %
30.08.2017 08:52 16,1 C 22,8 C 86 % 1014,1 hPa 0,0 l/m 7,6 km/h (2 Bft) O-NO 71 2 min 0,000 mm 1,1 UV-I 376 W/m 13,8 C 15,5 C 9,7 km/h (2 Bft) 98,15 %
30.08.2017 08:54 16,2 C 22,8 C 86 % 1014,1 hPa 0,0 l/m 7,0 km/h (2 Bft) O-NO 75 2 min 0,000 mm 1,1 UV-I 384 W/m 13,9 C 15,9 C 11,3 km/h (2 Bft) 100,00 %
30.08.2017 08:56 16,2 C 22,8 C 85 % 1014,1 hPa 0,0 l/m 7,4 km/h (2 Bft) O-NO 62 2 min 0,000 mm 1,1 UV-I 389 W/m 13,7 C 15,7 C 12,9 km/h (3 Bft) 100,00 %
30.08.2017 08:58 16,3 C 22,8 C 85 % 1014,1 hPa 0,0 l/m 7,2 km/h (2 Bft) NO 50 2 min 0,000 mm 1,2 UV-I 394 W/m 13,8 C 15,9 C 11,3 km/h (2 Bft) 97,37 %
30.08.2017 09:00 16,4 C 22,8 C 86 % 1014,0 hPa 0,0 l/m 7,2 km/h (2 Bft) O-NO 69 2 min 0,177 mm 1,2 UV-I 401 W/m 14,1 C 16,0 C 9,7 km/h (2 Bft) 100,00 %
30.08.2017 09:02 16,4 C 22,8 C 85 % 1014,0 hPa 0,0 l/m 6,8 km/h (2 Bft) O-NO 60 2 min 0,000 mm 1,2 UV-I 407 W/m 13,9 C 16,2 C 9,7 km/h (2 Bft) 100,00 %
30.08.2017 09:04 16,6 C 22,8 C 84 % 1014,0 hPa 0,0 l/m 7,7 km/h (2 Bft) O-NO 65 2 min 0,000 mm 1,3 UV-I 412 W/m 13,9 C 15,9 C 11,3 km/h (2 Bft) 100,00 %
30.08.2017 09:06 16,6 C 22,8 C 83 % 1014,0 hPa 0,0 l/m 5,5 km/h (1 Bft) O-NO 72 2 min 0,000 mm 1,3 UV-I 417 W/m 13,7 C 16,6 C 8,0 km/h (2 Bft) 100,00 %
30.08.2017 09:08 16,7 C 22,8 C 84 % 1014,1 hPa 0,0 l/m 6,1 km/h (2 Bft) NO 52 2 min 0,000 mm 1,3 UV-I 423 W/m 14,0 C 16,7 C 9,7 km/h (2 Bft) 100,00 %
30.08.2017 09:10 16,9 C 22,8 C 84 % 1014,0 hPa 0,0 l/m 7,7 km/h (2 Bft) O-NO 60 2 min 0,000 mm 1,3 UV-I 427 W/m 14,2 C 16,2 C 11,3 km/h (2 Bft) 100,00 %
30.08.2017 09:12 16,9 C 22,8 C 82 % 1014,0 hPa 0,0 l/m 7,5 km/h (2 Bft) O-NO 57 2 min 0,000 mm 1,4 UV-I 433 W/m 13,8 C 16,3 C 11,3 km/h (2 Bft) 100,00 %
30.08.2017 09:14 16,9 C 22,8 C 82 % 1014,1 hPa 0,0 l/m 5,9 km/h (2 Bft) NO 55 2 min 0,000 mm 1,4 UV-I 437 W/m 13,8 C 16,9 C 9,7 km/h (2 Bft) 100,00 %
30.08.2017 09:16 17,0 C 22,8 C 82 % 1014,1 hPa 0,0 l/m 6,5 km/h (2 Bft) NO 53 2 min 0,000 mm 1,4 UV-I 437 W/m 13,9 C 17,0 C 9,7 km/h (2 Bft) 100,00 %
30.08.2017 09:18 17,0 C 22,8 C 82 % 1014,1 hPa 0,0 l/m 6,1 km/h (2 Bft) O-NO 69 2 min 0,000 mm 1,5 UV-I 445 W/m 13,9 C 17,0 C 8,0 km/h (2 Bft) 97,73 %
30.08.2017 09:20 17,2 C 22,8 C 81 % 1014,1 hPa 0,0 l/m 6,9 km/h (2 Bft) O-NO 63 2 min 0,000 mm 1,5 UV-I 453 W/m 13,9 C 17,0 C 9,7 km/h (2 Bft) 100,00 %
30.08.2017 09:22 17,2 C 22,8 C 80 % 1014,0 hPa 0,0 l/m 6,0 km/h (2 Bft) O-NO 63 2 min 0,000 mm 1,6 UV-I 459 W/m 13,7 C 17,2 C 8,0 km/h (2 Bft) 98,00 %
30.08.2017 09:24 17,1 C 22,8 C 81 % 1014,1 hPa 0,0 l/m 6,0 km/h (2 Bft) O-NO 64 2 min 0,000 mm 1,6 UV-I 464 W/m 13,8 C 17,1 C 8,0 km/h (2 Bft) 100,00 %
30.08.2017 09:26 17,1 C 22,8 C 81 % 1014,1 hPa 0,0 l/m 6,3 km/h (2 Bft) O-NO 72 2 min 0,000 mm 1,6 UV-I 470 W/m 13,8 C 17,1 C 8,0 km/h (2 Bft) 100,00 %
30.08.2017 09:28 17,2 C 22,8 C 81 % 1014,0 hPa 0,0 l/m 5,5 km/h (1 Bft) O-NO 64 2 min 0,000 mm 1,7 UV-I 475 W/m 13,9 C 17,2 C 8,0 km/h (2 Bft) 97,87 %
30.08.2017 09:30 17,3 C 22,8 C 80 % 1014,1 hPa 0,0 l/m 6,1 km/h (2 Bft) O 81 2 min 0,000 mm 1,7 UV-I 479 W/m 13,8 C 17,3 C 8,0 km/h (2 Bft) 100,00 %
30.08.2017 09:32 17,4 C 22,8 C 80 % 1014,1 hPa 0,0 l/m 6,1 km/h (2 Bft) NO 49 2 min 0,000 mm 1,8 UV-I 485 W/m 13,9 C 17,4 C 11,3 km/h (2 Bft) 100,00 %
30.08.2017 09:34 17,6 C 22,8 C 81 % 1014,1 hPa 0,0 l/m 7,6 km/h (2 Bft) O-NO 71 2 min 0,000 mm 1,8 UV-I 491 W/m 14,3 C 17,0 C 12,9 km/h (3 Bft) 97,73 %
30.08.2017 09:36 17,6 C 22,8 C 80 % 1014,1 hPa 0,0 l/m 6,6 km/h (2 Bft) O-NO 57 2 min 0,000 mm 1,8 UV-I 496 W/m 14,1 C 17,5 C 9,7 km/h (2 Bft) 98,11 %
30.08.2017 09:38 17,7 C 22,8 C 80 % 1014,0 hPa 0,0 l/m 8,4 km/h (2 Bft) O-NO 69 2 min 0,000 mm 1,9 UV-I 502 W/m 14,2 C 16,8 C 12,9 km/h (3 Bft) 97,87 %
30.08.2017 09:40 17,7 C 22,8 C 79 % 1014,0 hPa 0,0 l/m 8,7 km/h (2 Bft) O-NO 74 2 min 0,000 mm 1,9 UV-I 506 W/m 14,0 C 16,6 C 12,9 km/h (3 Bft) 97,37 %
30.08.2017 09:42 17,7 C 22,8 C 79 % 1014,0 hPa 0,0 l/m 8,1 km/h (2 Bft) O-NO 78 2 min 0,000 mm 2,0 UV-I 513 W/m 14,0 C 16,9 C 11,3 km/h (2 Bft) 98,00 %
30.08.2017 09:44 17,7 C 22,8 C 79 % 1014,0 hPa 0,0 l/m 6,4 km/h (2 Bft) O-NO 57 2 min 0,000 mm 2,0 UV-I 517 W/m 14,0 C 17,7 C 11,3 km/h (2 Bft) 93,62 %
30.08.2017 09:46 17,8 C 22,8 C 79 % 1014,0 hPa 0,0 l/m 7,6 km/h (2 Bft) O-NO 62 2 min 0,000 mm 2,0 UV-I 520 W/m 14,1 C 17,2 C 11,3 km/h (2 Bft) 94,00 %
30.08.2017 09:48 17,8 C 22,8 C 79 % 1014,1 hPa 0,0 l/m 5,3 km/h (1 Bft) O-NO 65 2 min 0,000 mm 2,1 UV-I 525 W/m 14,1 C 17,8 C 8,0 km/h (2 Bft) 95,24 %
30.08.2017 09:50 17,9 C 22,8 C 79 % 1014,1 hPa 0,0 l/m 6,2 km/h (2 Bft) NO 51 2 min 0,000 mm 2,1 UV-I 530 W/m 14,2 C 17,9 C 8,0 km/h (2 Bft) 94,34 %
30.08.2017 09:52 18,1 C 22,8 C 80 % 1014,1 hPa 0,0 l/m 5,8 km/h (2 Bft) NO 48 2 min 0,000 mm 2,2 UV-I 535 W/m 14,6 C 18,1 C 9,7 km/h (2 Bft) 95,74 %
30.08.2017 09:54 18,2 C 22,8 C 79 % 1014,1 hPa 0,0 l/m 7,0 km/h (2 Bft) NO 40 2 min 0,000 mm 2,2 UV-I 541 W/m 14,5 C 17,9 C 9,7 km/h (2 Bft) 95,12 %
30.08.2017 09:56 18,3 C 22,8 C 78 % 1014,1 hPa 0,0 l/m 4,8 km/h (1 Bft) NO 34 2 min 0,000 mm 2,3 UV-I 544 W/m 14,4 C 18,3 C 6,4 km/h (2 Bft) 93,62 %
30.08.2017 09:58 18,3 C 22,8 C 78 % 1014,1 hPa 0,0 l/m 4,4 km/h (1 Bft) NO 44 2 min 0,000 mm 2,3 UV-I 548 W/m 14,4 C 18,3 C 9,7 km/h (2 Bft) 92,68 %
30.08.2017 10:00 18,3 C 22,8 C 80 % 1014,1 hPa 0,0 l/m 6,0 km/h (2 Bft) NO 48 2 min 0,000 mm 2,3 UV-I 554 W/m 14,8 C 18,3 C 8,0 km/h (2 Bft) 96,23 %
30.08.2017 10:02 18,5 C 22,8 C 79 % 1014,1 hPa 0,0 l/m 5,8 km/h (2 Bft) NO 46 2 min 0,280 mm 2,4 UV-I 559 W/m 14,8 C 18,5 C 9,7 km/h (2 Bft) 96,00 %
30.08.2017 10:04 18,7 C 22,8 C 80 % 1014,0 hPa 0,0 l/m 2,5 km/h (1 Bft) NO 38 2 min 0,000 mm 2,4 UV-I 563 W/m 15,2 C 18,7 C 6,4 km/h (2 Bft) 96,00 %
30.08.2017 10:06 18,8 C 22,8 C 78 % 1014,0 hPa 0,0 l/m 4,6 km/h (1 Bft) O-NO 57 2 min 0,000 mm 2,5 UV-I 568 W/m 14,9 C 18,8 C 8,0 km/h (2 Bft) 97,14 %
30.08.2017 10:08 18,9 C 22,8 C 78 % 1013,9 hPa 0,0 l/m 5,8 km/h (2 Bft) O-NO 61 2 min 0,000 mm 2,5 UV-I 574 W/m 15,0 C 18,9 C 8,0 km/h (2 Bft) 93,22 %
30.08.2017 10:10 19,0 C 22,8 C 77 % 1013,9 hPa 0,0 l/m 3,7 km/h (1 Bft) O-NO 70 2 min 0,000 mm 2,6 UV-I 579 W/m 14,9 C 19,0 C 6,4 km/h (2 Bft) 95,45 %
30.08.2017 10:12 19,1 C 22,8 C 78 % 1013,9 hPa 0,0 l/m 5,4 km/h (1 Bft) NO 38 2 min 0,000 mm 2,6 UV-I 582 W/m 15,2 C 19,1 C 9,7 km/h (2 Bft) 95,12 %
30.08.2017 10:14 19,2 C 22,8 C 79 % 1014,0 hPa 0,0 l/m 3,9 km/h (1 Bft) N-NO 27 2 min 0,000 mm 2,7 UV-I 585 W/m 15,5 C 19,2 C 8,0 km/h (2 Bft) 93,62 %
30.08.2017 10:16 19,1 C 22,8 C 78 % 1014,1 hPa 0,0 l/m 4,9 km/h (1 Bft) NO 35 2 min 0,000 mm 2,7 UV-I 591 W/m 15,2 C 19,1 C 6,4 km/h (2 Bft) 96,23 %
30.08.2017 10:18 19,1 C 22,8 C 79 % 1014,1 hPa 0,0 l/m 2,9 km/h (1 Bft) N-NO 12 2 min 0,000 mm 2,8 UV-I 596 W/m 15,4 C 19,1 C 6,4 km/h (2 Bft) 97,73 %
30.08.2017 10:20 19,1 C 22,8 C 78 % 1014,1 hPa 0,0 l/m 4,8 km/h (1 Bft) NO 35 2 min 0,000 mm 2,8 UV-I 598 W/m 15,2 C 19,1 C 6,4 km/h (2 Bft) 97,56 %
30.08.2017 10:22 18,9 C 22,8 C 76 % 1014,1 hPa 0,0 l/m 2,1 km/h (1 Bft) N-NO 24 2 min 0,000 mm 2,8 UV-I 601 W/m 14,6 C 18,9 C 6,4 km/h (2 Bft) 96,00 %
30.08.2017 10:24 19,0 C 22,8 C 77 % 1014,0 hPa 0,0 l/m 4,0 km/h (1 Bft) NO 53 2 min 0,000 mm 2,9 UV-I 608 W/m 14,9 C 19,0 C 8,0 km/h (2 Bft) 98,00 %
30.08.2017 10:26 19,1 C 22,8 C 75 % 1014,0 hPa 0,0 l/m 4,5 km/h (1 Bft) O-NO 63 2 min 0,000 mm 2,9 UV-I 613 W/m 14,6 C 19,1 C 8,0 km/h (2 Bft) 97,44 %
30.08.2017 10:28 19,2 C 22,8 C 78 % 1013,9 hPa 0,0 l/m 7,0 km/h (2 Bft) NO 42 2 min 0,000 mm 3,0 UV-I 617 W/m 15,3 C 18,9 C 12,9 km/h (3 Bft) 98,00 %
30.08.2017 10:30 19,6 C 22,8 C 79 % 1013,9 hPa 0,0 l/m 5,7 km/h (1 Bft) NO 43 2 min 0,000 mm 3,0 UV-I 622 W/m 15,9 C 19,6 C 8,0 km/h (2 Bft) 98,00 %
30.08.2017 10:32 19,6 C 22,8 C 76 % 1014,0 hPa 0,0 l/m 4,4 km/h (1 Bft) NO 52 2 min 0,000 mm 3,1 UV-I 626 W/m 15,2 C 19,6 C 9,7 km/h (2 Bft) 96,00 %
30.08.2017 10:34 19,7 C 22,8 C 75 % 1014,0 hPa 0,0 l/m 6,2 km/h (2 Bft) NO 55 2 min 0,000 mm 3,1 UV-I 631 W/m 15,1 C 19,7 C 9,7 km/h (2 Bft) 97,87 %
30.08.2017 10:36 19,7 C 22,8 C 74 % 1014,0 hPa 0,0 l/m 3,8 km/h (1 Bft) NO 46 2 min 0,000 mm 3,1 UV-I 633 W/m 14,9 C 19,7 C 8,0 km/h (2 Bft) 97,87 %
30.08.2017 10:38 19,7 C 22,8 C 73 % 1014,0 hPa 0,0 l/m 4,0 km/h (1 Bft) O-NO 58 2 min 0,000 mm 3,2 UV-I 636 W/m 14,7 C 19,7 C 6,4 km/h (2 Bft) 96,00 %
30.08.2017 10:40 19,8 C 22,8 C 73 % 1014,0 hPa 0,0 l/m 5,6 km/h (1 Bft) O-NO 59 2 min 0,000 mm 3,2 UV-I 640 W/m 14,8 C 19,8 C 8,0 km/h (2 Bft) 97,87 %
30.08.2017 10:42 19,9 C 22,8 C 75 % 1014,0 hPa 0,0 l/m 7,3 km/h (2 Bft) NO 40 2 min 0,000 mm 3,3 UV-I 644 W/m 15,3 C 19,5 C 11,3 km/h (2 Bft) 97,37 %
30.08.2017 10:44 19,9 C 22,8 C 73 % 1013,9 hPa 0,0 l/m 3,9 km/h (1 Bft) O-NO 59 2 min 0,000 mm 3,3 UV-I 648 W/m 14,9 C 19,9 C 6,4 km/h (2 Bft) 98,00 %
30.08.2017 10:46 20,0 C 22,8 C 76 % 1013,9 hPa 0,0 l/m 6,0 km/h (2 Bft) NO 44 2 min 0,000 mm 3,3 UV-I 650 W/m 15,6 C 20,0 C 8,0 km/h (2 Bft) 97,56 %
30.08.2017 10:48 20,1 C 22,8 C 73 % 1014,0 hPa 0,0 l/m 5,7 km/h (1 Bft) NO 54 2 min 0,000 mm 3,4 UV-I 654 W/m 15,1 C 20,1 C 11,3 km/h (2 Bft) 100,00 %
30.08.2017 10:50 20,1 C 22,8 C 73 % 1013,9 hPa 0,0 l/m 6,2 km/h (2 Bft) NO 47 2 min 0,000 mm 3,4 UV-I 658 W/m 15,1 C 20,1 C 8,0 km/h (2 Bft) 100,00 %
30.08.2017 10:52 20,2 C 22,8 C 72 % 1014,0 hPa 0,0 l/m 5,9 km/h (2 Bft) NO 45 2 min 0,000 mm 3,4 UV-I 663 W/m 15,0 C 20,2 C 9,7 km/h (2 Bft) 100,00 %
30.08.2017 10:54 20,2 C 22,8 C 73 % 1013,9 hPa 0,0 l/m 6,4 km/h (2 Bft) NO 44 2 min 0,000 mm 3,5 UV-I 666 W/m 15,2 C 20,2 C 9,7 km/h (2 Bft) 97,14 %
30.08.2017 10:56 20,3 C 22,8 C 71 % 1014,0 hPa 0,0 l/m 4,5 km/h (1 Bft) O-NO 66 2 min 0,000 mm 3,5 UV-I 670 W/m 14,9 C 20,3 C 8,0 km/h (2 Bft) 100,00 %
30.08.2017 10:58 20,3 C 22,8 C 72 % 1013,9 hPa 0,0 l/m 2,9 km/h (1 Bft) O 84 2 min 0,000 mm 3,6 UV-I 671 W/m 15,1 C 20,3 C 8,0 km/h (2 Bft) 100,00 %
30.08.2017 11:00 20,4 C 22,8 C 73 % 1013,9 hPa 0,0 l/m 5,4 km/h (1 Bft) O-NO 73 2 min 0,381 mm 3,6 UV-I 674 W/m 15,4 C 20,4 C 12,9 km/h (3 Bft) 97,87 %
30.08.2017 11:02 20,6 C 22,8 C 72 % 1013,8 hPa 0,0 l/m 6,6 km/h (2 Bft) O-NO 60 2 min 0,000 mm 3,7 UV-I 680 W/m 15,4 C 20,5 C 11,3 km/h (2 Bft) 96,30 %
30.08.2017 11:04 20,6 C 22,8 C 70 % 1013,8 hPa 0,0 l/m 5,2 km/h (1 Bft) O-NO 74 2 min 0,000 mm 3,7 UV-I 685 W/m 14,9 C 20,6 C 8,0 km/h (2 Bft) 100,00 %
30.08.2017 11:06 20,7 C 22,8 C 72 % 1013,8 hPa 0,0 l/m 4,5 km/h (1 Bft) O-NO 65 2 min 0,000 mm 3,7 UV-I 686 W/m 15,5 C 20,7 C 6,4 km/h (2 Bft) 100,00 %
30.08.2017 11:08 20,7 C 22,8 C 72 % 1013,8 hPa 0,0 l/m 3,1 km/h (1 Bft) N 9 2 min 0,000 mm 3,8 UV-I 689 W/m 15,5 C 20,7 C 4,8 km/h (1 Bft) 100,00 %
30.08.2017 11:10 20,9 C 22,8 C 75 % 1013,7 hPa 0,0 l/m 3,8 km/h (1 Bft) N-NO 17 2 min 0,000 mm 3,8 UV-I 693 W/m 16,3 C 20,9 C 6,4 km/h (2 Bft) 100,00 %
30.08.2017 11:12 21,0 C 22,8 C 70 % 1013,8 hPa 0,0 l/m 4,9 km/h (1 Bft) O-NO 67 2 min 0,000 mm 3,9 UV-I 695 W/m 15,3 C 21,0 C 8,0 km/h (2 Bft) 100,00 %
30.08.2017 11:14 20,9 C 22,8 C 69 % 1013,8 hPa 0,0 l/m 3,7 km/h (1 Bft) O 86 2 min 0,000 mm 3,9 UV-I 699 W/m 15,0 C 20,9 C 6,4 km/h (2 Bft) 100,00 %
30.08.2017 11:16 21,0 C 22,8 C 70 % 1013,8 hPa 0,0 l/m 2,3 km/h (1 Bft) NO 38 2 min 0,000 mm 4,0 UV-I 702 W/m 15,3 C 21,0 C 6,4 km/h (2 Bft) 100,00 %
30.08.2017 11:18 21,2 C 22,8 C 72 % 1013,8 hPa 0,0 l/m 6,2 km/h (2 Bft) NO 43 2 min 0,000 mm 4,0 UV-I 703 W/m 15,9 C 21,2 C 8,0 km/h (2 Bft) 97,37 %
30.08.2017 11:20 21,3 C 22,8 C 69 % 1013,8 hPa 0,0 l/m 5,6 km/h (1 Bft) O 83 2 min 0,000 mm 4,0 UV-I 707 W/m 15,4 C 21,3 C 9,7 km/h (2 Bft) 100,00 %
30.08.2017 11:22 21,2 C 22,8 C 70 % 1013,8 hPa 0,0 l/m 5,6 km/h (1 Bft) O-SO 106 2 min 0,000 mm 4,0 UV-I 711 W/m 15,5 C 21,2 C 9,7 km/h (2 Bft) 100,00 %
30.08.2017 11:24 21,4 C 22,8 C 70 % 1013,8 hPa 0,0 l/m 3,1 km/h (1 Bft) NO 46 2 min 0,000 mm 4,1 UV-I 714 W/m 15,7 C 21,4 C 8,0 km/h (2 Bft) 100,00 %
30.08.2017 11:26 21,5 C 22,8 C 68 % 1013,8 hPa 0,0 l/m 3,9 km/h (1 Bft) O-NO 67 2 min 0,000 mm 4,1 UV-I 715 W/m 15,3 C 21,5 C 8,0 km/h (2 Bft) 100,00 %
30.08.2017 11:28 21,4 C 22,8 C 69 % 1013,7 hPa 0,0 l/m 4,0 km/h (1 Bft) O-NO 66 2 min 0,000 mm 4,2 UV-I 717 W/m 15,5 C 21,4 C 11,3 km/h (2 Bft) 100,00 %
30.08.2017 11:30 21,5 C 22,8 C 67 % 1013,7 hPa 0,0 l/m 8,4 km/h (2 Bft) O 80 2 min 0,000 mm 4,2 UV-I 721 W/m 15,1 C 20,8 C 12,9 km/h (3 Bft) 100,00 %
30.08.2017 11:32 21,7 C 22,8 C 68 % 1013,7 hPa 0,0 l/m 7,0 km/h (2 Bft) O 86 2 min 0,000 mm 4,2 UV-I 723 W/m 15,5 C 21,5 C 11,3 km/h (2 Bft) 100,00 %
30.08.2017 11:34 21,8 C 22,8 C 69 % 1013,7 hPa 0,0 l/m 7,9 km/h (2 Bft) O 82 2 min 0,000 mm 4,3 UV-I 703 W/m 15,9 C 21,3 C 14,5 km/h (3 Bft) 100,00 %
30.08.2017 11:36 21,8 C 22,8 C 68 % 1013,7 hPa 0,0 l/m 8,5 km/h (2 Bft) O 86 2 min 0,000 mm 4,3 UV-I 706 W/m 15,6 C 21,1 C 14,5 km/h (3 Bft) 100,00 %
30.08.2017 11:38 21,8 C 22,8 C 69 % 1013,6 hPa 0,0 l/m 8,9 km/h (2 Bft) O 97 2 min 0,000 mm 4,2 UV-I 719 W/m 15,9 C 21,0 C 12,9 km/h (3 Bft) 100,00 %
30.08.2017 11:40 21,9 C 22,8 C 70 % 1013,6 hPa 0,0 l/m 8,5 km/h (2 Bft) O-NO 69 2 min 0,000 mm 2,9 UV-I 732 W/m 16,2 C 21,2 C 12,9 km/h (3 Bft) 94,74 %
30.08.2017 11:42 22,1 C 22,8 C 68 % 1013,6 hPa 0,0 l/m 6,6 km/h (2 Bft) O-NO 58 2 min 0,000 mm 2,6 UV-I 735 W/m 15,9 C 22,0 C 11,3 km/h (2 Bft) 98,11 %
30.08.2017 11:44 22,2 C 22,8 C 69 % 1013,5 hPa 0,0 l/m 10,1 km/h (2 Bft) O 88 2 min 0,000 mm 4,2 UV-I 710 W/m 16,2 C 21,0 C 16,1 km/h (3 Bft) 97,62 %
30.08.2017 11:46 22,3 C 22,8 C 68 % 1013,5 hPa 0,0 l/m 8,4 km/h (2 Bft) O-NO 78 2 min 0,000 mm 3,6 UV-I 717 W/m 16,1 C 21,6 C 12,9 km/h (3 Bft) 95,12 %
30.08.2017 11:48 22,3 C 22,8 C 68 % 1013,5 hPa 0,0 l/m 7,5 km/h (2 Bft) O-NO 69 2 min 0,000 mm 4,4 UV-I 741 W/m 16,1 C 21,9 C 12,9 km/h (3 Bft) 98,11 %
30.08.2017 11:50 22,3 C 23,3 C 67 % 1013,5 hPa 0,0 l/m 7,0 km/h (2 Bft) O 79 2 min 0,000 mm 4,5 UV-I 742 W/m 15,9 C 22,1 C 11,3 km/h (2 Bft) 98,00 %
30.08.2017 11:52 22,3 C 23,3 C 67 % 1013,5 hPa 0,0 l/m 8,4 km/h (2 Bft) O 79 2 min 0,000 mm 4,5 UV-I 737 W/m 15,9 C 21,6 C 14,5 km/h (3 Bft) 95,74 %
30.08.2017 11:54 22,3 C 23,3 C 69 % 1013,5 hPa 0,0 l/m 10,2 km/h (2 Bft) NO 50 2 min 0,000 mm 4,5 UV-I 739 W/m 16,3 C 21,1 C 14,5 km/h (3 Bft) 97,73 %
30.08.2017 11:56 22,3 C 23,3 C 69 % 1013,6 hPa 0,0 l/m 6,6 km/h (2 Bft) O-NO 74 2 min 0,000 mm 4,5 UV-I 739 W/m 16,3 C 22,2 C 11,3 km/h (2 Bft) 97,73 %
30.08.2017 11:58 22,3 C 23,3 C 67 % 1013,5 hPa 0,0 l/m 5,6 km/h (1 Bft) O 101 2 min 0,000 mm 4,6 UV-I 739 W/m 15,9 C 22,3 C 9,7 km/h (2 Bft) 98,21 %
30.08.2017 12:00 22,3 C 23,3 C 65 % 1013,5 hPa 0,0 l/m 5,5 km/h (1 Bft) O-NO 65 2 min 0,457 mm 4,6 UV-I 752 W/m 15,4 C 22,3 C 9,7 km/h (2 Bft) 97,73 %
30.08.2017 12:02 22,3 C 23,3 C 68 % 1013,5 hPa 0,0 l/m 7,9 km/h (2 Bft) NO 50 2 min 0,000 mm 4,6 UV-I 754 W/m 16,1 C 21,8 C 14,5 km/h (3 Bft) 97,37 %
30.08.2017 12:04 22,2 C 23,3 C 67 % 1013,5 hPa 0,0 l/m 4,4 km/h (1 Bft) O-NO 57 2 min 0,000 mm 4,7 UV-I 753 W/m 15,8 C 22,2 C 8,0 km/h (2 Bft) 98,00 %
30.08.2017 12:06 22,4 C 23,3 C 66 % 1013,5 hPa 0,0 l/m 8,0 km/h (2 Bft) O-NO 67 2 min 0,000 mm 4,7 UV-I 757 W/m 15,7 C 21,9 C 12,9 km/h (3 Bft) 98,00 %
30.08.2017 12:08 22,4 C 23,3 C 67 % 1013,5 hPa 0,0 l/m 8,4 km/h (2 Bft) O-NO 61 2 min 0,000 mm 4,7 UV-I 752 W/m 16,0 C 21,7 C 12,9 km/h (3 Bft) 97,14 %
30.08.2017 12:10 22,6 C 23,3 C 67 % 1013,5 hPa 0,0 l/m 7,4 km/h (2 Bft) O 81 2 min 0,000 mm 4,7 UV-I 754 W/m 16,2 C 22,3 C 11,3 km/h (2 Bft) 96,43 %
30.08.2017 12:12 22,5 C 23,3 C 67 % 1013,5 hPa 0,0 l/m 6,4 km/h (2 Bft) O 93 2 min 0,000 mm 4,7 UV-I 761 W/m 16,1 C 22,5 C 9,7 km/h (2 Bft) 100,00 %
30.08.2017 12:14 22,7 C 23,3 C 69 % 1013,5 hPa 0,0 l/m 6,1 km/h (2 Bft) O-SO 110 2 min 0,000 mm 4,8 UV-I 761 W/m 16,7 C 22,7 C 11,3 km/h (2 Bft) 100,00 %
30.08.2017 12:16 22,8 C 23,3 C 67 % 1013,4 hPa 0,0 l/m 8,0 km/h (2 Bft) O-NO 73 2 min 0,000 mm 4,7 UV-I 761 W/m 16,3 C 22,3 C 12,9 km/h (3 Bft) 100,00 %
30.08.2017 12:18 22,9 C 23,3 C 68 % 1013,4 hPa 0,0 l/m 5,6 km/h (1 Bft) O-SO 112 2 min 0,000 mm 3,8 UV-I 761 W/m 16,7 C 22,9 C 8,0 km/h (2 Bft) 96,00 %
30.08.2017 12:20 22,8 C 23,3 C 67 % 1013,4 hPa 0,0 l/m 3,0 km/h (1 Bft) O 94 2 min 0,000 mm 4,3 UV-I 762 W/m 16,3 C 22,8 C 6,4 km/h (2 Bft) 97,87 %
30.08.2017 12:22 22,9 C 23,3 C 67 % 1013,4 hPa 0,0 l/m 4,7 km/h (1 Bft) O-NO 63 2 min 0,000 mm 4,2 UV-I 765 W/m 16,4 C 22,9 C 6,4 km/h (2 Bft) 100,00 %
30.08.2017 12:24 22,9 C 23,3 C 67 % 1013,4 hPa 0,0 l/m 5,2 km/h (1 Bft) O-NO 78 2 min 0,000 mm 4,9 UV-I 764 W/m 16,4 C 22,9 C 8,0 km/h (2 Bft) 100,00 %
30.08.2017 12:26 23,0 C 23,3 C 66 % 1013,3 hPa 0,0 l/m 5,4 km/h (1 Bft) O-NO 59 2 min 0,000 mm 4,9 UV-I 765 W/m 16,3 C 23,0 C 8,0 km/h (2 Bft) 100,00 %
30.08.2017 12:28 23,0 C 23,3 C 66 % 1013,3 hPa 0,0 l/m 3,5 km/h (1 Bft) O-NO 69 2 min 0,000 mm 4,9 UV-I 765 W/m 16,3 C 23,0 C 6,4 km/h (2 Bft) 97,37 %
30.08.2017 12:30 23,2 C 23,3 C 66 % 1013,3 hPa 0,0 l/m 5,1 km/h (1 Bft) NO 48 2 min 0,000 mm 4,9 UV-I 768 W/m 16,5 C 23,2 C 8,0 km/h (2 Bft) 100,00 %
30.08.2017 12:32 23,4 C 23,3 C 67 % 1013,3 hPa 0,0 l/m 5,3 km/h (1 Bft) N-NO 27 2 min 0,000 mm 4,9 UV-I 769 W/m 16,9 C 23,4 C 8,0 km/h (2 Bft) 100,00 %
30.08.2017 12:34 23,6 C 23,3 C 65 % 1013,2 hPa 0,0 l/m 6,5 km/h (2 Bft) NO 37 2 min 0,000 mm 4,9 UV-I 770 W/m 16,6 C 23,6 C 11,3 km/h (2 Bft) 100,00 %
30.08.2017 12:36 23,8 C 23,3 C 67 % 1013,2 hPa 0,0 l/m 5,0 km/h (1 Bft) O-NO 62 2 min 0,000 mm 4,9 UV-I 771 W/m 17,3 C 23,8 C 8,0 km/h (2 Bft) 100,00 %
30.08.2017 12:38 23,7 C 23,3 C 66 % 1013,1 hPa 0,0 l/m 6,9 km/h (2 Bft) O-NO 61 2 min 0,000 mm 4,9 UV-I 768 W/m 17,0 C 23,6 C 9,7 km/h (2 Bft) 100,00 %
30.08.2017 12:40 23,6 C 23,3 C 63 % 1013,2 hPa 0,0 l/m 6,5 km/h (2 Bft) O-NO 69 2 min 0,000 mm 4,9 UV-I 770 W/m 16,1 C 23,6 C 12,9 km/h (3 Bft) 100,00 %
30.08.2017 12:42 23,6 C 23,3 C 63 % 1013,2 hPa 0,0 l/m 8,6 km/h (2 Bft) O-NO 58 2 min 0,000 mm 4,9 UV-I 771 W/m 16,1 C 23,0 C 12,9 km/h (3 Bft) 100,00 %
30.08.2017 12:44 23,7 C 23,3 C 65 % 1013,1 hPa 0,0 l/m 6,7 km/h (2 Bft) O-NO 64 2 min 0,000 mm 4,3 UV-I 774 W/m 16,7 C 23,6 C 9,7 km/h (2 Bft) 97,87 %
30.08.2017 12:46 23,6 C 23,3 C 64 % 1013,1 hPa 0,0 l/m 6,0 km/h (2 Bft) O-NO 60 2 min 0,000 mm 5,0 UV-I 774 W/m 16,4 C 23,6 C 11,3 km/h (2 Bft) 100,00 %
30.08.2017 12:48 23,7 C 23,3 C 62 % 1013,1 hPa 0,0 l/m 7,9 km/h (2 Bft) O-NO 67 2 min 0,000 mm 5,0 UV-I 774 W/m 16,0 C 23,3 C 9,7 km/h (2 Bft) 93,62 %
30.08.2017 12:50 23,7 C 23,3 C 63 % 1013,1 hPa 0,0 l/m 8,7 km/h (2 Bft) O-NO 69 2 min 0,000 mm 5,0 UV-I 773 W/m 16,2 C 23,0 C 14,5 km/h (3 Bft) 97,37 %
30.08.2017 12:52 23,7 C 23,3 C 63 % 1013,1 hPa 0,0 l/m 8,7 km/h (2 Bft) O-NO 68 2 min 0,000 mm 5,0 UV-I 777 W/m 16,2 C 23,0 C 11,3 km/h (2 Bft) 100,00 %
30.08.2017 12:54 23,7 C 23,3 C 63 % 1013,0 hPa 0,0 l/m 6,5 km/h (2 Bft) O 90 2 min 0,000 mm 5,0 UV-I 777 W/m 16,2 C 23,7 C 12,9 km/h (3 Bft) 100,00 %
30.08.2017 12:56 23,8 C 23,3 C 64 % 1013,1 hPa 0,0 l/m 3,8 km/h (1 Bft) NO 51 2 min 0,000 mm 5,0 UV-I 769 W/m 16,6 C 23,8 C 12,9 km/h (3 Bft) 98,21 %
30.08.2017 12:58 24,0 C 23,3 C 64 % 1013,0 hPa 0,0 l/m 7,9 km/h (2 Bft) NO 42 2 min 0,000 mm 5,0 UV-I 774 W/m 16,8 C 23,6 C 12,9 km/h (3 Bft) 100,00 %
30.08.2017 13:00 24,1 C 23,3 C 61 % 1013,0 hPa 0,0 l/m 9,5 km/h (2 Bft) O-NO 61 2 min 0,000 mm 5,0 UV-I 774 W/m 16,1 C 23,3 C 14,5 km/h (3 Bft) 100,00 %
30.08.2017 13:02 24,1 C 23,3 C 62 % 1013,0 hPa 0,0 l/m 5,9 km/h (2 Bft) O-NO 77 2 min 0,483 mm 5,0 UV-I 776 W/m 16,4 C 24,1 C 8,0 km/h (2 Bft) 100,00 %
30.08.2017 13:04 24,1 C 23,3 C 61 % 1013,0 hPa 0,0 l/m 6,3 km/h (2 Bft) O-SO 111 2 min 0,000 mm 5,0 UV-I 774 W/m 16,1 C 24,1 C 12,9 km/h (3 Bft) 100,00 %
30.08.2017 13:06 24,1 C 23,3 C 61 % 1013,0 hPa 0,0 l/m 3,6 km/h (1 Bft) O 101 2 min 0,000 mm 5,0 UV-I 770 W/m 16,1 C 24,1 C 6,4 km/h (2 Bft) 100,00 %
30.08.2017 13:08 24,2 C 23,3 C 62 % 1013,0 hPa 0,0 l/m 4,2 km/h (1 Bft) O-NO 63 2 min 0,000 mm 5,0 UV-I 774 W/m 16,4 C 24,2 C 6,4 km/h (2 Bft) 95,12 %
30.08.2017 13:10 24,4 C 23,3 C 64 % 1013,0 hPa 0,0 l/m 8,0 km/h (2 Bft) N-NO 33 2 min 0,000 mm 5,0 UV-I 773 W/m 17,1 C 24,0 C 12,9 km/h (3 Bft) 100,00 %
30.08.2017 13:12 24,5 C 23,3 C 62 % 1013,0 hPa 0,0 l/m 7,6 km/h (2 Bft) NO 46 2 min 0,000 mm 5,0 UV-I 772 W/m 16,7 C 24,2 C 12,9 km/h (3 Bft) 100,00 %
30.08.2017 13:14 24,5 C 23,3 C 62 % 1013,0 hPa 0,0 l/m 6,9 km/h (2 Bft) O-NO 62 2 min 0,000 mm 5,0 UV-I 772 W/m 16,7 C 24,4 C 11,3 km/h (2 Bft) 100,00 %
30.08.2017 13:16 24,5 C 23,3 C 61 % 1013,0 hPa 0,0 l/m 6,6 km/h (2 Bft) NO 46 2 min 0,000 mm 5,0 UV-I 772 W/m 16,5 C 24,5 C 9,7 km/h (2 Bft) 100,00 %
30.08.2017 13:18 24,5 C 23,3 C 60 % 1013,1 hPa 0,0 l/m 3,6 km/h (1 Bft) O-NO 60 2 min 0,000 mm 5,0 UV-I 770 W/m 16,2 C 24,5 C 4,8 km/h (1 Bft) 100,00 %
30.08.2017 13:20 24,3 C 23,3 C 61 % 1013,0 hPa 0,0 l/m 3,1 km/h (1 Bft) NO 49 2 min 0,000 mm 5,0 UV-I 769 W/m 16,3 C 24,3 C 11,3 km/h (2 Bft) 100,00 %
30.08.2017 13:22 24,4 C 23,3 C 64 % 1013,0 hPa 0,0 l/m 6,5 km/h (2 Bft) N-NO 28 2 min 0,000 mm 5,0 UV-I 768 W/m 17,1 C 24,4 C 9,7 km/h (2 Bft) 100,00 %
30.08.2017 13:24 24,6 C 23,3 C 62 % 1013,0 hPa 0,0 l/m 6,9 km/h (2 Bft) O-NO 57 2 min 0,000 mm 5,0 UV-I 768 W/m 16,8 C 24,5 C 9,7 km/h (2 Bft) 100,00 %
30.08.2017 13:26 24,7 C 23,3 C 65 % 1013,0 hPa 0,0 l/m 6,7 km/h (2 Bft) NO 40 2 min 0,000 mm 4,9 UV-I 767 W/m 17,7 C 24,6 C 11,3 km/h (2 Bft) 100,00 %
30.08.2017 13:28 24,7 C 23,3 C 64 % 1013,0 hPa 0,0 l/m 8,2 km/h (2 Bft) O-NO 64 2 min 0,000 mm 4,9 UV-I 766 W/m 17,4 C 24,2 C 12,9 km/h (3 Bft) 100,00 %
30.08.2017 13:30 24,7 C 23,3 C 61 % 1013,0 hPa 0,0 l/m 7,8 km/h (2 Bft) O-NO 57 2 min 0,000 mm 4,9 UV-I 766 W/m 16,7 C 24,3 C 12,9 km/h (3 Bft) 98,00 %
30.08.2017 13:32 24,7 C 23,3 C 62 % 1012,9 hPa 0,0 l/m 5,5 km/h (1 Bft) NO 55 2 min 0,000 mm 4,9 UV-I 764 W/m 16,9 C 24,7 C 8,0 km/h (2 Bft) 98,11 %
30.08.2017 13:34 24,8 C 23,3 C 65 % 1012,9 hPa 0,0 l/m 6,2 km/h (2 Bft) N-NO 12 2 min 0,000 mm 4,9 UV-I 765 W/m 17,8 C 24,8 C 11,3 km/h (2 Bft) 100,00 %
30.08.2017 13:36 24,8 C 23,3 C 60 % 1012,9 hPa 0,0 l/m 6,6 km/h (2 Bft) O-NO 62 2 min 0,000 mm 4,9 UV-I 763 W/m 16,5 C 24,8 C 8,0 km/h (2 Bft) 96,43 %
30.08.2017 13:38 24,8 C 23,3 C 61 % 1012,9 hPa 0,0 l/m 4,3 km/h (1 Bft) N-NO 29 2 min 0,000 mm 4,9 UV-I 764 W/m 16,8 C 24,8 C 8,0 km/h (2 Bft) 97,44 %
30.08.2017 13:40 24,8 C 23,9 C 62 % 1012,9 hPa 0,0 l/m 6,9 km/h (2 Bft) NO 36 2 min 0,000 mm 4,9 UV-I 760 W/m 17,0 C 24,7 C 12,9 km/h (3 Bft) 96,36 %
30.08.2017 13:42 24,9 C 23,9 C 63 % 1012,9 hPa 0,0 l/m 5,9 km/h (2 Bft) O-NO 68 2 min 0,000 mm 4,9 UV-I 761 W/m 17,4 C 24,9 C 9,7 km/h (2 Bft) 97,44 %
30.08.2017 13:44 24,9 C 23,9 C 61 % 1012,8 hPa 0,0 l/m 2,3 km/h (1 Bft) NO 50 2 min 0,000 mm 4,8 UV-I 759 W/m 16,8 C 24,9 C 6,4 km/h (2 Bft) 96,23 %
30.08.2017 13:46 24,9 C 23,9 C 64 % 1012,8 hPa 0,0 l/m 3,6 km/h (1 Bft) NO 46 2 min 0,000 mm 4,8 UV-I 758 W/m 17,6 C 24,9 C 6,4 km/h (2 Bft) 97,87 %
30.08.2017 13:48 25,1 C 23,9 C 60 % 1012,8 hPa 0,0 l/m 5,3 km/h (1 Bft) NO 36 2 min 0,000 mm 4,8 UV-I 758 W/m 16,8 C 25,1 C 11,3 km/h (2 Bft) 96,00 %
30.08.2017 13:50 25,1 C 23,9 C 63 % 1012,7 hPa 0,0 l/m 6,6 km/h (2 Bft) NO 49 2 min 0,000 mm 3,7 UV-I 756 W/m 17,5 C 25,1 C 11,3 km/h (2 Bft) 97,37 %
30.08.2017 13:52 25,2 C 23,9 C 65 % 1012,7 hPa 0,0 l/m 9,2 km/h (2 Bft) O-NO 63 2 min 0,000 mm 4,8 UV-I 755 W/m 18,1 C 24,5 C 14,5 km/h (3 Bft) 96,23 %
30.08.2017 13:54 25,2 C 23,9 C 61 % 1012,7 hPa 0,0 l/m 4,4 km/h (1 Bft) NO 36 2 min 0,000 mm 4,8 UV-I 754 W/m 17,1 C 25,2 C 8,0 km/h (2 Bft) 97,56 %
30.08.2017 13:56 25,3 C 23,9 C 64 % 1012,7 hPa 0,0 l/m 4,2 km/h (1 Bft) NO 38 2 min 0,000 mm 4,8 UV-I 752 W/m 18,0 C 25,3 C 8,0 km/h (2 Bft) 95,45 %
30.08.2017 13:58 25,3 C 23,9 C 62 % 1012,7 hPa 0,0 l/m 4,7 km/h (1 Bft) N 10 2 min 0,000 mm 4,7 UV-I 751 W/m 17,5 C 25,3 C 6,4 km/h (2 Bft) 98,11 %
30.08.2017 14:00 25,4 C 23,9 C 64 % 1012,7 hPa 0,0 l/m 4,2 km/h (1 Bft) NO 51 2 min 0,508 mm 4,7 UV-I 749 W/m 18,1 C 25,4 C 8,0 km/h (2 Bft) 98,11 %
30.08.2017 14:02 25,5 C 23,9 C 63 % 1012,6 hPa 0,0 l/m 2,9 km/h (1 Bft) O-NO 57 2 min 0,000 mm 4,7 UV-I 746 W/m 17,9 C 25,5 C 11,3 km/h (2 Bft) 93,62 %
30.08.2017 14:04 25,6 C 23,9 C 63 % 1012,5 hPa 0,0 l/m 9,9 km/h (2 Bft) NO 47 2 min 0,000 mm 4,7 UV-I 747 W/m 18,0 C 24,8 C 14,5 km/h (3 Bft) 97,37 %
30.08.2017 14:06 25,7 C 23,9 C 60 % 1012,5 hPa 0,0 l/m 7,2 km/h (2 Bft) NO 38 2 min 0,000 mm 4,7 UV-I 746 W/m 17,3 C 25,5 C 14,5 km/h (3 Bft) 94,64 %
30.08.2017 14:08 25,7 C 23,9 C 59 % 1012,5 hPa 0,0 l/m 7,8 km/h (2 Bft) O-NO 57 2 min 0,000 mm 4,6 UV-I 744 W/m 17,1 C 25,4 C 11,3 km/h (2 Bft) 95,12 %
30.08.2017 14:10 25,8 C 23,9 C 60 % 1012,5 hPa 0,0 l/m 7,5 km/h (2 Bft) O-NO 78 2 min 0,000 mm 4,6 UV-I 741 W/m 17,4 C 25,6 C 12,9 km/h (3 Bft) 98,00 %
30.08.2017 14:12 25,8 C 23,9 C 61 % 1012,5 hPa 0,0 l/m 6,3 km/h (2 Bft) O-NO 59 2 min 0,000 mm 4,6 UV-I 739 W/m 17,7 C 25,8 C 11,3 km/h (2 Bft) 97,73 %
30.08.2017 14:14 25,8 C 23,9 C 58 % 1012,5 hPa 0,0 l/m 6,4 km/h (2 Bft) O-NO 59 2 min 0,000 mm 4,5 UV-I 735 W/m 16,9 C 25,8 C 12,9 km/h (3 Bft) 95,74 %
30.08.2017 14:16 25,8 C 23,9 C 59 % 1012,5 hPa 0,0 l/m 9,5 km/h (2 Bft) NO 42 2 min 0,000 mm 4,5 UV-I 734 W/m 17,2 C 25,1 C 16,1 km/h (3 Bft) 98,00 %
30.08.2017 14:18 25,8 C 23,9 C 60 % 1012,5 hPa 0,0 l/m 10,2 km/h (2 Bft) NO 46 2 min 0,000 mm 4,5 UV-I 734 W/m 17,4 C 25,0 C 16,1 km/h (3 Bft) 97,44 %
30.08.2017 14:20 25,7 C 23,9 C 59 % 1012,5 hPa 0,0 l/m 6,5 km/h (2 Bft) NO 43 2 min 0,000 mm 4,4 UV-I 729 W/m 17,1 C 25,7 C 11,3 km/h (2 Bft) 98,00 %
30.08.2017 14:22 25,8 C 23,9 C 61 % 1012,5 hPa 0,0 l/m 6,6 km/h (2 Bft) O-NO 69 2 min 0,000 mm 4,4 UV-I 728 W/m 17,7 C 25,8 C 14,5 km/h (3 Bft) 97,87 %
30.08.2017 14:24 25,9 C 23,9 C 60 % 1012,5 hPa 0,0 l/m 5,6 km/h (1 Bft) NO 55 2 min 0,000 mm 4,4 UV-I 726 W/m 17,5 C 25,9 C 9,7 km/h (2 Bft) 96,23 %
30.08.2017 14:26 26,1 C 23,9 C 58 % 1012,5 hPa 0,0 l/m 7,5 km/h (2 Bft) NO 50 2 min 0,000 mm 4,4 UV-I 722 W/m 17,2 C 25,9 C 12,9 km/h (3 Bft) 97,87 %
30.08.2017 14:28 26,1 C 23,9 C 59 % 1012,4 hPa 0,0 l/m 6,3 km/h (2 Bft) O 81 2 min 0,000 mm 4,3 UV-I 721 W/m 17,4 C 26,1 C 11,3 km/h (2 Bft) 97,87 %
30.08.2017 14:30 26,2 C 23,9 C 61 % 1012,3 hPa 0,0 l/m 7,8 km/h (2 Bft) NO 46 2 min 0,000 mm 4,3 UV-I 719 W/m 18,1 C 25,9 C 12,9 km/h (3 Bft) 97,37 %
30.08.2017 14:32 26,2 C 23,9 C 61 % 1012,3 hPa 0,0 l/m 7,3 km/h (2 Bft) NO 39 2 min 0,000 mm 4,3 UV-I 716 W/m 18,1 C 26,0 C 11,3 km/h (2 Bft) 96,00 %
30.08.2017 14:34 26,2 C 23,9 C 59 % 1012,3 hPa 0,0 l/m 6,8 km/h (2 Bft) NO 50 2 min 0,000 mm 4,3 UV-I 714 W/m 17,5 C 26,1 C 11,3 km/h (2 Bft) 98,11 %
30.08.2017 14:36 26,1 C 23,9 C 61 % 1012,3 hPa 0,0 l/m 7,9 km/h (2 Bft) O-NO 75 2 min 0,000 mm 4,0 UV-I 712 W/m 18,0 C 25,8 C 14,5 km/h (3 Bft) 97,14 %
30.08.2017 14:38 26,2 C 23,9 C 58 % 1012,3 hPa 0,0 l/m 6,3 km/h (2 Bft) NO 55 2 min 0,000 mm 3,9 UV-I 708 W/m 17,3 C 26,2 C 12,9 km/h (3 Bft) 96,23 %
30.08.2017 14:40 26,2 C 23,9 C 59 % 1012,3 hPa 0,0 l/m 5,2 km/h (1 Bft) NO 53 2 min 0,000 mm 4,1 UV-I 705 W/m 17,5 C 26,2 C 8,0 km/h (2 Bft) 97,37 %
30.08.2017 14:42 26,3 C 23,9 C 59 % 1012,3 hPa 0,0 l/m 7,8 km/h (2 Bft) O 88 2 min 0,000 mm 4,0 UV-I 702 W/m 17,6 C 26,0 C 14,5 km/h (3 Bft) 98,11 %
30.08.2017 14:44 26,4 C 23,9 C 60 % 1012,3 hPa 0,0 l/m 7,1 km/h (2 Bft) N-NO 24 2 min 0,000 mm 3,8 UV-I 699 W/m 18,0 C 26,3 C 12,9 km/h (3 Bft) 95,45 %
30.08.2017 14:46 26,4 C 23,9 C 58 % 1012,2 hPa 0,0 l/m 6,8 km/h (2 Bft) NO 47 2 min 0,000 mm 4,0 UV-I 696 W/m 17,5 C 26,3 C 11,3 km/h (2 Bft) 98,00 %
30.08.2017 14:48 26,5 C 23,9 C 56 % 1012,2 hPa 0,0 l/m 7,3 km/h (2 Bft) N 9 2 min 0,000 mm 4,0 UV-I 693 W/m 17,0 C 26,3 C 11,3 km/h (2 Bft) 97,87 %
30.08.2017 14:50 26,6 C 23,9 C 59 % 1012,1 hPa 0,0 l/m 8,3 km/h (2 Bft) NO 36 2 min 0,000 mm 4,0 UV-I 690 W/m 17,9 C 26,2 C 12,9 km/h (3 Bft) 97,73 %
30.08.2017 14:52 26,6 C 23,9 C 57 % 1012,2 hPa 0,0 l/m 7,5 km/h (2 Bft) O-NO 74 2 min 0,000 mm 4,0 UV-I 686 W/m 17,4 C 26,4 C 12,9 km/h (3 Bft) 96,00 %
30.08.2017 14:54 26,5 C 23,9 C 58 % 1012,1 hPa 0,0 l/m 3,2 km/h (1 Bft) N-NO 22 2 min 0,000 mm 3,9 UV-I 682 W/m 17,5 C 26,5 C 6,4 km/h (2 Bft) 98,00 %
30.08.2017 14:56 26,4 C 23,9 C 58 % 1012,1 hPa 0,0 l/m 6,1 km/h (2 Bft) O-NO 61 2 min 0,000 mm 3,9 UV-I 676 W/m 17,5 C 26,4 C 12,9 km/h (3 Bft) 97,44 %
30.08.2017 14:58 26,5 C 23,9 C 59 % 1012,1 hPa 0,0 l/m 10,2 km/h (2 Bft) O-NO 59 2 min 0,000 mm 3,9 UV-I 676 W/m 17,8 C 25,8 C 16,1 km/h (3 Bft) 98,00 %
30.08.2017 15:00 26,5 C 23,9 C 56 % 1012,1 hPa 0,0 l/m 5,2 km/h (1 Bft) N 11 2 min 0,000 mm 3,7 UV-I 671 W/m 17,0 C 26,5 C 11,3 km/h (2 Bft) 100,00 %
30.08.2017 15:02 26,5 C 23,9 C 63 % 1012,1 hPa 0,0 l/m 4,0 km/h (1 Bft) N-NO 19 2 min 0,508 mm 3,7 UV-I 668 W/m 18,9 C 26,5 C 12,9 km/h (3 Bft) 93,62 %
30.08.2017 15:04 26,4 C 23,9 C 62 % 1012,1 hPa 0,0 l/m 4,9 km/h (1 Bft) NO 34 2 min 0,000 mm 3,7 UV-I 664 W/m 18,5 C 26,4 C 8,0 km/h (2 Bft) 100,00 %
30.08.2017 15:06 26,5 C 23,9 C 62 % 1012,0 hPa 0,0 l/m 7,4 km/h (2 Bft) N-NO 19 2 min 0,000 mm 3,7 UV-I 661 W/m 18,6 C 26,3 C 12,9 km/h (3 Bft) 100,00 %
30.08.2017 15:08 26,6 C 23,9 C 58 % 1012,1 hPa 0,0 l/m 8,5 km/h (2 Bft) O 82 2 min 0,000 mm 3,7 UV-I 659 W/m 17,6 C 26,2 C 14,5 km/h (3 Bft) 98,21 %
30.08.2017 15:10 26,7 C 23,9 C 55 % 1012,1 hPa 0,0 l/m 7,5 km/h (2 Bft) NO 55 2 min 0,000 mm 3,6 UV-I 654 W/m 16,9 C 26,5 C 11,3 km/h (2 Bft) 100,00 %
30.08.2017 15:12 26,8 C 23,9 C 54 % 1012,1 hPa 0,0 l/m 6,2 km/h (2 Bft) O-NO 62 2 min 0,000 mm 3,6 UV-I 651 W/m 16,7 C 26,8 C 11,3 km/h (2 Bft) 100,00 %
30.08.2017 15:14 26,7 C 23,9 C 58 % 1012,0 hPa 0,0 l/m 2,8 km/h (1 Bft) N-NO 30 2 min 0,000 mm 3,5 UV-I 647 W/m 17,7 C 26,7 C 6,4 km/h (2 Bft) 100,00 %
30.08.2017 15:16 26,7 C 23,9 C 59 % 1012,0 hPa 0,0 l/m 0,7 km/h (0 Bft) N-NO 30 2 min 0,000 mm 3,5 UV-I 643 W/m 18,0 C 26,7 C 3,2 km/h (1 Bft) 100,00 %
30.08.2017 15:18 26,9 C 23,9 C 56 % 1012,0 hPa 0,0 l/m 4,8 km/h (1 Bft) O-NO 59 2 min 0,000 mm 3,4 UV-I 639 W/m 17,4 C 26,9 C 9,7 km/h (2 Bft) 100,00 %
30.08.2017 15:20 27,0 C 23,9 C 54 % 1012,0 hPa 0,0 l/m 11,0 km/h (2 Bft) NO 46 2 min 0,000 mm 3,4 UV-I 637 W/m 16,9 C 26,2 C 14,5 km/h (3 Bft) 100,00 %
30.08.2017 15:22 27,2 C 23,9 C 56 % 1012,0 hPa 0,0 l/m 9,3 km/h (2 Bft) O-NO 71 2 min 0,000 mm 3,4 UV-I 634 W/m 17,6 C 26,7 C 12,9 km/h (3 Bft) 100,00 %
30.08.2017 15:24 27,2 C 23,9 C 55 % 1012,0 hPa 0,0 l/m 7,1 km/h (2 Bft) O-NO 71 2 min 0,000 mm 3,3 UV-I 629 W/m 17,4 C 27,1 C 9,7 km/h (2 Bft) 100,00 %
30.08.2017 15:26 27,2 C 23,9 C 52 % 1012,0 hPa 0,0 l/m 6,5 km/h (2 Bft) O-NO 60 2 min 0,000 mm 3,3 UV-I 626 W/m 16,5 C 27,2 C 9,7 km/h (2 Bft) 100,00 %
30.08.2017 15:28 27,2 C 23,9 C 56 % 1012,0 hPa 0,0 l/m 5,1 km/h (1 Bft) NO 36 2 min 0,000 mm 3,2 UV-I 621 W/m 17,6 C 27,2 C 8,0 km/h (2 Bft) 95,74 %
30.08.2017 15:30 27,2 C 23,9 C 57 % 1012,0 hPa 0,0 l/m 7,3 km/h (2 Bft) NO 36 2 min 0,000 mm 3,2 UV-I 618 W/m 17,9 C 27,0 C 9,7 km/h (2 Bft) 100,00 %
30.08.2017 15:32 27,1 C 23,9 C 55 % 1012,0 hPa 0,0 l/m 6,0 km/h (2 Bft) O-NO 57 2 min 0,000 mm 3,2 UV-I 614 W/m 17,3 C 27,1 C 9,7 km/h (2 Bft) 100,00 %
30.08.2017 15:34 27,2 C 23,9 C 54 % 1012,0 hPa 0,0 l/m 9,1 km/h (2 Bft) O-NO 58 2 min 0,000 mm 3,1 UV-I 609 W/m 17,1 C 26,7 C 14,5 km/h (3 Bft) 95,24 %
30.08.2017 15:36 27,3 C 23,9 C 52 % 1011,9 hPa 0,0 l/m 7,5 km/h (2 Bft) O-NO 78 2 min 0,000 mm 3,1 UV-I 605 W/m 16,6 C 27,1 C 9,7 km/h (2 Bft) 96,36 %
30.08.2017 15:38 27,3 C 23,9 C 54 % 1011,9 hPa 0,0 l/m 8,2 km/h (2 Bft) NO 55 2 min 0,000 mm 3,1 UV-I 602 W/m 17,2 C 27,0 C 12,9 km/h (3 Bft) 100,00 %
30.08.2017 15:40 27,3 C 23,9 C 58 % 1011,8 hPa 0,0 l/m 7,0 km/h (2 Bft) NO 47 2 min 0,000 mm 3,0 UV-I 596 W/m 18,3 C 27,2 C 11,3 km/h (2 Bft) 96,23 %
30.08.2017 15:42 27,3 C 23,9 C 60 % 1011,8 hPa 0,0 l/m 3,7 km/h (1 Bft) N 9 2 min 0,000 mm 3,0 UV-I 593 W/m 18,8 C 27,3 C 6,4 km/h (2 Bft) 97,14 %
30.08.2017 15:44 27,2 C 23,9 C 57 % 1011,8 hPa 0,0 l/m 3,9 km/h (1 Bft) N-NO 17 2 min 0,000 mm 2,9 UV-I 590 W/m 17,9 C 27,2 C 6,4 km/h (2 Bft) 98,25 %
30.08.2017 15:46 27,3 C 24,4 C 55 % 1011,8 hPa 0,0 l/m 11,8 km/h (2 Bft) NO 53 2 min 0,000 mm 2,9 UV-I 585 W/m 17,4 C 26,5 C 17,7 km/h (3 Bft) 98,11 %
30.08.2017 15:48 27,4 C 24,4 C 55 % 1011,8 hPa 0,0 l/m 9,1 km/h (2 Bft) NO 46 2 min 0,000 mm 2,8 UV-I 579 W/m 17,5 C 26,9 C 14,5 km/h (3 Bft) 97,37 %
30.08.2017 15:50 27,4 C 24,4 C 54 % 1011,8 hPa 0,0 l/m 8,8 km/h (2 Bft) NO 34 2 min 0,000 mm 2,8 UV-I 575 W/m 17,3 C 27,0 C 12,9 km/h (3 Bft) 98,00 %
30.08.2017 15:52 27,3 C 24,4 C 55 % 1011,8 hPa 0,0 l/m 8,0 km/h (2 Bft) NO 44 2 min 0,000 mm 2,7 UV-I 571 W/m 17,4 C 27,0 C 9,7 km/h (2 Bft) 97,73 %
30.08.2017 15:54 27,4 C 24,4 C 55 % 1011,7 hPa 0,0 l/m 8,6 km/h (2 Bft) O-NO 67 2 min 0,000 mm 2,7 UV-I 566 W/m 17,5 C 27,0 C 16,1 km/h (3 Bft) 94,00 %
30.08.2017 15:56 27,4 C 24,4 C 54 % 1011,7 hPa 0,0 l/m 6,5 km/h (2 Bft) O-NO 62 2 min 0,000 mm 2,7 UV-I 562 W/m 17,3 C 27,4 C 9,7 km/h (2 Bft) 96,00 %
30.08.2017 15:58 27,5 C 24,4 C 53 % 1011,6 hPa 0,0 l/m 8,7 km/h (2 Bft) NO 36 2 min 0,000 mm 2,6 UV-I 557 W/m 17,0 C 27,1 C 14,5 km/h (3 Bft) 97,87 %
30.08.2017 16:00 27,7 C 24,4 C 52 % 1011,6 hPa 0,0 l/m 7,2 km/h (2 Bft) O-NO 65 2 min 0,457 mm 2,6 UV-I 553 W/m 16,9 C 27,6 C 11,3 km/h (2 Bft) 97,50 %
30.08.2017 16:02 27,7 C 24,4 C 52 % 1011,6 hPa 0,0 l/m 9,8 km/h (2 Bft) O 82 2 min 0,000 mm 2,5 UV-I 548 W/m 16,9 C 27,2 C 14,5 km/h (3 Bft) 98,00 %
30.08.2017 16:04 27,7 C 24,4 C 50 % 1011,6 hPa 0,0 l/m 8,9 km/h (2 Bft) O-NO 77 2 min 0,000 mm 2,5 UV-I 543 W/m 16,3 C 27,3 C 14,5 km/h (3 Bft) 98,11 %
30.08.2017 16:06 27,7 C 24,4 C 52 % 1011,6 hPa 0,0 l/m 8,7 km/h (2 Bft) NO 54 2 min 0,000 mm 2,4 UV-I 537 W/m 16,9 C 27,3 C 14,5 km/h (3 Bft) 100,00 %
30.08.2017 16:08 27,8 C 24,4 C 54 % 1011,6 hPa 0,0 l/m 7,9 km/h (2 Bft) O 82 2 min 0,000 mm 2,4 UV-I 533 W/m 17,6 C 27,6 C 12,9 km/h (3 Bft) 100,00 %
30.08.2017 16:10 27,8 C 24,4 C 52 % 1011,6 hPa 0,0 l/m 6,4 km/h (2 Bft) O 96 2 min 0,000 mm 2,4 UV-I 530 W/m 17,0 C 27,8 C 9,7 km/h (2 Bft) 100,00 %
30.08.2017 16:12 27,8 C 24,4 C 53 % 1011,6 hPa 0,0 l/m 6,9 km/h (2 Bft) O-NO 68 2 min 0,000 mm 2,3 UV-I 524 W/m 17,3 C 27,7 C 9,7 km/h (2 Bft) 100,00 %
30.08.2017 16:14 27,8 C 24,4 C 53 % 1011,6 hPa 0,0 l/m 6,6 km/h (2 Bft) O-NO 65 2 min 0,000 mm 2,3 UV-I 519 W/m 17,3 C 27,8 C 11,3 km/h (2 Bft) 98,00 %
30.08.2017 16:16 27,8 C 24,4 C 51 % 1011,6 hPa 0,0 l/m 5,7 km/h (1 Bft) NO 48 2 min 0,000 mm 2,2 UV-I 514 W/m 16,7 C 27,8 C 8,0 km/h (2 Bft) 100,00 %
30.08.2017 16:18 27,7 C 24,4 C 54 % 1011,6 hPa 0,0 l/m 5,2 km/h (1 Bft) N-NO 29 2 min 0,000 mm 2,2 UV-I 508 W/m 17,5 C 27,7 C 9,7 km/h (2 Bft) 100,00 %
30.08.2017 16:20 27,8 C 24,4 C 53 % 1011,6 hPa 0,0 l/m 7,6 km/h (2 Bft) NO 44 2 min 0,000 mm 2,2 UV-I 503 W/m 17,3 C 27,6 C 14,5 km/h (3 Bft) 100,00 %
30.08.2017 16:22 27,8 C 24,4 C 55 % 1011,6 hPa 0,0 l/m 8,8 km/h (2 Bft) NO 46 2 min 0,000 mm 2,1 UV-I 498 W/m 17,9 C 27,4 C 11,3 km/h (2 Bft) 100,00 %
30.08.2017 16:24 27,8 C 24,4 C 51 % 1011,5 hPa 0,0 l/m 5,3 km/h (1 Bft) NO 34 2 min 0,000 mm 2,1 UV-I 484 W/m 16,7 C 27,8 C 9,7 km/h (2 Bft) 100,00 %
30.08.2017 16:26 27,7 C 24,4 C 52 % 1011,5 hPa 0,0 l/m 4,1 km/h (1 Bft) NO 54 2 min 0,000 mm 2,0 UV-I 478 W/m 16,9 C 27,7 C 8,0 km/h (2 Bft) 100,00 %
30.08.2017 16:28 27,8 C 24,4 C 52 % 1011,4 hPa 0,0 l/m 7,2 km/h (2 Bft) O 96 2 min 0,000 mm 2,0 UV-I 478 W/m 17,0 C 27,7 C 12,9 km/h (3 Bft) 100,00 %
30.08.2017 16:30 27,9 C 24,4 C 51 % 1011,4 hPa 0,0 l/m 5,3 km/h (1 Bft) NO 36 2 min 0,000 mm 1,9 UV-I 472 W/m 16,8 C 27,9 C 11,3 km/h (2 Bft) 98,00 %
30.08.2017 16:32 27,9 C 24,4 C 51 % 1011,4 hPa 0,0 l/m 10,2 km/h (2 Bft) NO 38 2 min 0,000 mm 1,9 UV-I 454 W/m 16,8 C 27,3 C 14,5 km/h (3 Bft) 100,00 %
30.08.2017 16:34 27,8 C 24,4 C 52 % 1011,4 hPa 0,0 l/m 5,0 km/h (1 Bft) N-NO 31 2 min 0,000 mm 1,8 UV-I 442 W/m 17,0 C 27,8 C 9,7 km/h (2 Bft) 100,00 %
30.08.2017 16:36 27,8 C 24,4 C 52 % 1011,4 hPa 0,0 l/m 8,4 km/h (2 Bft) NO 50 2 min 0,000 mm 1,8 UV-I 452 W/m 17,0 C 27,5 C 11,3 km/h (2 Bft) 100,00 %
30.08.2017 16:38 27,8 C 24,4 C 50 % 1011,3 hPa 0,0 l/m 7,6 km/h (2 Bft) N-NO 32 2 min 0,000 mm 1,8 UV-I 450 W/m 16,4 C 27,6 C 9,7 km/h (2 Bft) 100,00 %
30.08.2017 16:40 27,8 C 24,4 C 52 % 1011,3 hPa 0,0 l/m 9,2 km/h (2 Bft) O-NO 74 2 min 0,000 mm 1,7 UV-I 448 W/m 17,0 C 27,4 C 16,1 km/h (3 Bft) 100,00 %
30.08.2017 16:42 27,9 C 24,4 C 48 % 1011,3 hPa 0,0 l/m 7,7 km/h (2 Bft) O-NO 71 2 min 0,000 mm 1,7 UV-I 443 W/m 15,9 C 27,7 C 12,9 km/h (3 Bft) 100,00 %
30.08.2017 16:44 27,9 C 24,4 C 51 % 1011,4 hPa 0,0 l/m 5,9 km/h (2 Bft) O-NO 78 2 min 0,000 mm 1,7 UV-I 435 W/m 16,8 C 27,9 C 11,3 km/h (2 Bft) 100,00 %
30.08.2017 16:46 27,9 C 24,4 C 49 % 1011,3 hPa 0,0 l/m 6,2 km/h (2 Bft) NO 39 2 min 0,000 mm 1,6 UV-I 430 W/m 16,2 C 27,9 C 8,0 km/h (2 Bft) 98,21 %
30.08.2017 16:48 27,9 C 24,4 C 49 % 1011,3 hPa 0,0 l/m 6,9 km/h (2 Bft) NO 46 2 min 0,000 mm 1,6 UV-I 426 W/m 16,2 C 27,8 C 11,3 km/h (2 Bft) 100,00 %
30.08.2017 16:50 27,9 C 24,4 C 50 % 1011,3 hPa 0,0 l/m 7,0 km/h (2 Bft) NO 44 2 min 0,000 mm 1,5 UV-I 418 W/m 16,5 C 27,8 C 11,3 km/h (2 Bft) 98,11 %
30.08.2017 16:52 27,9 C 24,4 C 51 % 1011,3 hPa 0,0 l/m 7,6 km/h (2 Bft) O-NO 59 2 min 0,000 mm 1,5 UV-I 415 W/m 16,8 C 27,7 C 12,9 km/h (3 Bft) 97,62 %
30.08.2017 16:54 27,8 C 24,4 C 52 % 1011,3 hPa 0,0 l/m 8,8 km/h (2 Bft) NO 46 2 min 0,000 mm 1,5 UV-I 407 W/m 17,0 C 27,4 C 12,9 km/h (3 Bft) 100,00 %
30.08.2017 16:56 27,8 C 24,4 C 53 % 1011,3 hPa 0,0 l/m 8,8 km/h (2 Bft) NO 46 2 min 0,000 mm 1,5 UV-I 399 W/m 17,3 C 27,4 C 12,9 km/h (3 Bft) 100,00 %
30.08.2017 16:58 27,8 C 24,4 C 52 % 1011,2 hPa 0,0 l/m 9,6 km/h (2 Bft) NO 44 2 min 0,000 mm 1,4 UV-I 393 W/m 17,0 C 27,3 C 12,9 km/h (3 Bft) 100,00 %
30.08.2017 17:00 27,8 C 24,4 C 48 % 1011,2 hPa 0,0 l/m 7,9 km/h (2 Bft) NO 51 2 min 0,000 mm 1,4 UV-I 387 W/m 15,8 C 27,6 C 14,5 km/h (3 Bft) 98,00 %
30.08.2017 17:02 27,9 C 24,4 C 48 % 1011,2 hPa 0,0 l/m 5,8 km/h (2 Bft) O-NO 75 2 min 0,355 mm 1,3 UV-I 380 W/m 15,9 C 27,9 C 9,7 km/h (2 Bft) 100,00 %
30.08.2017 17:04 28,0 C 24,4 C 46 % 1011,2 hPa 0,0 l/m 7,4 km/h (2 Bft) NO 49 2 min 0,000 mm 1,3 UV-I 373 W/m 15,3 C 27,8 C 12,9 km/h (3 Bft) 100,00 %
30.08.2017 17:06 28,1 C 24,4 C 46 % 1011,2 hPa 0,0 l/m 10,3 km/h (2 Bft) O 80 2 min 0,000 mm 1,3 UV-I 368 W/m 15,4 C 27,6 C 14,5 km/h (3 Bft) 100,00 %
30.08.2017 17:08 28,0 C 24,4 C 46 % 1011,1 hPa 0,0 l/m 7,6 km/h (2 Bft) O-NO 62 2 min 0,000 mm 1,2 UV-I 363 W/m 15,3 C 27,8 C 12,9 km/h (3 Bft) 100,00 %
30.08.2017 17:10 28,0 C 24,4 C 46 % 1011,1 hPa 0,0 l/m 5,4 km/h (1 Bft) O-NO 69 2 min 0,000 mm 1,2 UV-I 358 W/m 15,3 C 28,0 C 12,9 km/h (3 Bft) 100,00 %
30.08.2017 17:12 28,1 C 24,4 C 47 % 1011,0 hPa 0,0 l/m 5,9 km/h (2 Bft) O-NO 66 2 min 0,000 mm 1,2 UV-I 354 W/m 15,7 C 28,1 C 8,0 km/h (2 Bft) 100,00 %
30.08.2017 17:14 28,0 C 24,4 C 51 % 1011,0 hPa 0,0 l/m 6,3 km/h (2 Bft) NO 53 2 min 0,000 mm 1,1 UV-I 348 W/m 16,9 C 28,0 C 9,7 km/h (2 Bft) 100,00 %
30.08.2017 17:16 27,9 C 24,4 C 50 % 1011,0 hPa 0,0 l/m 9,2 km/h (2 Bft) N-NO 32 2 min 0,000 mm 1,1 UV-I 343 W/m 16,5 C 27,5 C 14,5 km/h (3 Bft) 100,00 %
30.08.2017 17:18 27,8 C 24,4 C 53 % 1011,0 hPa 0,0 l/m 8,0 km/h (2 Bft) O-NO 65 2 min 0,000 mm 1,1 UV-I 337 W/m 17,3 C 27,5 C 11,3 km/h (2 Bft) 97,87 %
30.08.2017 17:20 27,8 C 24,4 C 48 % 1011,0 hPa 0,0 l/m 6,4 km/h (2 Bft) NO 46 2 min 0,000 mm 1,0 UV-I 331 W/m 15,8 C 27,8 C 11,3 km/h (2 Bft) 97,87 %
30.08.2017 17:22 27,9 C 24,4 C 51 % 1011,0 hPa 0,0 l/m 6,8 km/h (2 Bft) O-NO 63 2 min 0,000 mm 1,0 UV-I 325 W/m 16,8 C 27,8 C 9,7 km/h (2 Bft) 97,87 %
30.08.2017 17:24 27,9 C 24,4 C 48 % 1011,0 hPa 0,0 l/m 6,1 km/h (2 Bft) O 93 2 min 0,000 mm 1,0 UV-I 322 W/m 15,9 C 27,9 C 11,3 km/h (2 Bft) 91,49 %
30.08.2017 17:26 27,9 C 24,4 C 49 % 1011,0 hPa 0,0 l/m 8,7 km/h (2 Bft) O-NO 57 2 min 0,000 mm 1,0 UV-I 313 W/m 16,2 C 27,5 C 14,5 km/h (3 Bft) 94,34 %
30.08.2017 17:28 28,0 C 24,4 C 47 % 1011,0 hPa 0,0 l/m 6,1 km/h (2 Bft) O-NO 60 2 min 0,000 mm 0,9 UV-I 308 W/m 15,6 C 28,0 C 11,3 km/h (2 Bft) 95,12 %
30.08.2017 17:30 28,1 C 24,4 C 45 % 1011,0 hPa 0,0 l/m 5,6 km/h (1 Bft) O-NO 63 2 min 0,000 mm 0,9 UV-I 302 W/m 15,0 C 28,1 C 8,0 km/h (2 Bft) 96,23 %
30.08.2017 17:32 28,1 C 24,4 C 46 % 1010,9 hPa 0,0 l/m 6,1 km/h (2 Bft) NO 56 2 min 0,000 mm 0,9 UV-I 296 W/m 15,4 C 28,1 C 8,0 km/h (2 Bft) 94,87 %
30.08.2017 17:34 28,0 C 24,4 C 48 % 1010,9 hPa 0,0 l/m 4,8 km/h (1 Bft) NO 46 2 min 0,000 mm 0,8 UV-I 291 W/m 15,9 C 28,0 C 8,0 km/h (2 Bft) 95,74 %
30.08.2017 17:36 28,0 C 24,4 C 49 % 1010,9 hPa 0,0 l/m 4,2 km/h (1 Bft) NO 53 2 min 0,000 mm 0,8 UV-I 286 W/m 16,3 C 28,0 C 6,4 km/h (2 Bft) 93,62 %
30.08.2017 17:38 28,1 C 24,4 C 48 % 1010,9 hPa 0,0 l/m 4,5 km/h (1 Bft) NO 48 2 min 0,000 mm 0,8 UV-I 279 W/m 16,0 C 28,1 C 6,4 km/h (2 Bft) 95,74 %
30.08.2017 17:40 28,0 C 24,4 C 49 % 1010,8 hPa 0,0 l/m 7,8 km/h (2 Bft) NO 46 2 min 0,000 mm 0,8 UV-I 274 W/m 16,3 C 27,8 C 12,9 km/h (3 Bft) 97,56 %
30.08.2017 17:42 27,9 C 24,4 C 47 % 1010,8 hPa 0,0 l/m 8,6 km/h (2 Bft) O 80 2 min 0,000 mm 0,7 UV-I 266 W/m 15,5 C 27,6 C 12,9 km/h (3 Bft) 92,86 %
30.08.2017 17:44 27,9 C 24,4 C 46 % 1010,8 hPa 0,0 l/m 7,7 km/h (2 Bft) NO 49 2 min 0,000 mm 0,7 UV-I 261 W/m 15,2 C 27,7 C 11,3 km/h (2 Bft) 94,74 %
30.08.2017 17:46 27,9 C 24,4 C 45 % 1010,8 hPa 0,0 l/m 6,4 km/h (2 Bft) O-NO 61 2 min 0,000 mm 0,7 UV-I 256 W/m 14,8 C 27,9 C 9,7 km/h (2 Bft) 94,92 %
30.08.2017 17:48 27,9 C 24,4 C 46 % 1010,8 hPa 0,0 l/m 7,3 km/h (2 Bft) NO 47 2 min 0,000 mm 0,7 UV-I 250 W/m 15,2 C 27,8 C 11,3 km/h (2 Bft) 95,12 %
30.08.2017 17:50 27,9 C 24,4 C 48 % 1010,8 hPa 0,0 l/m 6,4 km/h (2 Bft) O-NO 69 2 min 0,000 mm 0,6 UV-I 244 W/m 15,9 C 27,9 C 11,3 km/h (2 Bft) 96,00 %
30.08.2017 17:52 27,9 C 24,4 C 49 % 1010,8 hPa 0,0 l/m 5,6 km/h (1 Bft) NO 43 2 min 0,000 mm 0,6 UV-I 238 W/m 16,2 C 27,9 C 9,7 km/h (2 Bft) 96,00 %
30.08.2017 17:54 27,8 C 24,4 C 49 % 1010,8 hPa 0,0 l/m 6,3 km/h (2 Bft) NO 36 2 min 0,000 mm 0,6 UV-I 233 W/m 16,1 C 27,8 C 9,7 km/h (2 Bft) 94,74 %
30.08.2017 17:56 27,6 C 24,4 C 50 % 1010,8 hPa 0,0 l/m 4,0 km/h (1 Bft) NO 46 2 min 0,000 mm 0,6 UV-I 227 W/m 16,2 C 27,6 C 6,4 km/h (2 Bft) 98,00 %
30.08.2017 17:58 27,5 C 24,4 C 47 % 1010,8 hPa 0,0 l/m 5,5 km/h (1 Bft) NO 51 2 min 0,000 mm 0,5 UV-I 221 W/m 15,2 C 27,5 C 8,0 km/h (2 Bft) 96,23 %
30.08.2017 18:00 27,6 C 24,4 C 48 % 1010,8 hPa 0,0 l/m 4,7 km/h (1 Bft) NO 38 2 min 0,000 mm 0,5 UV-I 216 W/m 15,6 C 27,6 C 6,4 km/h (2 Bft) 95,45 %
30.08.2017 18:02 27,5 C 24,4 C 50 % 1010,8 hPa 0,0 l/m 4,5 km/h (1 Bft) NO 47 2 min 0,254 mm 0,5 UV-I 209 W/m 16,1 C 27,5 C 6,4 km/h (2 Bft) 97,73 %
30.08.2017 18:04 27,4 C 24,4 C 50 % 1010,8 hPa 0,0 l/m 5,1 km/h (1 Bft) NO 42 2 min 0,000 mm 0,5 UV-I 204 W/m 16,0 C 27,4 C 6,4 km/h (2 Bft) 97,56 %
30.08.2017 18:06 27,4 C 24,4 C 50 % 1010,8 hPa 0,0 l/m 3,5 km/h (1 Bft) NO 42 2 min 0,000 mm 0,5 UV-I 198 W/m 16,0 C 27,4 C 6,4 km/h (2 Bft) 96,23 %
30.08.2017 18:08 27,3 C 24,4 C 51 % 1010,8 hPa 0,0 l/m 4,5 km/h (1 Bft) O-NO 59 2 min 0,000 mm 0,0 UV-I 192 W/m 16,3 C 27,3 C 6,4 km/h (2 Bft) 97,44 %
30.08.2017 18:10 27,2 C 24,4 C 52 % 1010,7 hPa 0,0 l/m 4,0 km/h (1 Bft) O-NO 59 2 min 0,000 mm 0,0 UV-I 187 W/m 16,5 C 27,2 C 6,4 km/h (2 Bft) 98,00 %
30.08.2017 18:12 27,2 C 24,4 C 53 % 1010,7 hPa 0,0 l/m 3,9 km/h (1 Bft) O-NO 59 2 min 0,000 mm 0,0 UV-I 183 W/m 16,8 C 27,2 C 4,8 km/h (1 Bft) 98,00 %
30.08.2017 18:14 27,1 C 24,4 C 51 % 1010,7 hPa 0,0 l/m 5,7 km/h (1 Bft) NO 49 2 min 0,000 mm 0,0 UV-I 177 W/m 16,1 C 27,1 C 9,7 km/h (2 Bft) 97,14 %
30.08.2017 18:16 27,0 C 24,4 C 52 % 1010,7 hPa 0,0 l/m 4,7 km/h (1 Bft) NO 39 2 min 0,000 mm 0,0 UV-I 171 W/m 16,3 C 27,0 C 6,4 km/h (2 Bft) 96,92 %
30.08.2017 18:18 26,9 C 24,4 C 50 % 1010,7 hPa 0,0 l/m 6,1 km/h (2 Bft) O-NO 66 2 min 0,000 mm 0,0 UV-I 166 W/m 15,6 C 26,9 C 8,0 km/h (2 Bft) 95,74 %
30.08.2017 18:20 27,1 C 24,4 C 50 % 1010,6 hPa 0,0 l/m 6,0 km/h (2 Bft) NO 52 2 min 0,000 mm 0,0 UV-I 161 W/m 15,8 C 27,1 C 9,7 km/h (2 Bft) 100,00 %
30.08.2017 18:22 27,2 C 24,4 C 50 % 1010,6 hPa 0,0 l/m 6,5 km/h (2 Bft) O-NO 57 2 min 0,000 mm 0,0 UV-I 155 W/m 15,9 C 27,2 C 9,7 km/h (2 Bft) 97,92 %
30.08.2017 18:24 27,2 C 24,4 C 50 % 1010,6 hPa 0,0 l/m 6,3 km/h (2 Bft) O-NO 63 2 min 0,000 mm 0,0 UV-I 150 W/m 15,9 C 27,2 C 9,7 km/h (2 Bft) 100,00 %
30.08.2017 18:26 27,2 C 24,4 C 51 % 1010,6 hPa 0,0 l/m 5,8 km/h (2 Bft) NO 55 2 min 0,000 mm 0,0 UV-I 146 W/m 16,2 C 27,2 C 11,3 km/h (2 Bft) 97,87 %
30.08.2017 18:28 27,1 C 24,4 C 54 % 1010,6 hPa 0,0 l/m 4,5 km/h (1 Bft) O-NO 65 2 min 0,000 mm 0,0 UV-I 141 W/m 17,0 C 27,1 C 6,4 km/h (2 Bft) 100,00 %
30.08.2017 18:30 27,0 C 24,4 C 53 % 1010,6 hPa 0,0 l/m 5,1 km/h (1 Bft) O-NO 66 2 min 0,000 mm 0,0 UV-I 134 W/m 16,6 C 27,0 C 6,4 km/h (2 Bft) 100,00 %
30.08.2017 18:32 26,9 C 24,4 C 55 % 1010,5 hPa 0,0 l/m 4,5 km/h (1 Bft) NO 55 2 min 0,000 mm 0,0 UV-I 123 W/m 17,1 C 26,9 C 6,4 km/h (2 Bft) 100,00 %
30.08.2017 18:34 26,8 C 24,4 C 55 % 1010,4 hPa 0,0 l/m 3,5 km/h (1 Bft) NO 54 2 min 0,000 mm 0,0 UV-I 121 W/m 17,0 C 26,8 C 6,4 km/h (2 Bft) 100,00 %
30.08.2017 18:36 26,7 C 24,4 C 54 % 1010,4 hPa 0,0 l/m 3,8 km/h (1 Bft) NO 54 2 min 0,000 mm 0,0 UV-I 120 W/m 16,6 C 26,7 C 4,8 km/h (1 Bft) 98,00 %
30.08.2017 18:38 26,6 C 24,4 C 55 % 1010,4 hPa 0,0 l/m 3,8 km/h (1 Bft) NO 54 2 min 0,000 mm 0,0 UV-I 118 W/m 16,8 C 26,6 C 6,4 km/h (2 Bft) 100,00 %
30.08.2017 18:40 26,5 C 24,4 C 56 % 1010,3 hPa 0,0 l/m 3,9 km/h (1 Bft) NO 54 2 min 0,000 mm 0,0 UV-I 112 W/m 17,0 C 26,5 C 4,8 km/h (1 Bft) 100,00 %
30.08.2017 18:42 26,5 C 24,4 C 55 % 1010,3 hPa 0,0 l/m 4,6 km/h (1 Bft) O-NO 59 2 min 0,000 mm 0,0 UV-I 107 W/m 16,7 C 26,5 C 6,4 km/h (2 Bft) 97,87 %
30.08.2017 18:44 26,4 C 24,4 C 57 % 1010,3 hPa 0,0 l/m 4,1 km/h (1 Bft) O-NO 63 2 min 0,000 mm 0,0 UV-I 104 W/m 17,2 C 26,4 C 4,8 km/h (1 Bft) 100,00 %
30.08.2017 18:46 26,3 C 24,4 C 56 % 1010,3 hPa 0,0 l/m 4,5 km/h (1 Bft) O-NO 69 2 min 0,000 mm 0,0 UV-I 98 W/m 16,8 C 26,3 C 6,4 km/h (2 Bft) 98,21 %
30.08.2017 18:48 26,2 C 24,4 C 56 % 1010,3 hPa 0,0 l/m 4,6 km/h (1 Bft) O-NO 69 2 min 0,000 mm 0,0 UV-I 93 W/m 16,7 C 26,2 C 6,4 km/h (2 Bft) 100,00 %
30.08.2017 18:50 26,2 C 24,4 C 55 % 1010,3 hPa 0,0 l/m 5,2 km/h (1 Bft) O-NO 75 2 min 0,000 mm 0,0 UV-I 90 W/m 16,4 C 26,2 C 6,4 km/h (2 Bft) 100,00 %
30.08.2017 18:52 26,1 C 24,4 C 55 % 1010,2 hPa 0,0 l/m 5,6 km/h (1 Bft) O 81 2 min 0,000 mm 0,0 UV-I 85 W/m 16,3 C 26,1 C 8,0 km/h (2 Bft) 100,00 %
30.08.2017 18:54 26,1 C 24,4 C 55 % 1010,2 hPa 0,0 l/m 5,3 km/h (1 Bft) O 84 2 min 0,000 mm 0,0 UV-I 80 W/m 16,3 C 26,1 C 8,0 km/h (2 Bft) 100,00 %
30.08.2017 18:56 25,9 C 24,4 C 54 % 1010,2 hPa 0,0 l/m 7,3 km/h (2 Bft) O-NO 78 2 min 0,000 mm 0,0 UV-I 76 W/m 15,9 C 25,7 C 11,3 km/h (2 Bft) 95,12 %
30.08.2017 18:58 25,9 C 24,4 C 54 % 1010,2 hPa 0,0 l/m 5,7 km/h (1 Bft) O-NO 70 2 min 0,000 mm 0,0 UV-I 73 W/m 15,9 C 25,9 C 8,0 km/h (2 Bft) 100,00 %
30.08.2017 19:00 25,8 C 24,4 C 55 % 1010,2 hPa 0,0 l/m 4,6 km/h (1 Bft) O-NO 61 0 min 0,127 mm 0,0 UV-I 68 W/m 16,1 C 25,8 C 6,4 km/h (2 Bft) 100,00 %
30.08.2017 19:02 25,7 C 24,4 C 56 % 1010,2 hPa 0,0 l/m 5,3 km/h (1 Bft) O-NO 74 0 min 0,000 mm 0,0 UV-I 63 W/m 16,2 C 25,7 C 6,4 km/h (2 Bft) 100,00 %
30.08.2017 19:04 25,7 C 24,4 C 55 % 1010,2 hPa 0,0 l/m 3,0 km/h (1 Bft) O-NO 74 0 min 0,000 mm 0,0 UV-I 59 W/m 16,0 C 25,7 C 4,8 km/h (1 Bft) 100,00 %
30.08.2017 19:06 25,6 C 24,4 C 55 % 1010,3 hPa 0,0 l/m 2,9 km/h (1 Bft) O-NO 74 0 min 0,000 mm 0,0 UV-I 55 W/m 15,9 C 25,6 C 4,8 km/h (1 Bft) 100,00 %
30.08.2017 19:08 25,4 C 24,4 C 56 % 1010,2 hPa 0,0 l/m 3,6 km/h (1 Bft) O-NO 74 0 min 0,000 mm 0,0 UV-I 52 W/m 16,0 C 25,4 C 4,8 km/h (1 Bft) 98,00 %
30.08.2017 19:10 25,4 C 24,4 C 56 % 1010,3 hPa 0,0 l/m 5,0 km/h (1 Bft) O 80 0 min 0,000 mm 0,0 UV-I 48 W/m 16,0 C 25,4 C 8,0 km/h (2 Bft) 100,00 %
30.08.2017 19:12 25,3 C 24,4 C 56 % 1010,3 hPa 0,0 l/m 4,2 km/h (1 Bft) O-NO 78 0 min 0,000 mm 0,0 UV-I 45 W/m 15,9 C 25,3 C 6,4 km/h (2 Bft) 98,00 %
30.08.2017 19:14 25,3 C 24,4 C 56 % 1010,3 hPa 0,0 l/m 4,4 km/h (1 Bft) O 81 0 min 0,000 mm 0,0 UV-I 42 W/m 15,9 C 25,3 C 6,4 km/h (2 Bft) 98,00 %
30.08.2017 19:16 25,2 C 24,4 C 56 % 1010,3 hPa 0,0 l/m 3,2 km/h (1 Bft) O 81 0 min 0,000 mm 0,0 UV-I 36 W/m 15,8 C 25,2 C 6,4 km/h (2 Bft) 97,37 %
30.08.2017 19:18 25,1 C 24,4 C 57 % 1010,3 hPa 0,0 l/m 2,0 km/h (1 Bft) O 81 0 min 0,000 mm 0,0 UV-I 31 W/m 16,0 C 25,1 C 4,8 km/h (1 Bft) 98,00 %
30.08.2017 19:20 25,0 C 24,4 C 58 % 1010,3 hPa 0,0 l/m 1,6 km/h (1 Bft) O 81 0 min 0,000 mm 0,0 UV-I 28 W/m 16,1 C 25,0 C 4,8 km/h (1 Bft) 98,11 %
30.08.2017 19:23 24,8 C 24,4 C 58 % 1010,4 hPa 0,0 l/m 3,6 km/h (1 Bft) O 81 0 min 0,000 mm 0,0 UV-I 26 W/m 16,0 C 24,8 C 6,4 km/h (2 Bft) 96,77 %
30.08.2017 19:24 24,8 C 24,4 C 58 % 1010,4 hPa 0,0 l/m 4,4 km/h (1 Bft) O 80 0 min 0,000 mm 0,0 UV-I 24 W/m 16,0 C 24,8 C 4,8 km/h (1 Bft) 96,15 %
30.08.2017 19:26 24,8 C 24,4 C 57 % 1010,3 hPa 0,0 l/m 3,6 km/h (1 Bft) O 80 0 min 0,000 mm 0,0 UV-I 21 W/m 15,7 C 24,8 C 6,4 km/h (2 Bft) 98,11 %
30.08.2017 19:28 24,8 C 24,4 C 57 % 1010,3 hPa 0,0 l/m 4,5 km/h (1 Bft) O-NO 70 0 min 0,000 mm 0,0 UV-I 18 W/m 15,7 C 24,8 C 6,4 km/h (2 Bft) 97,56 %
30.08.2017 19:30 24,8 C 24,4 C 58 % 1010,3 hPa 0,0 l/m 4,2 km/h (1 Bft) O-NO 70 0 min 0,000 mm 0,0 UV-I 16 W/m 16,0 C 24,8 C 6,4 km/h (2 Bft) 96,23 %
30.08.2017 19:32 24,7 C 24,4 C 59 % 1010,2 hPa 0,0 l/m 3,9 km/h (1 Bft) O 80 0 min 0,000 mm 0,0 UV-I 14 W/m 16,1 C 24,7 C 6,4 km/h (2 Bft) 97,22 %
30.08.2017 19:34 24,6 C 24,4 C 59 % 1010,2 hPa 0,0 l/m 5,0 km/h (1 Bft) O 85 0 min 0,000 mm 0,0 UV-I 13 W/m 16,0 C 24,6 C 8,0 km/h (2 Bft) 98,11 %
30.08.2017 19:36 24,5 C 24,4 C 59 % 1010,2 hPa 0,0 l/m 5,1 km/h (1 Bft) O 84 2 min 0,000 mm 0,0 UV-I 12 W/m 15,9 C 24,5 C 6,4 km/h (2 Bft) 91,49 %
30.08.2017 19:38 24,4 C 24,4 C 59 % 1010,2 hPa 0,0 l/m 4,3 km/h (1 Bft) O 84 2 min 0,000 mm 0,0 UV-I 12 W/m 15,9 C 24,4 C 6,4 km/h (2 Bft) 97,87 %
30.08.2017 19:40 24,4 C 24,4 C 60 % 1010,2 hPa 0,0 l/m 3,5 km/h (1 Bft) O 84 0 min 0,000 mm 0,0 UV-I 11 W/m 16,1 C 24,4 C 4,8 km/h (1 Bft) 96,23 %
30.08.2017 19:42 24,3 C 24,4 C 60 % 1010,1 hPa 0,0 l/m 4,9 km/h (1 Bft) O 87 0 min 0,000 mm 0,0 UV-I 9 W/m 16,0 C 24,3 C 8,0 km/h (2 Bft) 94,74 %
30.08.2017 19:44 24,2 C 24,4 C 61 % 1010,2 hPa 0,0 l/m 4,5 km/h (1 Bft) O 80 0 min 0,000 mm 0,0 UV-I 8 W/m 16,2 C 24,2 C 6,4 km/h (2 Bft) 98,00 %
30.08.2017 19:46 24,1 C 24,4 C 60 % 1010,1 hPa 0,0 l/m 4,4 km/h (1 Bft) O 85 0 min 0,000 mm 0,0 UV-I 7 W/m 15,8 C 24,1 C 6,4 km/h (2 Bft) 97,67 %
30.08.2017 19:48 24,1 C 24,4 C 61 % 1010,2 hPa 0,0 l/m 5,2 km/h (1 Bft) O 85 0 min 0,000 mm 0,0 UV-I 6 W/m 16,1 C 24,1 C 8,0 km/h (2 Bft) 100,00 %
30.08.2017 19:50 24,0 C 24,4 C 61 % 1010,2 hPa 0,0 l/m 5,4 km/h (1 Bft) O-NO 73 0 min 0,000 mm 0,0 UV-I 5 W/m 16,0 C 24,0 C 8,0 km/h (2 Bft) 100,00 %
30.08.2017 19:52 23,9 C 24,4 C 62 % 1010,2 hPa 0,0 l/m 3,8 km/h (1 Bft) O-NO 74 0 min 0,000 mm 0,0 UV-I 5 W/m 16,2 C 23,9 C 6,4 km/h (2 Bft) 100,00 %
30.08.2017 19:54 23,9 C 24,4 C 61 % 1010,2 hPa 0,0 l/m 3,7 km/h (1 Bft) O-NO 69 0 min 0,000 mm 0,0 UV-I 5 W/m 15,9 C 23,9 C 8,0 km/h (2 Bft) 100,00 %
30.08.2017 19:56 23,9 C 24,4 C 62 % 1010,2 hPa 0,0 l/m 4,6 km/h (1 Bft) O-NO 76 0 min 0,000 mm 0,0 UV-I 5 W/m 16,2 C 23,9 C 8,0 km/h (2 Bft) 98,00 %
30.08.2017 19:58 23,8 C 24,4 C 63 % 1010,2 hPa 0,0 l/m 4,8 km/h (1 Bft) O-NO 76 0 min 0,000 mm 0,0 UV-I 0 W/m 16,3 C 23,8 C 8,0 km/h (2 Bft) 97,56 %
30.08.2017 20:00 23,7 C 24,4 C 62 % 1010,2 hPa 0,0 l/m 4,8 km/h (1 Bft) O 80 0 min 0,051 mm 0,0 UV-I 0 W/m 16,0 C 23,7 C 6,4 km/h (2 Bft) 100,00 %
30.08.2017 20:02 23,7 C 24,4 C 63 % 1010,3 hPa 0,0 l/m 6,4 km/h (2 Bft) O 81 0 min 0,000 mm 0,0 UV-I 0 W/m 16,2 C 23,7 C 9,7 km/h (2 Bft) 100,00 %
30.08.2017 20:04 23,6 C 24,4 C 62 % 1010,3 hPa 0,0 l/m 4,9 km/h (1 Bft) O-NO 62 0 min 0,000 mm 0,0 UV-I 0 W/m 15,9 C 23,6 C 6,4 km/h (2 Bft) 100,00 %
30.08.2017 20:06 23,6 C 24,4 C 62 % 1010,3 hPa 0,0 l/m 3,9 km/h (1 Bft) O-NO 62 0 min 0,000 mm 0,0 UV-I 0 W/m 15,9 C 23,6 C 6,4 km/h (2 Bft) 100,00 %
30.08.2017 20:08 23,6 C 24,4 C 63 % 1010,3 hPa 0,0 l/m 3,0 km/h (1 Bft) O-NO 62 0 min 0,000 mm 0,0 UV-I 0 W/m 16,1 C 23,6 C 4,8 km/h (1 Bft) 100,00 %
30.08.2017 20:10 23,5 C 24,4 C 63 % 1010,3 hPa 0,0 l/m 2,5 km/h (1 Bft) O-NO 62 0 min 0,000 mm 0,0 UV-I 0 W/m 16,0 C 23,5 C 4,8 km/h (1 Bft) 100,00 %
30.08.2017 20:12 23,5 C 24,4 C 63 % 1010,3 hPa 0,0 l/m 4,4 km/h (1 Bft) O-NO 62 0 min 0,000 mm 0,0 UV-I 0 W/m 16,0 C 23,5 C 6,4 km/h (2 Bft) 100,00 %
30.08.2017 20:14 23,5 C 24,4 C 63 % 1010,3 hPa 0,0 l/m 4,1 km/h (1 Bft) O-NO 62 0 min 0,000 mm 0,0 UV-I 0 W/m 16,0 C 23,5 C 6,4 km/h (2 Bft) 97,87 %
30.08.2017 20:16 23,4 C 24,4 C 63 % 1010,3 hPa 0,0 l/m 3,5 km/h (1 Bft) O-NO 63 0 min 0,000 mm 0,0 UV-I 0 W/m 15,9 C 23,4 C 6,4 km/h (2 Bft) 100,00 %
30.08.2017 20:18 23,4 C 24,4 C 63 % 1010,3 hPa 0,0 l/m 3,9 km/h (1 Bft) O-NO 63 0 min 0,000 mm 0,0 UV-I 0 W/m 15,9 C 23,4 C 6,4 km/h (2 Bft) 100,00 %
30.08.2017 20:20 23,4 C 24,4 C 63 % 1010,2 hPa 0,0 l/m 4,0 km/h (1 Bft) O-NO 63 0 min 0,000 mm 0,0 UV-I 0 W/m 15,9 C 23,4 C 4,8 km/h (1 Bft) 97,87 %
30.08.2017 20:22 23,3 C 24,4 C 63 % 1010,2 hPa 0,0 l/m 4,0 km/h (1 Bft) O-NO 63 0 min 0,000 mm 0,0 UV-I 0 W/m 15,9 C 23,3 C 4,8 km/h (1 Bft) 97,56 %
30.08.2017 20:24 23,3 C 24,4 C 64 % 1010,1 hPa 0,0 l/m 3,1 km/h (1 Bft) O-NO 63 0 min 0,000 mm 0,0 UV-I 0 W/m 16,1 C 23,3 C 4,8 km/h (1 Bft) 100,00 %
30.08.2017 20:26 23,2 C 24,4 C 64 % 1010,2 hPa 0,0 l/m 2,8 km/h (1 Bft) O-NO 63 0 min 0,000 mm 0,0 UV-I 0 W/m 16,0 C 23,2 C 4,8 km/h (1 Bft) 100,00 %
30.08.2017 20:28 23,2 C 24,4 C 64 % 1010,2 hPa 0,0 l/m 3,3 km/h (1 Bft) O-NO 63 0 min 0,000 mm 0,0 UV-I 0 W/m 16,0 C 23,2 C 4,8 km/h (1 Bft) 100,00 %
30.08.2017 20:30 23,1 C 24,4 C 64 % 1010,1 hPa 0,0 l/m 5,0 km/h (1 Bft) O-NO 73 0 min 0,000 mm 0,0 UV-I 0 W/m 15,9 C 23,1 C 8,0 km/h (2 Bft) 100,00 %
30.08.2017 20:32 23,1 C 24,4 C 64 % 1010,1 hPa 0,0 l/m 4,9 km/h (1 Bft) NO 56 0 min 0,000 mm 0,0 UV-I 0 W/m 15,9 C 23,1 C 6,4 km/h (2 Bft) 100,00 %
30.08.2017 20:34 23,1 C 24,4 C 64 % 1010,2 hPa 0,0 l/m 3,8 km/h (1 Bft) O-NO 76 0 min 0,000 mm 0,0 UV-I 0 W/m 15,9 C 23,1 C 6,4 km/h (2 Bft) 100,00 %
30.08.2017 20:36 23,0 C 24,4 C 64 % 1010,2 hPa 0,0 l/m 6,3 km/h (2 Bft) O 96 0 min 0,000 mm 0,0 UV-I 0 W/m 15,8 C 23,0 C 9,7 km/h (2 Bft) 100,00 %
30.08.2017 20:38 23,0 C 24,4 C 64 % 1010,2 hPa 0,0 l/m 5,9 km/h (2 Bft) O 80 0 min 0,000 mm 0,0 UV-I 0 W/m 15,8 C 23,0 C 9,7 km/h (2 Bft) 100,00 %
30.08.2017 20:40 23,1 C 24,4 C 64 % 1010,2 hPa 0,0 l/m 6,1 km/h (2 Bft) O-NO 76 0 min 0,000 mm 0,0 UV-I 0 W/m 15,9 C 23,1 C 11,3 km/h (2 Bft) 100,00 %
30.08.2017 20:42 23,0 C 24,4 C 64 % 1010,2 hPa 0,0 l/m 4,5 km/h (1 Bft) O-NO 60 0 min 0,000 mm 0,0 UV-I 0 W/m 15,8 C 23,0 C 8,0 km/h (2 Bft) 100,00 %
30.08.2017 20:44 22,9 C 24,4 C 64 % 1010,3 hPa 0,0 l/m 5,4 km/h (1 Bft) O-NO 78 0 min 0,000 mm 0,0 UV-I 0 W/m 15,7 C 22,9 C 11,3 km/h (2 Bft) 100,00 %
30.08.2017 20:46 22,9 C 24,4 C 64 % 1010,3 hPa 0,0 l/m 5,5 km/h (1 Bft) O-NO 65 0 min 0,000 mm 0,0 UV-I 0 W/m 15,7 C 22,9 C 9,7 km/h (2 Bft) 100,00 %
30.08.2017 20:48 22,9 C 24,4 C 64 % 1010,3 hPa 0,0 l/m 4,1 km/h (1 Bft) O-NO 63 0 min 0,000 mm 0,0 UV-I 0 W/m 15,7 C 22,9 C 6,4 km/h (2 Bft) 97,92 %
30.08.2017 20:50 22,8 C 24,4 C 65 % 1010,3 hPa 0,0 l/m 4,7 km/h (1 Bft) O-NO 63 0 min 0,000 mm 0,0 UV-I 0 W/m 15,9 C 22,8 C 6,4 km/h (2 Bft) 97,37 %
30.08.2017 20:52 22,8 C 24,4 C 65 % 1010,3 hPa 0,0 l/m 3,6 km/h (1 Bft) O-NO 63 0 min 0,000 mm 0,0 UV-I 0 W/m 15,9 C 22,8 C 4,8 km/h (1 Bft) 100,00 %
30.08.2017 20:54 22,7 C 24,4 C 65 % 1010,3 hPa 0,0 l/m 3,0 km/h (1 Bft) O-NO 63 0 min 0,000 mm 0,0 UV-I 0 W/m 15,8 C 22,7 C 4,8 km/h (1 Bft) 100,00 %
30.08.2017 20:56 22,7 C 23,9 C 65 % 1010,3 hPa 0,0 l/m 3,3 km/h (1 Bft) O-NO 63 0 min 0,000 mm 0,0 UV-I 0 W/m 15,8 C 22,7 C 4,8 km/h (1 Bft) 100,00 %
30.08.2017 20:58 22,7 C 23,9 C 65 % 1010,3 hPa 0,0 l/m 4,8 km/h (1 Bft) O-NO 74 0 min 0,000 mm 0,0 UV-I 0 W/m 15,8 C 22,7 C 8,0 km/h (2 Bft) 96,00 %
30.08.2017 21:00 22,7 C 23,9 C 65 % 1010,3 hPa 0,0 l/m 3,9 km/h (1 Bft) O-NO 74 0 min 0,000 mm 0,0 UV-I 0 W/m 15,8 C 22,7 C 6,4 km/h (2 Bft) 97,14 %
30.08.2017 21:02 22,7 C 23,9 C 65 % 1010,3 hPa 0,0 l/m 3,8 km/h (1 Bft) O-NO 70 0 min 0,026 mm 0,0 UV-I 0 W/m 15,8 C 22,7 C 6,4 km/h (2 Bft) 100,00 %
30.08.2017 21:04 22,6 C 24,4 C 65 % 1010,3 hPa 0,0 l/m 2,4 km/h (1 Bft) O-NO 70 0 min 0,000 mm 0,0 UV-I 0 W/m 15,7 C 22,6 C 4,8 km/h (1 Bft) 100,00 %
30.08.2017 21:06 22,6 C 24,4 C 65 % 1010,3 hPa 0,0 l/m 2,2 km/h (1 Bft) O-NO 70 0 min 0,000 mm 0,0 UV-I 0 W/m 15,7 C 22,6 C 3,2 km/h (1 Bft) 100,00 %
30.08.2017 21:08 22,5 C 24,4 C 66 % 1010,3 hPa 0,0 l/m 3,0 km/h (1 Bft) O-NO 70 0 min 0,000 mm 0,0 UV-I 0 W/m 15,8 C 22,5 C 4,8 km/h (1 Bft) 100,00 %
30.08.2017 21:10 22,4 C 24,4 C 66 % 1010,3 hPa 0,0 l/m 2,7 km/h (1 Bft) O-NO 70 0 min 0,000 mm 0,0 UV-I 0 W/m 15,7 C 22,4 C 3,2 km/h (1 Bft) 100,00 %
30.08.2017 21:12 22,4 C 24,4 C 66 % 1010,3 hPa 0,0 l/m 2,3 km/h (1 Bft) O-NO 70 0 min 0,000 mm 0,0 UV-I 0 W/m 15,7 C 22,4 C 3,2 km/h (1 Bft) 94,34 %
30.08.2017 21:14 22,3 C 24,4 C 66 % 1010,4 hPa 0,0 l/m 2,7 km/h (1 Bft) O-NO 70 0 min 0,000 mm 0,0 UV-I 0 W/m 15,6 C 22,3 C 4,8 km/h (1 Bft) 96,00 %
30.08.2017 21:16 22,3 C 23,9 C 67 % 1010,4 hPa 0,0 l/m 3,5 km/h (1 Bft) O-NO 70 0 min 0,000 mm 0,0 UV-I 0 W/m 15,9 C 22,3 C 4,8 km/h (1 Bft) 94,74 %
30.08.2017 21:18 22,3 C 23,9 C 67 % 1010,4 hPa 0,0 l/m 3,5 km/h (1 Bft) O-NO 70 0 min 0,000 mm 0,0 UV-I 0 W/m 15,9 C 22,3 C 4,8 km/h (1 Bft) 96,23 %
30.08.2017 21:20 22,3 C 23,9 C 67 % 1010,4 hPa 0,0 l/m 3,2 km/h (1 Bft) O-NO 70 0 min 0,000 mm 0,0 UV-I 0 W/m 15,9 C 22,3 C 4,8 km/h (1 Bft) 94,44 %
30.08.2017 21:22 22,2 C 23,9 C 67 % 1010,4 hPa 0,0 l/m 2,5 km/h (1 Bft) O-NO 70 0 min 0,000 mm 0,0 UV-I 0 W/m 15,8 C 22,2 C 3,2 km/h (1 Bft) 95,92 %
30.08.2017 21:24 22,1 C 23,9 C 67 % 1010,4 hPa 0,0 l/m 2,2 km/h (1 Bft) O-NO 70 0 min 0,000 mm 0,0 UV-I 0 W/m 15,7 C 22,1 C 3,2 km/h (1 Bft) 94,34 %
30.08.2017 21:26 21,9 C 23,9 C 68 % 1010,4 hPa 0,0 l/m 3,0 km/h (1 Bft) O-NO 70 0 min 0,000 mm 0,0 UV-I 0 W/m 15,7 C 21,9 C 4,8 km/h (1 Bft) 95,74 %
30.08.2017 21:28 21,8 C 23,9 C 69 % 1010,4 hPa 0,0 l/m 3,1 km/h (1 Bft) O-NO 70 0 min 0,000 mm 0,0 UV-I 0 W/m 15,9 C 21,8 C 4,8 km/h (1 Bft) 94,44 %
30.08.2017 21:30 21,7 C 23,9 C 69 % 1010,4 hPa 0,0 l/m 3,1 km/h (1 Bft) O-NO 70 0 min 0,000 mm 0,0 UV-I 0 W/m 15,8 C 21,7 C 4,8 km/h (1 Bft) 96,00 %
30.08.2017 21:32 21,7 C 23,9 C 69 % 1010,3 hPa 0,0 l/m 2,3 km/h (1 Bft) O-NO 70 0 min 0,000 mm 0,0 UV-I 0 W/m 15,8 C 21,7 C 4,8 km/h (1 Bft) 96,00 %
30.08.2017 21:34 21,6 C 23,9 C 70 % 1010,3 hPa 0,0 l/m 2,6 km/h (1 Bft) O-NO 70 0 min 0,000 mm 0,0 UV-I 0 W/m 15,9 C 21,6 C 4,8 km/h (1 Bft) 94,34 %
30.08.2017 21:36 21,4 C 23,9 C 70 % 1010,4 hPa 0,0 l/m 2,9 km/h (1 Bft) O-NO 70 0 min 0,000 mm 0,0 UV-I 0 W/m 15,7 C 21,4 C 4,8 km/h (1 Bft) 96,00 %
30.08.2017 21:38 21,4 C 23,9 C 71 % 1010,3 hPa 0,0 l/m 3,7 km/h (1 Bft) O-NO 70 0 min 0,000 mm 0,0 UV-I 0 W/m 15,9 C 21,4 C 4,8 km/h (1 Bft) 94,74 %
30.08.2017 21:40 21,4 C 23,9 C 71 % 1010,3 hPa 0,0 l/m 3,3 km/h (1 Bft) O-NO 70 0 min 0,000 mm 0,0 UV-I 0 W/m 15,9 C 21,4 C 4,8 km/h (1 Bft) 96,00 %
30.08.2017 21:42 21,3 C 23,9 C 71 % 1010,3 hPa 0,0 l/m 3,1 km/h (1 Bft) O-NO 70 0 min 0,000 mm 0,0 UV-I 0 W/m 15,8 C 21,3 C 3,2 km/h (1 Bft) 93,62 %
30.08.2017 21:44 21,3 C 23,9 C 71 % 1010,3 hPa 0,0 l/m 2,2 km/h (1 Bft) O-NO 70 0 min 0,000 mm 0,0 UV-I 0 W/m 15,8 C 21,3 C 3,2 km/h (1 Bft) 96,00 %
30.08.2017 21:46 21,2 C 23,9 C 71 % 1010,3 hPa 0,0 l/m 2,1 km/h (1 Bft) O-NO 70 0 min 0,000 mm 0,0 UV-I 0 W/m 15,7 C 21,2 C 3,2 km/h (1 Bft) 93,18 %
30.08.2017 21:48 21,2 C 23,9 C 71 % 1010,3 hPa 0,0 l/m 2,7 km/h (1 Bft) O-NO 70 0 min 0,000 mm 0,0 UV-I 0 W/m 15,7 C 21,2 C 3,2 km/h (1 Bft) 97,87 %
30.08.2017 21:50 21,2 C 23,9 C 72 % 1010,3 hPa 0,0 l/m 3,3 km/h (1 Bft) O-NO 70 0 min 0,000 mm 0,0 UV-I 0 W/m 15,9 C 21,2 C 4,8 km/h (1 Bft) 97,37 %
30.08.2017 21:52 21,1 C 23,9 C 72 % 1010,2 hPa 0,0 l/m 4,5 km/h (1 Bft) O-NO 70 0 min 0,000 mm 0,0 UV-I 0 W/m 15,8 C 21,1 C 6,4 km/h (2 Bft) 94,64 %
30.08.2017 21:54 21,1 C 23,9 C 73 % 1010,3 hPa 0,0 l/m 4,0 km/h (1 Bft) O-NO 70 0 min 0,000 mm 0,0 UV-I 0 W/m 16,1 C 21,1 C 4,8 km/h (1 Bft) 97,56 %
30.08.2017 21:56 20,9 C 23,9 C 73 % 1010,2 hPa 0,0 l/m 3,9 km/h (1 Bft) O-NO 70 0 min 0,000 mm 0,0 UV-I 0 W/m 15,9 C 20,9 C 6,4 km/h (2 Bft) 96,43 %
30.08.2017 21:58 20,9 C 23,9 C 73 % 1010,3 hPa 0,0 l/m 4,4 km/h (1 Bft) O-NO 70 0 min 0,000 mm 0,0 UV-I 0 W/m 15,9 C 20,9 C 6,4 km/h (2 Bft) 95,74 %
30.08.2017 22:00 20,9 C 23,9 C 73 % 1010,3 hPa 0,0 l/m 5,8 km/h (2 Bft) O-NO 68 0 min 0,000 mm 0,0 UV-I 0 W/m 15,9 C 20,9 C 8,0 km/h (2 Bft) 94,74 %
30.08.2017 22:02 20,9 C 23,9 C 73 % 1010,2 hPa 0,0 l/m 5,6 km/h (1 Bft) O-NO 73 0 min 0,025 mm 0,0 UV-I 0 W/m 15,9 C 20,9 C 8,0 km/h (2 Bft) 98,00 %
30.08.2017 22:04 20,9 C 23,9 C 73 % 1010,2 hPa 0,0 l/m 5,2 km/h (1 Bft) O-NO 67 0 min 0,000 mm 0,0 UV-I 0 W/m 15,9 C 20,9 C 6,4 km/h (2 Bft) 96,00 %
30.08.2017 22:06 20,9 C 23,9 C 73 % 1010,2 hPa 0,0 l/m 4,7 km/h (1 Bft) O-NO 68 0 min 0,000 mm 0,0 UV-I 0 W/m 15,9 C 20,9 C 6,4 km/h (2 Bft) 97,62 %
30.08.2017 22:08 21,0 C 23,9 C 73 % 1010,2 hPa 0,0 l/m 4,8 km/h (1 Bft) O-NO 69 0 min 0,000 mm 0,0 UV-I 0 W/m 16,0 C 21,0 C 6,4 km/h (2 Bft) 96,36 %
30.08.2017 22:10 21,0 C 23,9 C 72 % 1010,1 hPa 0,0 l/m 4,8 km/h (1 Bft) O-NO 71 0 min 0,000 mm 0,0 UV-I 0 W/m 15,8 C 21,0 C 6,4 km/h (2 Bft) 97,22 %
30.08.2017 22:12 21,1 C 23,9 C 72 % 1010,1 hPa 0,0 l/m 4,8 km/h (1 Bft) O-NO 71 0 min 0,000 mm 0,0 UV-I 0 W/m 15,8 C 21,1 C 6,4 km/h (2 Bft) 96,00 %
30.08.2017 22:14 21,1 C 23,9 C 72 % 1010,0 hPa 0,0 l/m 5,5 km/h (1 Bft) O-NO 70 0 min 0,000 mm 0,0 UV-I 0 W/m 15,8 C 21,1 C 8,0 km/h (2 Bft) 100,00 %
30.08.2017 22:16 21,1 C 23,9 C 72 % 1010,0 hPa 0,0 l/m 5,0 km/h (1 Bft) O-NO 70 0 min 0,000 mm 0,0 UV-I 0 W/m 15,8 C 21,1 C 6,4 km/h (2 Bft) 100,00 %
30.08.2017 22:18 21,1 C 23,9 C 72 % 1010,0 hPa 0,0 l/m 5,9 km/h (2 Bft) O-NO 76 0 min 0,000 mm 0,0 UV-I 0 W/m 15,8 C 21,1 C 8,0 km/h (2 Bft) 97,37 %
30.08.2017 22:20 21,1 C 23,9 C 72 % 1010,0 hPa 0,0 l/m 7,3 km/h (2 Bft) O 80 0 min 0,000 mm 0,0 UV-I 0 W/m 15,8 C 20,8 C 12,9 km/h (3 Bft) 100,00 %
30.08.2017 22:22 21,1 C 23,9 C 72 % 1010,0 hPa 0,0 l/m 4,7 km/h (1 Bft) O 79 0 min 0,000 mm 0,0 UV-I 0 W/m 15,8 C 21,1 C 6,4 km/h (2 Bft) 100,00 %
30.08.2017 22:24 21,0 C 23,9 C 73 % 1010,0 hPa 0,0 l/m 4,6 km/h (1 Bft) O-NO 78 0 min 0,000 mm 0,0 UV-I 0 W/m 16,0 C 21,0 C 8,0 km/h (2 Bft) 100,00 %
30.08.2017 22:26 20,8 C 23,9 C 73 % 1009,9 hPa 0,0 l/m 4,5 km/h (1 Bft) O-NO 70 0 min 0,000 mm 0,0 UV-I 0 W/m 15,8 C 20,8 C 8,0 km/h (2 Bft) 100,00 %
30.08.2017 22:28 20,7 C 23,9 C 74 % 1009,9 hPa 0,0 l/m 5,0 km/h (1 Bft) O-SO 104 0 min 0,000 mm 0,0 UV-I 0 W/m 15,9 C 20,7 C 6,4 km/h (2 Bft) 97,37 %
30.08.2017 22:30 20,6 C 23,9 C 74 % 1009,9 hPa 0,0 l/m 5,9 km/h (2 Bft) O 94 0 min 0,000 mm 0,0 UV-I 0 W/m 15,8 C 20,6 C 9,7 km/h (2 Bft) 100,00 %
30.08.2017 22:32 20,7 C 23,9 C 74 % 1009,9 hPa 0,0 l/m 8,1 km/h (2 Bft) O 98 0 min 0,000 mm 0,0 UV-I 0 W/m 15,9 C 20,0 C 11,3 km/h (2 Bft) 97,87 %
30.08.2017 22:34 20,8 C 23,9 C 74 % 1009,9 hPa 0,0 l/m 8,3 km/h (2 Bft) O-SO 107 0 min 0,000 mm 0,0 UV-I 0 W/m 16,0 C 20,1 C 11,3 km/h (2 Bft) 100,00 %
30.08.2017 22:36 20,8 C 23,9 C 74 % 1009,9 hPa 0,0 l/m 7,6 km/h (2 Bft) O-SO 102 0 min 0,000 mm 0,0 UV-I 0 W/m 16,0 C 20,3 C 11,3 km/h (2 Bft) 100,00 %
30.08.2017 22:38 20,8 C 23,9 C 74 % 1009,9 hPa 0,0 l/m 6,4 km/h (2 Bft) O-NO 75 0 min 0,000 mm 0,0 UV-I 0 W/m 16,0 C 20,8 C 11,3 km/h (2 Bft) 100,00 %
30.08.2017 22:40 20,8 C 23,9 C 74 % 1009,9 hPa 0,0 l/m 5,7 km/h (1 Bft) O-SO 107 0 min 0,000 mm 0,0 UV-I 0 W/m 16,0 C 20,8 C 11,3 km/h (2 Bft) 100,00 %
30.08.2017 22:42 20,8 C 23,9 C 74 % 1009,9 hPa 0,0 l/m 8,9 km/h (2 Bft) O 90 0 min 0,000 mm 0,0 UV-I 0 W/m 16,0 C 19,9 C 12,9 km/h (3 Bft) 100,00 %
30.08.2017 22:44 20,8 C 23,9 C 74 % 1009,8 hPa 0,0 l/m 8,9 km/h (2 Bft) O 82 0 min 0,000 mm 0,0 UV-I 0 W/m 16,0 C 19,9 C 12,9 km/h (3 Bft) 100,00 %
30.08.2017 22:46 20,8 C 23,9 C 74 % 1009,9 hPa 0,0 l/m 7,0 km/h (2 Bft) O 82 0 min 0,000 mm 0,0 UV-I 0 W/m 16,0 C 20,6 C 11,3 km/h (2 Bft) 100,00 %
30.08.2017 22:48 20,8 C 23,9 C 75 % 1009,8 hPa 0,0 l/m 4,9 km/h (1 Bft) O-NO 69 0 min 0,000 mm 0,0 UV-I 0 W/m 16,2 C 20,8 C 8,0 km/h (2 Bft) 100,00 %
30.08.2017 22:50 20,8 C 23,9 C 76 % 1009,8 hPa 0,0 l/m 8,7 km/h (2 Bft) O-NO 74 0 min 0,000 mm 0,0 UV-I 0 W/m 16,4 C 19,9 C 14,5 km/h (3 Bft) 100,00 %
30.08.2017 22:52 20,8 C 23,9 C 76 % 1009,8 hPa 0,0 l/m 7,2 km/h (2 Bft) O 88 0 min 0,000 mm 0,0 UV-I 0 W/m 16,4 C 20,5 C 11,3 km/h (2 Bft) 97,56 %
30.08.2017 22:54 20,8 C 23,9 C 76 % 1009,8 hPa 0,0 l/m 5,8 km/h (2 Bft) O 96 0 min 0,000 mm 0,0 UV-I 0 W/m 16,4 C 20,8 C 9,7 km/h (2 Bft) 100,00 %
30.08.2017 22:56 20,8 C 23,9 C 77 % 1009,8 hPa 0,0 l/m 7,1 km/h (2 Bft) O 98 0 min 0,000 mm 0,0 UV-I 0 W/m 16,6 C 20,5 C 11,3 km/h (2 Bft) 98,00 %
30.08.2017 22:58 20,7 C 23,9 C 76 % 1009,8 hPa 0,0 l/m 7,2 km/h (2 Bft) SO 127 0 min 0,000 mm 0,0 UV-I 0 W/m 16,3 C 20,4 C 12,9 km/h (3 Bft) 100,00 %
30.08.2017 23:00 20,7 C 23,9 C 76 % 1009,8 hPa 0,0 l/m 6,1 km/h (2 Bft) O 89 0 min 0,000 mm 0,0 UV-I 0 W/m 16,3 C 20,7 C 9,7 km/h (2 Bft) 100,00 %
30.08.2017 23:02 20,7 C 23,9 C 77 % 1009,8 hPa 0,0 l/m 5,0 km/h (1 Bft) O 100 0 min 0,025 mm 0,0 UV-I 0 W/m 16,5 C 20,7 C 11,3 km/h (2 Bft) 100,00 %
30.08.2017 23:04 20,6 C 23,9 C 77 % 1009,8 hPa 0,0 l/m 5,7 km/h (1 Bft) O-SO 121 0 min 0,000 mm 0,0 UV-I 0 W/m 16,4 C 20,6 C 11,3 km/h (2 Bft) 98,00 %
30.08.2017 23:06 20,5 C 23,9 C 78 % 1009,8 hPa 0,0 l/m 5,4 km/h (1 Bft) O 85 0 min 0,000 mm 0,0 UV-I 0 W/m 16,5 C 20,5 C 9,7 km/h (2 Bft) 100,00 %
30.08.2017 23:08 20,4 C 23,9 C 78 % 1009,8 hPa 0,0 l/m 4,3 km/h (1 Bft) O-NO 77 0 min 0,000 mm 0,0 UV-I 0 W/m 16,4 C 20,4 C 9,7 km/h (2 Bft) 100,00 %
30.08.2017 23:10 20,3 C 23,9 C 79 % 1009,7 hPa 0,0 l/m 3,2 km/h (1 Bft) O-NO 72 0 min 0,000 mm 0,0 UV-I 0 W/m 16,5 C 20,3 C 6,4 km/h (2 Bft) 100,00 %
30.08.2017 23:12 20,2 C 23,9 C 79 % 1009,7 hPa 0,0 l/m 2,7 km/h (1 Bft) O-NO 72 0 min 0,000 mm 0,0 UV-I 0 W/m 16,4 C 20,2 C 4,8 km/h (1 Bft) 100,00 %
30.08.2017 23:14 20,2 C 23,9 C 79 % 1009,8 hPa 0,0 l/m 0,8 km/h (0 Bft) O-NO 72 0 min 0,000 mm 0,0 UV-I 0 W/m 16,4 C 20,2 C 1,6 km/h (1 Bft) 98,11 %
30.08.2017 23:16 20,0 C 23,9 C 80 % 1009,8 hPa 0,0 l/m 0,0 km/h (0 Bft) O-NO 72 0 min 0,000 mm 0,0 UV-I 0 W/m 16,4 C 20,0 C 0,0 km/h (0 Bft) 97,56 %
30.08.2017 23:18 19,7 C 23,9 C 80 % 1009,8 hPa 0,0 l/m 0,0 km/h (0 Bft) O-NO 72 0 min 0,000 mm 0,0 UV-I 0 W/m 16,1 C 19,7 C 0,0 km/h (0 Bft) 98,00 %
30.08.2017 23:20 19,6 C 23,9 C 81 % 1009,8 hPa 0,0 l/m 0,0 km/h (0 Bft) O-NO 72 0 min 0,000 mm 0,0 UV-I 0 W/m 16,2 C 19,6 C 0,0 km/h (0 Bft) 98,11 %
30.08.2017 23:22 19,3 C 23,9 C 81 % 1009,8 hPa 0,0 l/m 0,0 km/h (0 Bft) O-NO 72 0 min 0,000 mm 0,0 UV-I 0 W/m 16,0 C 19,3 C 0,0 km/h (0 Bft) 97,44 %
30.08.2017 23:24 19,2 C 23,9 C 82 % 1009,8 hPa 0,0 l/m 0,0 km/h (0 Bft) O-NO 72 0 min 0,000 mm 0,0 UV-I 0 W/m 16,0 C 19,2 C 0,0 km/h (0 Bft) 96,15 %
30.08.2017 23:26 19,0 C 23,9 C 82 % 1009,7 hPa 0,0 l/m 0,0 km/h (0 Bft) O-NO 72 0 min 0,000 mm 0,0 UV-I 0 W/m 15,9 C 19,0 C 0,0 km/h (0 Bft) 98,04 %
30.08.2017 23:28 18,9 C 23,9 C 83 % 1009,7 hPa 0,0 l/m 2,0 km/h (1 Bft) O-NO 72 0 min 0,000 mm 0,0 UV-I 0 W/m 15,9 C 18,9 C 4,8 km/h (1 Bft) 97,14 %
30.08.2017 23:30 18,8 C 23,9 C 84 % 1009,7 hPa 0,0 l/m 2,7 km/h (1 Bft) O-NO 72 0 min 0,000 mm 0,0 UV-I 0 W/m 16,0 C 18,8 C 3,2 km/h (1 Bft) 98,11 %
30.08.2017 23:32 18,8 C 23,9 C 84 % 1009,7 hPa 0,0 l/m 2,2 km/h (1 Bft) O-NO 72 0 min 0,000 mm 0,0 UV-I 0 W/m 16,0 C 18,8 C 3,2 km/h (1 Bft) 97,37 %
30.08.2017 23:34 18,7 C 23,9 C 84 % 1009,7 hPa 0,0 l/m 1,9 km/h (1 Bft) O-NO 72 0 min 0,000 mm 0,0 UV-I 0 W/m 15,9 C 18,7 C 3,2 km/h (1 Bft) 98,00 %
30.08.2017 23:36 18,6 C 23,9 C 84 % 1009,8 hPa 0,0 l/m 0,3 km/h (0 Bft) O-NO 72 0 min 0,000 mm 0,0 UV-I 0 W/m 15,8 C 18,6 C 1,6 km/h (1 Bft) 98,00 %
30.08.2017 23:38 18,6 C 23,9 C 84 % 1009,8 hPa 0,0 l/m 0,0 km/h (0 Bft) O-NO 72 0 min 0,000 mm 0,0 UV-I 0 W/m 15,8 C 18,6 C 0,0 km/h (0 Bft) 97,87 %
30.08.2017 23:40 18,4 C 23,9 C 85 % 1009,8 hPa 0,0 l/m 0,0 km/h (0 Bft) O-NO 72 0 min 0,000 mm 0,0 UV-I 0 W/m 15,8 C 18,4 C 0,0 km/h (0 Bft) 98,08 %
30.08.2017 23:42 18,3 C 23,9 C 85 % 1009,8 hPa 0,0 l/m 0,0 km/h (0 Bft) O-NO 72 0 min 0,000 mm 0,0 UV-I 0 W/m 15,7 C 18,3 C 0,0 km/h (0 Bft) 95,74 %
30.08.2017 23:44 18,2 C 23,9 C 85 % 1009,7 hPa 0,0 l/m 0,0 km/h (0 Bft) O-NO 72 0 min 0,000 mm 0,0 UV-I 0 W/m 15,6 C 18,2 C 0,0 km/h (0 Bft) 97,87 %
30.08.2017 23:46 18,1 C 23,9 C 86 % 1009,8 hPa 0,0 l/m 0,0 km/h (0 Bft) O-NO 72 0 min 0,000 mm 0,0 UV-I 0 W/m 15,7 C 18,1 C 0,0 km/h (0 Bft) 97,37 %
30.08.2017 23:48 18,0 C 23,9 C 86 % 1009,7 hPa 0,0 l/m 0,1 km/h (0 Bft) O-NO 72 0 min 0,000 mm 0,0 UV-I 0 W/m 15,6 C 18,0 C 1,6 km/h (1 Bft) 97,87 %
30.08.2017 23:50 17,9 C 23,9 C 87 % 1009,7 hPa 0,0 l/m 2,4 km/h (1 Bft) O-NO 72 0 min 0,000 mm 0,0 UV-I 0 W/m 15,7 C 17,9 C 3,2 km/h (1 Bft) 98,00 %
30.08.2017 23:52 17,9 C 23,9 C 87 % 1009,6 hPa 0,0 l/m 3,3 km/h (1 Bft) O-NO 72 0 min 0,000 mm 0,0 UV-I 0 W/m 15,7 C 17,9 C 4,8 km/h (1 Bft) 100,00 %
30.08.2017 23:54 17,9 C 23,9 C 88 % 1009,6 hPa 0,0 l/m 2,6 km/h (1 Bft) O-NO 72 0 min 0,000 mm 0,0 UV-I 0 W/m 15,9 C 17,9 C 4,8 km/h (1 Bft) 97,87 %
30.08.2017 23:56 18,1 C 23,9 C 88 % 1009,6 hPa 0,0 l/m 2,2 km/h (1 Bft) O-NO 72 0 min 0,000 mm 0,0 UV-I 0 W/m 16,1 C 18,1 C 3,2 km/h (1 Bft) 97,56 %
30.08.2017 23:58 18,1 C 23,9 C 87 % 1009,6 hPa 0,0 l/m 1,3 km/h (1 Bft) O-NO 72 0 min 0,000 mm 0,0 UV-I 0 W/m 15,9 C 18,1 C 3,2 km/h (1 Bft) 95,12 %
_ Min-Zeit 06:24 03:38 17:30 23:52 - 00:14 - - - - - - 06:26 06:26 00:28 03:32
Minimum _ 11,3 C 22,8 C 45 % 1009,6 hPa - 0,0 km/h (0 Bft) - - - - - - 9,9 C 11,3 C 0,0 km/h (0 Bft) 91,43 %
_ Max-Zeit 17:06 15:46 06:10 03:02 00:00 15:46 - - 07:09 14:00 12:46 12:52 15:02 17:12 15:46 00:50
Maximum _ 28,1 C 24,4 C 92 % 1014,5 hPa 0,0 l/m 11,8 km/h
NO (2 Bft)
- - 3 min 0,508 mm 5,0 UV-I 777 W/m 18,9 C 28,1 C 17,7 km/h
O-NO (3 Bft)
100,00 %
Durchschnitt _ 19,6 C 23,5 C 73 % 1012,6 hPa #0,0 l/m 3,9 km/h (1 Bft) O-NO - #12:34 h #4,216 mm 2,9 UV-I 439 W/m 14,3 C 19,5 C 6,3 km/h (2 Bft) 98,04 %